<?xml version="1.0" encoding="UTF-8" standalone="no" ?>
<gpx xmlns="http://www.topografix.com/GPX/1/1" xmlns:xsi="http://www.w3.org/2001/XMLSchema-instance" xsi:schemaLocation="http://www.topografix.com/GPX/1/1 http://www.topografix.com/GPX/1/1/gpx.xsd" version="1.1" creator="VisuGPX - https://www.visugpx.com">
  <metadata>
    <name>12km l'eau au coeur de la fôret de Fontainebleau</name>
    <desc><![CDATA[Départ gare de Thomery, arrivée gare Fontainebleau Avon]]></desc>
  </metadata>
  <trk>
    <name><![CDATA[eau_de_paris_17_09_2016]]></name>
    <trkseg>
      <trkpt lat="48.39389" lon="2.76413">
        <ele>83.29</ele>
        <time>2016-09-17T12:17:46Z</time>
      </trkpt>
      <trkpt lat="48.39389" lon="2.76413">
        <ele>82.81</ele>
        <time>2016-09-17T12:17:59Z</time>
      </trkpt>
      <trkpt lat="48.39389" lon="2.76413">
        <ele>83.29</ele>
        <time>2016-09-17T12:18:04Z</time>
      </trkpt>
      <trkpt lat="48.39389" lon="2.76414">
        <ele>83.29</ele>
        <time>2016-09-17T12:18:12Z</time>
      </trkpt>
      <trkpt lat="48.39389" lon="2.76414">
        <ele>83.29</ele>
        <time>2016-09-17T12:18:23Z</time>
      </trkpt>
      <trkpt lat="48.39389" lon="2.76414">
        <ele>83.29</ele>
        <time>2016-09-17T12:18:39Z</time>
      </trkpt>
      <trkpt lat="48.39389" lon="2.76412">
        <ele>83.29</ele>
        <time>2016-09-17T12:18:55Z</time>
      </trkpt>
      <trkpt lat="48.39388" lon="2.76413">
        <ele>83.29</ele>
        <time>2016-09-17T12:19:12Z</time>
      </trkpt>
      <trkpt lat="48.39388" lon="2.76413">
        <ele>83.29</ele>
        <time>2016-09-17T12:19:25Z</time>
      </trkpt>
      <trkpt lat="48.39389" lon="2.76413">
        <ele>83.29</ele>
        <time>2016-09-17T12:19:41Z</time>
      </trkpt>
      <trkpt lat="48.3939" lon="2.76413">
        <ele>83.77</ele>
        <time>2016-09-17T12:19:58Z</time>
      </trkpt>
      <trkpt lat="48.3939" lon="2.76413">
        <ele>83.29</ele>
        <time>2016-09-17T12:20:12Z</time>
      </trkpt>
      <trkpt lat="48.39389" lon="2.76413">
        <ele>83.29</ele>
        <time>2016-09-17T12:20:21Z</time>
      </trkpt>
      <trkpt lat="48.39389" lon="2.76413">
        <ele>83.77</ele>
        <time>2016-09-17T12:20:35Z</time>
      </trkpt>
      <trkpt lat="48.3939" lon="2.76415">
        <ele>83.77</ele>
        <time>2016-09-17T12:20:49Z</time>
      </trkpt>
      <trkpt lat="48.3939" lon="2.76415">
        <ele>83.77</ele>
        <time>2016-09-17T12:21:00Z</time>
      </trkpt>
      <trkpt lat="48.3939" lon="2.76415">
        <ele>83.77</ele>
        <time>2016-09-17T12:21:14Z</time>
      </trkpt>
      <trkpt lat="48.39389" lon="2.76415">
        <ele>83.77</ele>
        <time>2016-09-17T12:21:34Z</time>
      </trkpt>
      <trkpt lat="48.39389" lon="2.76414">
        <ele>84.25</ele>
        <time>2016-09-17T12:21:44Z</time>
      </trkpt>
      <trkpt lat="48.39389" lon="2.76414">
        <ele>83.77</ele>
        <time>2016-09-17T12:22:01Z</time>
      </trkpt>
      <trkpt lat="48.39388" lon="2.76414">
        <ele>83.77</ele>
        <time>2016-09-17T12:22:16Z</time>
      </trkpt>
      <trkpt lat="48.39388" lon="2.76414">
        <ele>83.77</ele>
        <time>2016-09-17T12:22:30Z</time>
      </trkpt>
      <trkpt lat="48.39388" lon="2.76414">
        <ele>84.25</ele>
        <time>2016-09-17T12:22:42Z</time>
      </trkpt>
      <trkpt lat="48.39388" lon="2.76415">
        <ele>83.77</ele>
        <time>2016-09-17T12:22:57Z</time>
      </trkpt>
      <trkpt lat="48.39388" lon="2.76415">
        <ele>84.25</ele>
        <time>2016-09-17T12:23:13Z</time>
      </trkpt>
      <trkpt lat="48.39388" lon="2.76416">
        <ele>84.25</ele>
        <time>2016-09-17T12:23:30Z</time>
      </trkpt>
      <trkpt lat="48.39387" lon="2.76416">
        <ele>84.25</ele>
        <time>2016-09-17T12:23:39Z</time>
      </trkpt>
      <trkpt lat="48.39383" lon="2.76412">
        <ele>84.25</ele>
        <time>2016-09-17T12:23:46Z</time>
      </trkpt>
      <trkpt lat="48.39383" lon="2.76412">
        <ele>84.25</ele>
        <time>2016-09-17T12:23:47Z</time>
      </trkpt>
      <trkpt lat="48.39375" lon="2.7641">
        <ele>84.25</ele>
        <time>2016-09-17T12:23:55Z</time>
      </trkpt>
      <trkpt lat="48.39366" lon="2.7641">
        <ele>84.25</ele>
        <time>2016-09-17T12:24:02Z</time>
      </trkpt>
      <trkpt lat="48.39365" lon="2.7641">
        <ele>84.25</ele>
        <time>2016-09-17T12:24:03Z</time>
      </trkpt>
      <trkpt lat="48.39359" lon="2.76408">
        <ele>84.73</ele>
        <time>2016-09-17T12:24:10Z</time>
      </trkpt>
      <trkpt lat="48.3935" lon="2.76409">
        <ele>84.25</ele>
        <time>2016-09-17T12:24:18Z</time>
      </trkpt>
      <trkpt lat="48.39347" lon="2.7641">
        <ele>84.25</ele>
        <time>2016-09-17T12:24:23Z</time>
      </trkpt>
      <trkpt lat="48.39338" lon="2.76411">
        <ele>84.73</ele>
        <time>2016-09-17T12:24:32Z</time>
      </trkpt>
      <trkpt lat="48.39336" lon="2.76411">
        <ele>84.73</ele>
        <time>2016-09-17T12:24:34Z</time>
      </trkpt>
      <trkpt lat="48.39328" lon="2.76409">
        <ele>84.73</ele>
        <time>2016-09-17T12:24:39Z</time>
      </trkpt>
      <trkpt lat="48.3932" lon="2.76409">
        <ele>84.73</ele>
        <time>2016-09-17T12:24:47Z</time>
      </trkpt>
      <trkpt lat="48.39317" lon="2.76407">
        <ele>84.73</ele>
        <time>2016-09-17T12:24:53Z</time>
      </trkpt>
      <trkpt lat="48.3931" lon="2.76405">
        <ele>84.73</ele>
        <time>2016-09-17T12:25:00Z</time>
      </trkpt>
      <trkpt lat="48.39301" lon="2.76405">
        <ele>84.73</ele>
        <time>2016-09-17T12:25:06Z</time>
      </trkpt>
      <trkpt lat="48.39292" lon="2.76407">
        <ele>85.21</ele>
        <time>2016-09-17T12:25:12Z</time>
      </trkpt>
      <trkpt lat="48.39283" lon="2.7641">
        <ele>85.21</ele>
        <time>2016-09-17T12:25:19Z</time>
      </trkpt>
      <trkpt lat="48.39273" lon="2.7641">
        <ele>85.21</ele>
        <time>2016-09-17T12:25:26Z</time>
      </trkpt>
      <trkpt lat="48.39262" lon="2.76412">
        <ele>85.69</ele>
        <time>2016-09-17T12:25:35Z</time>
      </trkpt>
      <trkpt lat="48.39256" lon="2.76412">
        <ele>85.69</ele>
        <time>2016-09-17T12:25:40Z</time>
      </trkpt>
      <trkpt lat="48.39248" lon="2.76412">
        <ele>85.69</ele>
        <time>2016-09-17T12:25:48Z</time>
      </trkpt>
      <trkpt lat="48.39241" lon="2.76411">
        <ele>85.69</ele>
        <time>2016-09-17T12:25:55Z</time>
      </trkpt>
      <trkpt lat="48.39233" lon="2.7641">
        <ele>85.69</ele>
        <time>2016-09-17T12:26:01Z</time>
      </trkpt>
      <trkpt lat="48.39224" lon="2.76412">
        <ele>85.69</ele>
        <time>2016-09-17T12:26:08Z</time>
      </trkpt>
      <trkpt lat="48.39217" lon="2.76411">
        <ele>85.69</ele>
        <time>2016-09-17T12:26:15Z</time>
      </trkpt>
      <trkpt lat="48.39215" lon="2.76412">
        <ele>85.69</ele>
        <time>2016-09-17T12:26:17Z</time>
      </trkpt>
      <trkpt lat="48.39212" lon="2.76411">
        <ele>86.18</ele>
        <time>2016-09-17T12:26:20Z</time>
      </trkpt>
      <trkpt lat="48.39202" lon="2.76413">
        <ele>86.18</ele>
        <time>2016-09-17T12:26:29Z</time>
      </trkpt>
      <trkpt lat="48.39192" lon="2.76412">
        <ele>86.18</ele>
        <time>2016-09-17T12:26:36Z</time>
      </trkpt>
      <trkpt lat="48.3919" lon="2.76412">
        <ele>86.18</ele>
        <time>2016-09-17T12:26:37Z</time>
      </trkpt>
      <trkpt lat="48.39182" lon="2.76414">
        <ele>86.18</ele>
        <time>2016-09-17T12:26:44Z</time>
      </trkpt>
      <trkpt lat="48.39174" lon="2.76413">
        <ele>86.18</ele>
        <time>2016-09-17T12:26:50Z</time>
      </trkpt>
      <trkpt lat="48.39167" lon="2.76413">
        <ele>86.18</ele>
        <time>2016-09-17T12:26:55Z</time>
      </trkpt>
      <trkpt lat="48.39156" lon="2.76413">
        <ele>86.18</ele>
        <time>2016-09-17T12:27:03Z</time>
      </trkpt>
      <trkpt lat="48.39154" lon="2.76413">
        <ele>86.18</ele>
        <time>2016-09-17T12:27:04Z</time>
      </trkpt>
      <trkpt lat="48.39145" lon="2.76414">
        <ele>86.66</ele>
        <time>2016-09-17T12:27:12Z</time>
      </trkpt>
      <trkpt lat="48.39138" lon="2.76414">
        <ele>86.66</ele>
        <time>2016-09-17T12:27:19Z</time>
      </trkpt>
      <trkpt lat="48.39133" lon="2.76414">
        <ele>86.66</ele>
        <time>2016-09-17T12:27:25Z</time>
      </trkpt>
      <trkpt lat="48.39127" lon="2.76414">
        <ele>86.66</ele>
        <time>2016-09-17T12:27:31Z</time>
      </trkpt>
      <trkpt lat="48.39116" lon="2.76415">
        <ele>86.66</ele>
        <time>2016-09-17T12:27:39Z</time>
      </trkpt>
      <trkpt lat="48.39108" lon="2.76414">
        <ele>86.66</ele>
        <time>2016-09-17T12:27:46Z</time>
      </trkpt>
      <trkpt lat="48.39101" lon="2.76413">
        <ele>86.66</ele>
        <time>2016-09-17T12:27:49Z</time>
      </trkpt>
      <trkpt lat="48.39092" lon="2.76414">
        <ele>86.66</ele>
        <time>2016-09-17T12:27:56Z</time>
      </trkpt>
      <trkpt lat="48.39091" lon="2.76413">
        <ele>86.66</ele>
        <time>2016-09-17T12:27:57Z</time>
      </trkpt>
      <trkpt lat="48.39079" lon="2.76407">
        <ele>86.66</ele>
        <time>2016-09-17T12:28:05Z</time>
      </trkpt>
      <trkpt lat="48.39075" lon="2.76401">
        <ele>87.14</ele>
        <time>2016-09-17T12:28:09Z</time>
      </trkpt>
      <trkpt lat="48.39075" lon="2.76397">
        <ele>87.14</ele>
        <time>2016-09-17T12:28:12Z</time>
      </trkpt>
      <trkpt lat="48.39075" lon="2.76394">
        <ele>87.14</ele>
        <time>2016-09-17T12:28:14Z</time>
      </trkpt>
      <trkpt lat="48.39072" lon="2.76382">
        <ele>87.14</ele>
        <time>2016-09-17T12:28:21Z</time>
      </trkpt>
      <trkpt lat="48.39071" lon="2.76376">
        <ele>87.62</ele>
        <time>2016-09-17T12:28:26Z</time>
      </trkpt>
      <trkpt lat="48.39069" lon="2.76363">
        <ele>86.66</ele>
        <time>2016-09-17T12:28:33Z</time>
      </trkpt>
      <trkpt lat="48.39068" lon="2.7636">
        <ele>87.14</ele>
        <time>2016-09-17T12:28:35Z</time>
      </trkpt>
      <trkpt lat="48.39069" lon="2.76357">
        <ele>87.14</ele>
        <time>2016-09-17T12:28:37Z</time>
      </trkpt>
      <trkpt lat="48.39069" lon="2.76352">
        <ele>87.14</ele>
        <time>2016-09-17T12:28:40Z</time>
      </trkpt>
      <trkpt lat="48.3907" lon="2.7634">
        <ele>87.14</ele>
        <time>2016-09-17T12:28:46Z</time>
      </trkpt>
      <trkpt lat="48.3907" lon="2.76338">
        <ele>87.14</ele>
        <time>2016-09-17T12:28:47Z</time>
      </trkpt>
      <trkpt lat="48.39069" lon="2.76334">
        <ele>87.14</ele>
        <time>2016-09-17T12:28:49Z</time>
      </trkpt>
      <trkpt lat="48.39069" lon="2.7633">
        <ele>87.14</ele>
        <time>2016-09-17T12:28:51Z</time>
      </trkpt>
      <trkpt lat="48.39067" lon="2.76321">
        <ele>87.62</ele>
        <time>2016-09-17T12:28:57Z</time>
      </trkpt>
      <trkpt lat="48.39067" lon="2.76313">
        <ele>87.62</ele>
        <time>2016-09-17T12:29:03Z</time>
      </trkpt>
      <trkpt lat="48.39066" lon="2.763">
        <ele>87.62</ele>
        <time>2016-09-17T12:29:10Z</time>
      </trkpt>
      <trkpt lat="48.39066" lon="2.76298">
        <ele>87.62</ele>
        <time>2016-09-17T12:29:11Z</time>
      </trkpt>
      <trkpt lat="48.39067" lon="2.76294">
        <ele>87.62</ele>
        <time>2016-09-17T12:29:13Z</time>
      </trkpt>
      <trkpt lat="48.39065" lon="2.76281">
        <ele>88.1</ele>
        <time>2016-09-17T12:29:19Z</time>
      </trkpt>
      <trkpt lat="48.39065" lon="2.7627">
        <ele>88.1</ele>
        <time>2016-09-17T12:29:24Z</time>
      </trkpt>
      <trkpt lat="48.39065" lon="2.76266">
        <ele>88.1</ele>
        <time>2016-09-17T12:29:26Z</time>
      </trkpt>
      <trkpt lat="48.39064" lon="2.76255">
        <ele>88.58</ele>
        <time>2016-09-17T12:29:33Z</time>
      </trkpt>
      <trkpt lat="48.39064" lon="2.76252">
        <ele>88.1</ele>
        <time>2016-09-17T12:29:34Z</time>
      </trkpt>
      <trkpt lat="48.39065" lon="2.76248">
        <ele>88.58</ele>
        <time>2016-09-17T12:29:36Z</time>
      </trkpt>
      <trkpt lat="48.39064" lon="2.76238">
        <ele>88.58</ele>
        <time>2016-09-17T12:29:41Z</time>
      </trkpt>
      <trkpt lat="48.39063" lon="2.76233">
        <ele>88.58</ele>
        <time>2016-09-17T12:29:44Z</time>
      </trkpt>
      <trkpt lat="48.39064" lon="2.76219">
        <ele>88.58</ele>
        <time>2016-09-17T12:29:52Z</time>
      </trkpt>
      <trkpt lat="48.39063" lon="2.76215">
        <ele>88.58</ele>
        <time>2016-09-17T12:29:54Z</time>
      </trkpt>
      <trkpt lat="48.39061" lon="2.76202">
        <ele>89.06</ele>
        <time>2016-09-17T12:30:00Z</time>
      </trkpt>
      <trkpt lat="48.3906" lon="2.76198">
        <ele>88.58</ele>
        <time>2016-09-17T12:30:02Z</time>
      </trkpt>
      <trkpt lat="48.39062" lon="2.76191">
        <ele>89.06</ele>
        <time>2016-09-17T12:30:07Z</time>
      </trkpt>
      <trkpt lat="48.39062" lon="2.76178">
        <ele>89.06</ele>
        <time>2016-09-17T12:30:14Z</time>
      </trkpt>
      <trkpt lat="48.39063" lon="2.76168">
        <ele>89.06</ele>
        <time>2016-09-17T12:30:19Z</time>
      </trkpt>
      <trkpt lat="48.39063" lon="2.76153">
        <ele>90.02</ele>
        <time>2016-09-17T12:30:27Z</time>
      </trkpt>
      <trkpt lat="48.39064" lon="2.76139">
        <ele>89.54</ele>
        <time>2016-09-17T12:30:34Z</time>
      </trkpt>
      <trkpt lat="48.39062" lon="2.76127">
        <ele>89.54</ele>
        <time>2016-09-17T12:30:41Z</time>
      </trkpt>
      <trkpt lat="48.3906" lon="2.76114">
        <ele>90.02</ele>
        <time>2016-09-17T12:30:47Z</time>
      </trkpt>
      <trkpt lat="48.39059" lon="2.76105">
        <ele>90.02</ele>
        <time>2016-09-17T12:30:52Z</time>
      </trkpt>
      <trkpt lat="48.39057" lon="2.76097">
        <ele>90.02</ele>
        <time>2016-09-17T12:30:56Z</time>
      </trkpt>
      <trkpt lat="48.39057" lon="2.76085">
        <ele>90.5</ele>
        <time>2016-09-17T12:31:03Z</time>
      </trkpt>
      <trkpt lat="48.39056" lon="2.76081">
        <ele>90.02</ele>
        <time>2016-09-17T12:31:05Z</time>
      </trkpt>
      <trkpt lat="48.39058" lon="2.76069">
        <ele>90.02</ele>
        <time>2016-09-17T12:31:12Z</time>
      </trkpt>
      <trkpt lat="48.39058" lon="2.76058">
        <ele>90.5</ele>
        <time>2016-09-17T12:31:18Z</time>
      </trkpt>
      <trkpt lat="48.39058" lon="2.76056">
        <ele>90.02</ele>
        <time>2016-09-17T12:31:19Z</time>
      </trkpt>
      <trkpt lat="48.39058" lon="2.76051">
        <ele>90.02</ele>
        <time>2016-09-17T12:31:22Z</time>
      </trkpt>
      <trkpt lat="48.39059" lon="2.76045">
        <ele>90.02</ele>
        <time>2016-09-17T12:31:25Z</time>
      </trkpt>
      <trkpt lat="48.39059" lon="2.76035">
        <ele>90.02</ele>
        <time>2016-09-17T12:31:30Z</time>
      </trkpt>
      <trkpt lat="48.39058" lon="2.76018">
        <ele>90.02</ele>
        <time>2016-09-17T12:31:37Z</time>
      </trkpt>
      <trkpt lat="48.39058" lon="2.76005">
        <ele>90.02</ele>
        <time>2016-09-17T12:31:44Z</time>
      </trkpt>
      <trkpt lat="48.39055" lon="2.75986">
        <ele>90.5</ele>
        <time>2016-09-17T12:31:53Z</time>
      </trkpt>
      <trkpt lat="48.39055" lon="2.75983">
        <ele>90.5</ele>
        <time>2016-09-17T12:31:55Z</time>
      </trkpt>
      <trkpt lat="48.39054" lon="2.75977">
        <ele>90.5</ele>
        <time>2016-09-17T12:31:57Z</time>
      </trkpt>
      <trkpt lat="48.39053" lon="2.75963">
        <ele>90.5</ele>
        <time>2016-09-17T12:32:02Z</time>
      </trkpt>
      <trkpt lat="48.39054" lon="2.75956">
        <ele>90.5</ele>
        <time>2016-09-17T12:32:06Z</time>
      </trkpt>
      <trkpt lat="48.39052" lon="2.75945">
        <ele>90.98</ele>
        <time>2016-09-17T12:32:11Z</time>
      </trkpt>
      <trkpt lat="48.39053" lon="2.75941">
        <ele>90.98</ele>
        <time>2016-09-17T12:32:13Z</time>
      </trkpt>
      <trkpt lat="48.39054" lon="2.75935">
        <ele>90.98</ele>
        <time>2016-09-17T12:32:16Z</time>
      </trkpt>
      <trkpt lat="48.3905" lon="2.75927">
        <ele>90.98</ele>
        <time>2016-09-17T12:32:21Z</time>
      </trkpt>
      <trkpt lat="48.3905" lon="2.75916">
        <ele>90.98</ele>
        <time>2016-09-17T12:32:26Z</time>
      </trkpt>
      <trkpt lat="48.39051" lon="2.7591">
        <ele>90.98</ele>
        <time>2016-09-17T12:32:30Z</time>
      </trkpt>
      <trkpt lat="48.39051" lon="2.75899">
        <ele>90.5</ele>
        <time>2016-09-17T12:32:36Z</time>
      </trkpt>
      <trkpt lat="48.39051" lon="2.75889">
        <ele>90.02</ele>
        <time>2016-09-17T12:32:42Z</time>
      </trkpt>
      <trkpt lat="48.39051" lon="2.75879">
        <ele>90.02</ele>
        <time>2016-09-17T12:32:49Z</time>
      </trkpt>
      <trkpt lat="48.3905" lon="2.75864">
        <ele>90.5</ele>
        <time>2016-09-17T12:32:56Z</time>
      </trkpt>
      <trkpt lat="48.39048" lon="2.75846">
        <ele>90.02</ele>
        <time>2016-09-17T12:33:04Z</time>
      </trkpt>
      <trkpt lat="48.39047" lon="2.75841">
        <ele>90.02</ele>
        <time>2016-09-17T12:33:06Z</time>
      </trkpt>
      <trkpt lat="48.39049" lon="2.75833">
        <ele>90.02</ele>
        <time>2016-09-17T12:33:11Z</time>
      </trkpt>
      <trkpt lat="48.39048" lon="2.75821">
        <ele>89.54</ele>
        <time>2016-09-17T12:33:17Z</time>
      </trkpt>
      <trkpt lat="48.39047" lon="2.75816">
        <ele>89.54</ele>
        <time>2016-09-17T12:33:19Z</time>
      </trkpt>
      <trkpt lat="48.39047" lon="2.75812">
        <ele>89.54</ele>
        <time>2016-09-17T12:33:21Z</time>
      </trkpt>
      <trkpt lat="48.39047" lon="2.75806">
        <ele>89.54</ele>
        <time>2016-09-17T12:33:24Z</time>
      </trkpt>
      <trkpt lat="48.39046" lon="2.75794">
        <ele>89.54</ele>
        <time>2016-09-17T12:33:30Z</time>
      </trkpt>
      <trkpt lat="48.39046" lon="2.75782">
        <ele>89.54</ele>
        <time>2016-09-17T12:33:37Z</time>
      </trkpt>
      <trkpt lat="48.39046" lon="2.75779">
        <ele>89.54</ele>
        <time>2016-09-17T12:33:38Z</time>
      </trkpt>
      <trkpt lat="48.39045" lon="2.75773">
        <ele>89.54</ele>
        <time>2016-09-17T12:33:41Z</time>
      </trkpt>
      <trkpt lat="48.39044" lon="2.75769">
        <ele>89.54</ele>
        <time>2016-09-17T12:33:43Z</time>
      </trkpt>
      <trkpt lat="48.39044" lon="2.7576">
        <ele>90.02</ele>
        <time>2016-09-17T12:33:48Z</time>
      </trkpt>
      <trkpt lat="48.39046" lon="2.75756">
        <ele>89.54</ele>
        <time>2016-09-17T12:33:50Z</time>
      </trkpt>
      <trkpt lat="48.39045" lon="2.7574">
        <ele>89.54</ele>
        <time>2016-09-17T12:33:59Z</time>
      </trkpt>
      <trkpt lat="48.39043" lon="2.75725">
        <ele>89.54</ele>
        <time>2016-09-17T12:34:07Z</time>
      </trkpt>
      <trkpt lat="48.39043" lon="2.75722">
        <ele>89.54</ele>
        <time>2016-09-17T12:34:08Z</time>
      </trkpt>
      <trkpt lat="48.39043" lon="2.75713">
        <ele>90.02</ele>
        <time>2016-09-17T12:34:12Z</time>
      </trkpt>
      <trkpt lat="48.39043" lon="2.75703">
        <ele>89.54</ele>
        <time>2016-09-17T12:34:19Z</time>
      </trkpt>
      <trkpt lat="48.39042" lon="2.75698">
        <ele>89.54</ele>
        <time>2016-09-17T12:34:21Z</time>
      </trkpt>
      <trkpt lat="48.39043" lon="2.75687">
        <ele>89.54</ele>
        <time>2016-09-17T12:34:25Z</time>
      </trkpt>
      <trkpt lat="48.39042" lon="2.75674">
        <ele>89.54</ele>
        <time>2016-09-17T12:34:31Z</time>
      </trkpt>
      <trkpt lat="48.39041" lon="2.75667">
        <ele>89.06</ele>
        <time>2016-09-17T12:34:35Z</time>
      </trkpt>
      <trkpt lat="48.39042" lon="2.75664">
        <ele>89.06</ele>
        <time>2016-09-17T12:34:37Z</time>
      </trkpt>
      <trkpt lat="48.39041" lon="2.75652">
        <ele>88.58</ele>
        <time>2016-09-17T12:34:43Z</time>
      </trkpt>
      <trkpt lat="48.3904" lon="2.7564">
        <ele>88.58</ele>
        <time>2016-09-17T12:34:50Z</time>
      </trkpt>
      <trkpt lat="48.3904" lon="2.75633">
        <ele>88.58</ele>
        <time>2016-09-17T12:34:55Z</time>
      </trkpt>
      <trkpt lat="48.3904" lon="2.75627">
        <ele>88.58</ele>
        <time>2016-09-17T12:35:00Z</time>
      </trkpt>
      <trkpt lat="48.39041" lon="2.75623">
        <ele>88.1</ele>
        <time>2016-09-17T12:35:02Z</time>
      </trkpt>
      <trkpt lat="48.39041" lon="2.75617">
        <ele>88.1</ele>
        <time>2016-09-17T12:35:07Z</time>
      </trkpt>
      <trkpt lat="48.39041" lon="2.75604">
        <ele>88.1</ele>
        <time>2016-09-17T12:35:14Z</time>
      </trkpt>
      <trkpt lat="48.3904" lon="2.75596">
        <ele>88.1</ele>
        <time>2016-09-17T12:35:20Z</time>
      </trkpt>
      <trkpt lat="48.39039" lon="2.75586">
        <ele>88.58</ele>
        <time>2016-09-17T12:35:26Z</time>
      </trkpt>
      <trkpt lat="48.3904" lon="2.75579">
        <ele>88.1</ele>
        <time>2016-09-17T12:35:29Z</time>
      </trkpt>
      <trkpt lat="48.39043" lon="2.75569">
        <ele>88.58</ele>
        <time>2016-09-17T12:35:35Z</time>
      </trkpt>
      <trkpt lat="48.39044" lon="2.75565">
        <ele>88.58</ele>
        <time>2016-09-17T12:35:37Z</time>
      </trkpt>
      <trkpt lat="48.39043" lon="2.75537">
        <ele>88.1</ele>
        <time>2016-09-17T12:35:45Z</time>
      </trkpt>
      <trkpt lat="48.3905" lon="2.75525">
        <ele>88.58</ele>
        <time>2016-09-17T12:35:51Z</time>
      </trkpt>
      <trkpt lat="48.39057" lon="2.75514">
        <ele>88.1</ele>
        <time>2016-09-17T12:35:58Z</time>
      </trkpt>
      <trkpt lat="48.39059" lon="2.75504">
        <ele>88.1</ele>
        <time>2016-09-17T12:36:04Z</time>
      </trkpt>
      <trkpt lat="48.39062" lon="2.75492">
        <ele>88.1</ele>
        <time>2016-09-17T12:36:11Z</time>
      </trkpt>
      <trkpt lat="48.39063" lon="2.7549">
        <ele>88.1</ele>
        <time>2016-09-17T12:36:13Z</time>
      </trkpt>
      <trkpt lat="48.39064" lon="2.75488">
        <ele>87.62</ele>
        <time>2016-09-17T12:36:15Z</time>
      </trkpt>
      <trkpt lat="48.39064" lon="2.75484">
        <ele>88.1</ele>
        <time>2016-09-17T12:36:17Z</time>
      </trkpt>
      <trkpt lat="48.39063" lon="2.75471">
        <ele>87.62</ele>
        <time>2016-09-17T12:36:24Z</time>
      </trkpt>
      <trkpt lat="48.39063" lon="2.75464">
        <ele>87.62</ele>
        <time>2016-09-17T12:36:28Z</time>
      </trkpt>
      <trkpt lat="48.39063" lon="2.75463">
        <ele>87.62</ele>
        <time>2016-09-17T12:36:29Z</time>
      </trkpt>
      <trkpt lat="48.3906" lon="2.75455">
        <ele>87.62</ele>
        <time>2016-09-17T12:36:33Z</time>
      </trkpt>
      <trkpt lat="48.39055" lon="2.75443">
        <ele>88.1</ele>
        <time>2016-09-17T12:36:40Z</time>
      </trkpt>
      <trkpt lat="48.39051" lon="2.75436">
        <ele>88.1</ele>
        <time>2016-09-17T12:36:44Z</time>
      </trkpt>
      <trkpt lat="48.39042" lon="2.75433">
        <ele>88.1</ele>
        <time>2016-09-17T12:36:52Z</time>
      </trkpt>
      <trkpt lat="48.39037" lon="2.7543">
        <ele>88.1</ele>
        <time>2016-09-17T12:36:57Z</time>
      </trkpt>
      <trkpt lat="48.3903" lon="2.75426">
        <ele>88.1</ele>
        <time>2016-09-17T12:37:03Z</time>
      </trkpt>
      <trkpt lat="48.39027" lon="2.7542">
        <ele>87.62</ele>
        <time>2016-09-17T12:37:08Z</time>
      </trkpt>
      <trkpt lat="48.39027" lon="2.75412">
        <ele>87.14</ele>
        <time>2016-09-17T12:37:16Z</time>
      </trkpt>
      <trkpt lat="48.39027" lon="2.75411">
        <ele>87.14</ele>
        <time>2016-09-17T12:37:20Z</time>
      </trkpt>
      <trkpt lat="48.39027" lon="2.75409">
        <ele>87.62</ele>
        <time>2016-09-17T12:37:28Z</time>
      </trkpt>
      <trkpt lat="48.39026" lon="2.75406">
        <ele>87.14</ele>
        <time>2016-09-17T12:37:35Z</time>
      </trkpt>
      <trkpt lat="48.39027" lon="2.754">
        <ele>87.14</ele>
        <time>2016-09-17T12:37:42Z</time>
      </trkpt>
      <trkpt lat="48.39026" lon="2.75393">
        <ele>87.14</ele>
        <time>2016-09-17T12:37:47Z</time>
      </trkpt>
      <trkpt lat="48.39026" lon="2.75383">
        <ele>87.14</ele>
        <time>2016-09-17T12:37:54Z</time>
      </trkpt>
      <trkpt lat="48.39026" lon="2.75375">
        <ele>87.14</ele>
        <time>2016-09-17T12:38:01Z</time>
      </trkpt>
      <trkpt lat="48.39027" lon="2.7537">
        <ele>86.66</ele>
        <time>2016-09-17T12:38:05Z</time>
      </trkpt>
      <trkpt lat="48.39026" lon="2.75358">
        <ele>86.66</ele>
        <time>2016-09-17T12:38:12Z</time>
      </trkpt>
      <trkpt lat="48.39027" lon="2.75347">
        <ele>86.18</ele>
        <time>2016-09-17T12:38:19Z</time>
      </trkpt>
      <trkpt lat="48.39025" lon="2.75334">
        <ele>86.18</ele>
        <time>2016-09-17T12:38:26Z</time>
      </trkpt>
      <trkpt lat="48.39024" lon="2.75328">
        <ele>86.18</ele>
        <time>2016-09-17T12:38:29Z</time>
      </trkpt>
      <trkpt lat="48.39023" lon="2.7532">
        <ele>85.69</ele>
        <time>2016-09-17T12:38:34Z</time>
      </trkpt>
      <trkpt lat="48.39022" lon="2.75309">
        <ele>85.69</ele>
        <time>2016-09-17T12:38:41Z</time>
      </trkpt>
      <trkpt lat="48.39021" lon="2.75301">
        <ele>85.69</ele>
        <time>2016-09-17T12:38:46Z</time>
      </trkpt>
      <trkpt lat="48.39019" lon="2.7529">
        <ele>85.69</ele>
        <time>2016-09-17T12:38:53Z</time>
      </trkpt>
      <trkpt lat="48.39019" lon="2.75287">
        <ele>85.69</ele>
        <time>2016-09-17T12:38:55Z</time>
      </trkpt>
      <trkpt lat="48.39019" lon="2.7528">
        <ele>85.69</ele>
        <time>2016-09-17T12:38:58Z</time>
      </trkpt>
      <trkpt lat="48.39017" lon="2.75268">
        <ele>85.69</ele>
        <time>2016-09-17T12:39:05Z</time>
      </trkpt>
      <trkpt lat="48.39017" lon="2.75267">
        <ele>85.69</ele>
        <time>2016-09-17T12:39:06Z</time>
      </trkpt>
      <trkpt lat="48.39015" lon="2.75249">
        <ele>85.69</ele>
        <time>2016-09-17T12:39:13Z</time>
      </trkpt>
      <trkpt lat="48.39013" lon="2.75235">
        <ele>85.69</ele>
        <time>2016-09-17T12:39:20Z</time>
      </trkpt>
      <trkpt lat="48.39012" lon="2.75228">
        <ele>85.69</ele>
        <time>2016-09-17T12:39:25Z</time>
      </trkpt>
      <trkpt lat="48.39012" lon="2.75224">
        <ele>85.21</ele>
        <time>2016-09-17T12:39:28Z</time>
      </trkpt>
      <trkpt lat="48.39012" lon="2.75212">
        <ele>85.69</ele>
        <time>2016-09-17T12:39:34Z</time>
      </trkpt>
      <trkpt lat="48.39013" lon="2.7521">
        <ele>85.69</ele>
        <time>2016-09-17T12:39:37Z</time>
      </trkpt>
      <trkpt lat="48.39013" lon="2.75205">
        <ele>85.69</ele>
        <time>2016-09-17T12:39:40Z</time>
      </trkpt>
      <trkpt lat="48.39013" lon="2.752">
        <ele>85.69</ele>
        <time>2016-09-17T12:39:42Z</time>
      </trkpt>
      <trkpt lat="48.39014" lon="2.75197">
        <ele>85.69</ele>
        <time>2016-09-17T12:39:44Z</time>
      </trkpt>
      <trkpt lat="48.39012" lon="2.75185">
        <ele>85.69</ele>
        <time>2016-09-17T12:39:51Z</time>
      </trkpt>
      <trkpt lat="48.39012" lon="2.75183">
        <ele>85.69</ele>
        <time>2016-09-17T12:39:52Z</time>
      </trkpt>
      <trkpt lat="48.39012" lon="2.75171">
        <ele>85.69</ele>
        <time>2016-09-17T12:39:58Z</time>
      </trkpt>
      <trkpt lat="48.39013" lon="2.7517">
        <ele>85.69</ele>
        <time>2016-09-17T12:39:59Z</time>
      </trkpt>
      <trkpt lat="48.39013" lon="2.75167">
        <ele>85.69</ele>
        <time>2016-09-17T12:40:01Z</time>
      </trkpt>
      <trkpt lat="48.39013" lon="2.75156">
        <ele>85.69</ele>
        <time>2016-09-17T12:40:07Z</time>
      </trkpt>
      <trkpt lat="48.39013" lon="2.75155">
        <ele>85.69</ele>
        <time>2016-09-17T12:40:08Z</time>
      </trkpt>
      <trkpt lat="48.39011" lon="2.7515">
        <ele>85.69</ele>
        <time>2016-09-17T12:40:11Z</time>
      </trkpt>
      <trkpt lat="48.3901" lon="2.75135">
        <ele>85.69</ele>
        <time>2016-09-17T12:40:18Z</time>
      </trkpt>
      <trkpt lat="48.39009" lon="2.75126">
        <ele>85.69</ele>
        <time>2016-09-17T12:40:23Z</time>
      </trkpt>
      <trkpt lat="48.39007" lon="2.75113">
        <ele>86.18</ele>
        <time>2016-09-17T12:40:30Z</time>
      </trkpt>
      <trkpt lat="48.39006" lon="2.75102">
        <ele>86.18</ele>
        <time>2016-09-17T12:40:35Z</time>
      </trkpt>
      <trkpt lat="48.39005" lon="2.75095">
        <ele>86.18</ele>
        <time>2016-09-17T12:40:38Z</time>
      </trkpt>
      <trkpt lat="48.39005" lon="2.75087">
        <ele>86.18</ele>
        <time>2016-09-17T12:40:41Z</time>
      </trkpt>
      <trkpt lat="48.39004" lon="2.75078">
        <ele>86.18</ele>
        <time>2016-09-17T12:40:45Z</time>
      </trkpt>
      <trkpt lat="48.39004" lon="2.75074">
        <ele>86.18</ele>
        <time>2016-09-17T12:40:47Z</time>
      </trkpt>
      <trkpt lat="48.39003" lon="2.75064">
        <ele>86.18</ele>
        <time>2016-09-17T12:40:52Z</time>
      </trkpt>
      <trkpt lat="48.39004" lon="2.75055">
        <ele>86.18</ele>
        <time>2016-09-17T12:40:57Z</time>
      </trkpt>
      <trkpt lat="48.39003" lon="2.75048">
        <ele>86.18</ele>
        <time>2016-09-17T12:41:00Z</time>
      </trkpt>
      <trkpt lat="48.39002" lon="2.75039">
        <ele>86.18</ele>
        <time>2016-09-17T12:41:05Z</time>
      </trkpt>
      <trkpt lat="48.39002" lon="2.75027">
        <ele>86.18</ele>
        <time>2016-09-17T12:41:10Z</time>
      </trkpt>
      <trkpt lat="48.39001" lon="2.75018">
        <ele>86.18</ele>
        <time>2016-09-17T12:41:15Z</time>
      </trkpt>
      <trkpt lat="48.39001" lon="2.75011">
        <ele>86.18</ele>
        <time>2016-09-17T12:41:20Z</time>
      </trkpt>
      <trkpt lat="48.39" lon="2.75006">
        <ele>86.66</ele>
        <time>2016-09-17T12:41:23Z</time>
      </trkpt>
      <trkpt lat="48.38999" lon="2.74993">
        <ele>86.66</ele>
        <time>2016-09-17T12:41:30Z</time>
      </trkpt>
      <trkpt lat="48.38999" lon="2.74985">
        <ele>86.66</ele>
        <time>2016-09-17T12:41:35Z</time>
      </trkpt>
      <trkpt lat="48.38998" lon="2.74975">
        <ele>86.66</ele>
        <time>2016-09-17T12:41:40Z</time>
      </trkpt>
      <trkpt lat="48.38997" lon="2.74968">
        <ele>86.66</ele>
        <time>2016-09-17T12:41:45Z</time>
      </trkpt>
      <trkpt lat="48.38998" lon="2.74953">
        <ele>87.14</ele>
        <time>2016-09-17T12:41:51Z</time>
      </trkpt>
      <trkpt lat="48.38995" lon="2.74942">
        <ele>87.14</ele>
        <time>2016-09-17T12:41:57Z</time>
      </trkpt>
      <trkpt lat="48.38995" lon="2.74939">
        <ele>87.14</ele>
        <time>2016-09-17T12:41:58Z</time>
      </trkpt>
      <trkpt lat="48.38995" lon="2.74932">
        <ele>87.62</ele>
        <time>2016-09-17T12:42:01Z</time>
      </trkpt>
      <trkpt lat="48.38994" lon="2.74921">
        <ele>87.62</ele>
        <time>2016-09-17T12:42:06Z</time>
      </trkpt>
      <trkpt lat="48.38994" lon="2.74905">
        <ele>87.62</ele>
        <time>2016-09-17T12:42:11Z</time>
      </trkpt>
      <trkpt lat="48.38993" lon="2.74896">
        <ele>87.62</ele>
        <time>2016-09-17T12:42:15Z</time>
      </trkpt>
      <trkpt lat="48.38992" lon="2.7488">
        <ele>87.62</ele>
        <time>2016-09-17T12:42:23Z</time>
      </trkpt>
      <trkpt lat="48.38992" lon="2.74876">
        <ele>87.62</ele>
        <time>2016-09-17T12:42:26Z</time>
      </trkpt>
      <trkpt lat="48.38992" lon="2.74864">
        <ele>87.62</ele>
        <time>2016-09-17T12:42:32Z</time>
      </trkpt>
      <trkpt lat="48.3899" lon="2.74853">
        <ele>88.1</ele>
        <time>2016-09-17T12:42:39Z</time>
      </trkpt>
      <trkpt lat="48.38991" lon="2.74838">
        <ele>88.1</ele>
        <time>2016-09-17T12:42:46Z</time>
      </trkpt>
      <trkpt lat="48.38989" lon="2.74828">
        <ele>88.1</ele>
        <time>2016-09-17T12:42:51Z</time>
      </trkpt>
      <trkpt lat="48.38989" lon="2.74819">
        <ele>88.1</ele>
        <time>2016-09-17T12:42:56Z</time>
      </trkpt>
      <trkpt lat="48.38989" lon="2.7481">
        <ele>88.1</ele>
        <time>2016-09-17T12:43:00Z</time>
      </trkpt>
      <trkpt lat="48.38985" lon="2.74797">
        <ele>88.1</ele>
        <time>2016-09-17T12:43:06Z</time>
      </trkpt>
      <trkpt lat="48.38985" lon="2.74786">
        <ele>88.1</ele>
        <time>2016-09-17T12:43:12Z</time>
      </trkpt>
      <trkpt lat="48.38984" lon="2.74785">
        <ele>88.1</ele>
        <time>2016-09-17T12:43:13Z</time>
      </trkpt>
      <trkpt lat="48.38985" lon="2.74778">
        <ele>88.1</ele>
        <time>2016-09-17T12:43:17Z</time>
      </trkpt>
      <trkpt lat="48.38984" lon="2.74764">
        <ele>88.58</ele>
        <time>2016-09-17T12:43:24Z</time>
      </trkpt>
      <trkpt lat="48.38983" lon="2.74759">
        <ele>88.58</ele>
        <time>2016-09-17T12:43:27Z</time>
      </trkpt>
      <trkpt lat="48.38983" lon="2.74754">
        <ele>88.58</ele>
        <time>2016-09-17T12:43:29Z</time>
      </trkpt>
      <trkpt lat="48.38983" lon="2.74742">
        <ele>88.58</ele>
        <time>2016-09-17T12:43:36Z</time>
      </trkpt>
      <trkpt lat="48.38983" lon="2.7474">
        <ele>88.58</ele>
        <time>2016-09-17T12:43:37Z</time>
      </trkpt>
      <trkpt lat="48.38982" lon="2.7473">
        <ele>88.58</ele>
        <time>2016-09-17T12:43:44Z</time>
      </trkpt>
      <trkpt lat="48.3898" lon="2.74726">
        <ele>88.58</ele>
        <time>2016-09-17T12:43:47Z</time>
      </trkpt>
      <trkpt lat="48.3898" lon="2.74716">
        <ele>88.58</ele>
        <time>2016-09-17T12:43:53Z</time>
      </trkpt>
      <trkpt lat="48.38979" lon="2.74706">
        <ele>88.58</ele>
        <time>2016-09-17T12:43:59Z</time>
      </trkpt>
      <trkpt lat="48.38979" lon="2.74704">
        <ele>89.06</ele>
        <time>2016-09-17T12:44:00Z</time>
      </trkpt>
      <trkpt lat="48.38981" lon="2.74688">
        <ele>88.58</ele>
        <time>2016-09-17T12:44:08Z</time>
      </trkpt>
      <trkpt lat="48.3898" lon="2.74676">
        <ele>89.06</ele>
        <time>2016-09-17T12:44:14Z</time>
      </trkpt>
      <trkpt lat="48.3898" lon="2.74674">
        <ele>89.06</ele>
        <time>2016-09-17T12:44:15Z</time>
      </trkpt>
      <trkpt lat="48.38979" lon="2.74659">
        <ele>89.06</ele>
        <time>2016-09-17T12:44:22Z</time>
      </trkpt>
      <trkpt lat="48.38979" lon="2.74657">
        <ele>89.06</ele>
        <time>2016-09-17T12:44:23Z</time>
      </trkpt>
      <trkpt lat="48.38977" lon="2.74643">
        <ele>89.54</ele>
        <time>2016-09-17T12:44:29Z</time>
      </trkpt>
      <trkpt lat="48.38977" lon="2.74633">
        <ele>89.06</ele>
        <time>2016-09-17T12:44:34Z</time>
      </trkpt>
      <trkpt lat="48.38974" lon="2.74617">
        <ele>89.06</ele>
        <time>2016-09-17T12:44:42Z</time>
      </trkpt>
      <trkpt lat="48.38974" lon="2.74613">
        <ele>89.06</ele>
        <time>2016-09-17T12:44:44Z</time>
      </trkpt>
      <trkpt lat="48.38974" lon="2.74605">
        <ele>89.54</ele>
        <time>2016-09-17T12:44:49Z</time>
      </trkpt>
      <trkpt lat="48.38974" lon="2.746">
        <ele>89.54</ele>
        <time>2016-09-17T12:44:51Z</time>
      </trkpt>
      <trkpt lat="48.38973" lon="2.74594">
        <ele>89.54</ele>
        <time>2016-09-17T12:44:54Z</time>
      </trkpt>
      <trkpt lat="48.38973" lon="2.7459">
        <ele>89.54</ele>
        <time>2016-09-17T12:44:57Z</time>
      </trkpt>
      <trkpt lat="48.38973" lon="2.74586">
        <ele>89.54</ele>
        <time>2016-09-17T12:44:59Z</time>
      </trkpt>
      <trkpt lat="48.38972" lon="2.74573">
        <ele>89.54</ele>
        <time>2016-09-17T12:45:05Z</time>
      </trkpt>
      <trkpt lat="48.3897" lon="2.74563">
        <ele>89.54</ele>
        <time>2016-09-17T12:45:11Z</time>
      </trkpt>
      <trkpt lat="48.3897" lon="2.74561">
        <ele>89.54</ele>
        <time>2016-09-17T12:45:12Z</time>
      </trkpt>
      <trkpt lat="48.3897" lon="2.74546">
        <ele>89.54</ele>
        <time>2016-09-17T12:45:19Z</time>
      </trkpt>
      <trkpt lat="48.38968" lon="2.74535">
        <ele>90.02</ele>
        <time>2016-09-17T12:45:25Z</time>
      </trkpt>
      <trkpt lat="48.38968" lon="2.74529">
        <ele>90.02</ele>
        <time>2016-09-17T12:45:28Z</time>
      </trkpt>
      <trkpt lat="48.38969" lon="2.74526">
        <ele>90.02</ele>
        <time>2016-09-17T12:45:30Z</time>
      </trkpt>
      <trkpt lat="48.38968" lon="2.74522">
        <ele>90.02</ele>
        <time>2016-09-17T12:45:33Z</time>
      </trkpt>
      <trkpt lat="48.38965" lon="2.74518">
        <ele>90.5</ele>
        <time>2016-09-17T12:45:38Z</time>
      </trkpt>
      <trkpt lat="48.38965" lon="2.74516">
        <ele>90.5</ele>
        <time>2016-09-17T12:45:39Z</time>
      </trkpt>
      <trkpt lat="48.38964" lon="2.74505">
        <ele>90.98</ele>
        <time>2016-09-17T12:45:46Z</time>
      </trkpt>
      <trkpt lat="48.38964" lon="2.74487">
        <ele>90.98</ele>
        <time>2016-09-17T12:45:52Z</time>
      </trkpt>
      <trkpt lat="48.38963" lon="2.74478">
        <ele>90.98</ele>
        <time>2016-09-17T12:45:56Z</time>
      </trkpt>
      <trkpt lat="48.38964" lon="2.74467">
        <ele>91.46</ele>
        <time>2016-09-17T12:46:01Z</time>
      </trkpt>
      <trkpt lat="48.38963" lon="2.74463">
        <ele>91.46</ele>
        <time>2016-09-17T12:46:03Z</time>
      </trkpt>
      <trkpt lat="48.38961" lon="2.74453">
        <ele>91.94</ele>
        <time>2016-09-17T12:46:08Z</time>
      </trkpt>
      <trkpt lat="48.3896" lon="2.74445">
        <ele>91.94</ele>
        <time>2016-09-17T12:46:12Z</time>
      </trkpt>
      <trkpt lat="48.38961" lon="2.74436">
        <ele>91.94</ele>
        <time>2016-09-17T12:46:17Z</time>
      </trkpt>
      <trkpt lat="48.3896" lon="2.74431">
        <ele>92.42</ele>
        <time>2016-09-17T12:46:20Z</time>
      </trkpt>
      <trkpt lat="48.3896" lon="2.74426">
        <ele>92.42</ele>
        <time>2016-09-17T12:46:22Z</time>
      </trkpt>
      <trkpt lat="48.38961" lon="2.74422">
        <ele>92.9</ele>
        <time>2016-09-17T12:46:24Z</time>
      </trkpt>
      <trkpt lat="48.3896" lon="2.74414">
        <ele>92.9</ele>
        <time>2016-09-17T12:46:29Z</time>
      </trkpt>
      <trkpt lat="48.3896" lon="2.74404">
        <ele>93.39</ele>
        <time>2016-09-17T12:46:36Z</time>
      </trkpt>
      <trkpt lat="48.38959" lon="2.74399">
        <ele>93.39</ele>
        <time>2016-09-17T12:46:38Z</time>
      </trkpt>
      <trkpt lat="48.38958" lon="2.74387">
        <ele>93.39</ele>
        <time>2016-09-17T12:46:43Z</time>
      </trkpt>
      <trkpt lat="48.38955" lon="2.7438">
        <ele>93.39</ele>
        <time>2016-09-17T12:46:48Z</time>
      </trkpt>
      <trkpt lat="48.38954" lon="2.74374">
        <ele>93.87</ele>
        <time>2016-09-17T12:46:53Z</time>
      </trkpt>
      <trkpt lat="48.38952" lon="2.74365">
        <ele>93.39</ele>
        <time>2016-09-17T12:46:59Z</time>
      </trkpt>
      <trkpt lat="48.3895" lon="2.74364">
        <ele>93.39</ele>
        <time>2016-09-17T12:47:05Z</time>
      </trkpt>
      <trkpt lat="48.38949" lon="2.74364">
        <ele>93.87</ele>
        <time>2016-09-17T12:47:14Z</time>
      </trkpt>
      <trkpt lat="48.38949" lon="2.74363">
        <ele>93.87</ele>
        <time>2016-09-17T12:47:26Z</time>
      </trkpt>
      <trkpt lat="48.38948" lon="2.74362">
        <ele>93.87</ele>
        <time>2016-09-17T12:47:36Z</time>
      </trkpt>
      <trkpt lat="48.38948" lon="2.74358">
        <ele>92.9</ele>
        <time>2016-09-17T12:47:45Z</time>
      </trkpt>
      <trkpt lat="48.38948" lon="2.74356">
        <ele>92.9</ele>
        <time>2016-09-17T12:47:56Z</time>
      </trkpt>
      <trkpt lat="48.38946" lon="2.74352">
        <ele>93.39</ele>
        <time>2016-09-17T12:48:11Z</time>
      </trkpt>
      <trkpt lat="48.38947" lon="2.74352">
        <ele>94.35</ele>
        <time>2016-09-17T12:48:24Z</time>
      </trkpt>
      <trkpt lat="48.38947" lon="2.74354">
        <ele>94.35</ele>
        <time>2016-09-17T12:48:37Z</time>
      </trkpt>
      <trkpt lat="48.38947" lon="2.74354">
        <ele>93.87</ele>
        <time>2016-09-17T12:48:45Z</time>
      </trkpt>
      <trkpt lat="48.38948" lon="2.74353">
        <ele>94.35</ele>
        <time>2016-09-17T12:49:01Z</time>
      </trkpt>
      <trkpt lat="48.38948" lon="2.74353">
        <ele>94.35</ele>
        <time>2016-09-17T12:49:16Z</time>
      </trkpt>
      <trkpt lat="48.38948" lon="2.74354">
        <ele>94.35</ele>
        <time>2016-09-17T12:49:32Z</time>
      </trkpt>
      <trkpt lat="48.38948" lon="2.74354">
        <ele>93.87</ele>
        <time>2016-09-17T12:49:47Z</time>
      </trkpt>
      <trkpt lat="48.38948" lon="2.74354">
        <ele>93.87</ele>
        <time>2016-09-17T12:49:57Z</time>
      </trkpt>
      <trkpt lat="48.38948" lon="2.74355">
        <ele>94.35</ele>
        <time>2016-09-17T12:50:14Z</time>
      </trkpt>
      <trkpt lat="48.38948" lon="2.74356">
        <ele>94.35</ele>
        <time>2016-09-17T12:50:28Z</time>
      </trkpt>
      <trkpt lat="48.38947" lon="2.74356">
        <ele>94.35</ele>
        <time>2016-09-17T12:50:45Z</time>
      </trkpt>
      <trkpt lat="48.38947" lon="2.74356">
        <ele>94.35</ele>
        <time>2016-09-17T12:51:00Z</time>
      </trkpt>
      <trkpt lat="48.38948" lon="2.74357">
        <ele>94.35</ele>
        <time>2016-09-17T12:51:11Z</time>
      </trkpt>
      <trkpt lat="48.38948" lon="2.74356">
        <ele>94.35</ele>
        <time>2016-09-17T12:51:25Z</time>
      </trkpt>
      <trkpt lat="48.38947" lon="2.74356">
        <ele>94.35</ele>
        <time>2016-09-17T12:51:42Z</time>
      </trkpt>
      <trkpt lat="48.38947" lon="2.74356">
        <ele>94.35</ele>
        <time>2016-09-17T12:52:01Z</time>
      </trkpt>
      <trkpt lat="48.38948" lon="2.74355">
        <ele>94.35</ele>
        <time>2016-09-17T12:52:15Z</time>
      </trkpt>
      <trkpt lat="48.38948" lon="2.74354">
        <ele>94.35</ele>
        <time>2016-09-17T12:52:26Z</time>
      </trkpt>
      <trkpt lat="48.38948" lon="2.74354">
        <ele>94.35</ele>
        <time>2016-09-17T12:52:43Z</time>
      </trkpt>
      <trkpt lat="48.38947" lon="2.74354">
        <ele>94.83</ele>
        <time>2016-09-17T12:52:59Z</time>
      </trkpt>
      <trkpt lat="48.38948" lon="2.74354">
        <ele>94.83</ele>
        <time>2016-09-17T12:53:16Z</time>
      </trkpt>
      <trkpt lat="48.38948" lon="2.74354">
        <ele>94.35</ele>
        <time>2016-09-17T12:53:22Z</time>
      </trkpt>
      <trkpt lat="48.38948" lon="2.74355">
        <ele>94.83</ele>
        <time>2016-09-17T12:53:42Z</time>
      </trkpt>
      <trkpt lat="48.38948" lon="2.74357">
        <ele>94.83</ele>
        <time>2016-09-17T12:54:00Z</time>
      </trkpt>
      <trkpt lat="48.38948" lon="2.74356">
        <ele>94.83</ele>
        <time>2016-09-17T12:54:15Z</time>
      </trkpt>
      <trkpt lat="48.38948" lon="2.74356">
        <ele>94.83</ele>
        <time>2016-09-17T12:54:32Z</time>
      </trkpt>
      <trkpt lat="48.38948" lon="2.74356">
        <ele>94.35</ele>
        <time>2016-09-17T12:54:48Z</time>
      </trkpt>
      <trkpt lat="48.38948" lon="2.74356">
        <ele>94.83</ele>
        <time>2016-09-17T12:55:01Z</time>
      </trkpt>
      <trkpt lat="48.38948" lon="2.74356">
        <ele>94.83</ele>
        <time>2016-09-17T12:55:17Z</time>
      </trkpt>
      <trkpt lat="48.38948" lon="2.74356">
        <ele>94.83</ele>
        <time>2016-09-17T12:55:34Z</time>
      </trkpt>
      <trkpt lat="48.38948" lon="2.74357">
        <ele>94.83</ele>
        <time>2016-09-17T12:55:50Z</time>
      </trkpt>
      <trkpt lat="48.38948" lon="2.74357">
        <ele>94.83</ele>
        <time>2016-09-17T12:56:05Z</time>
      </trkpt>
      <trkpt lat="48.38947" lon="2.74357">
        <ele>94.83</ele>
        <time>2016-09-17T12:56:17Z</time>
      </trkpt>
      <trkpt lat="48.38948" lon="2.74357">
        <ele>94.35</ele>
        <time>2016-09-17T12:56:30Z</time>
      </trkpt>
      <trkpt lat="48.38948" lon="2.74357">
        <ele>94.35</ele>
        <time>2016-09-17T12:56:41Z</time>
      </trkpt>
      <trkpt lat="48.38948" lon="2.74359">
        <ele>94.83</ele>
        <time>2016-09-17T12:56:59Z</time>
      </trkpt>
      <trkpt lat="48.38948" lon="2.74359">
        <ele>94.35</ele>
        <time>2016-09-17T12:57:13Z</time>
      </trkpt>
      <trkpt lat="48.38948" lon="2.74359">
        <ele>94.35</ele>
        <time>2016-09-17T12:57:24Z</time>
      </trkpt>
      <trkpt lat="48.38948" lon="2.74359">
        <ele>94.35</ele>
        <time>2016-09-17T12:57:40Z</time>
      </trkpt>
      <trkpt lat="48.38948" lon="2.74359">
        <ele>94.35</ele>
        <time>2016-09-17T12:57:49Z</time>
      </trkpt>
      <trkpt lat="48.38948" lon="2.74359">
        <ele>94.35</ele>
        <time>2016-09-17T12:58:04Z</time>
      </trkpt>
      <trkpt lat="48.38948" lon="2.74358">
        <ele>94.35</ele>
        <time>2016-09-17T12:58:15Z</time>
      </trkpt>
      <trkpt lat="48.38948" lon="2.74357">
        <ele>94.35</ele>
        <time>2016-09-17T12:58:24Z</time>
      </trkpt>
      <trkpt lat="48.38948" lon="2.74356">
        <ele>93.87</ele>
        <time>2016-09-17T12:58:31Z</time>
      </trkpt>
      <trkpt lat="48.38948" lon="2.74354">
        <ele>93.87</ele>
        <time>2016-09-17T12:58:43Z</time>
      </trkpt>
      <trkpt lat="48.38948" lon="2.74354">
        <ele>93.87</ele>
        <time>2016-09-17T12:58:51Z</time>
      </trkpt>
      <trkpt lat="48.38948" lon="2.74355">
        <ele>93.87</ele>
        <time>2016-09-17T12:59:03Z</time>
      </trkpt>
      <trkpt lat="48.38948" lon="2.74355">
        <ele>93.87</ele>
        <time>2016-09-17T12:59:14Z</time>
      </trkpt>
      <trkpt lat="48.38948" lon="2.74355">
        <ele>93.87</ele>
        <time>2016-09-17T12:59:20Z</time>
      </trkpt>
      <trkpt lat="48.38944" lon="2.74352">
        <ele>93.87</ele>
        <time>2016-09-17T12:59:26Z</time>
      </trkpt>
      <trkpt lat="48.3894" lon="2.74349">
        <ele>93.39</ele>
        <time>2016-09-17T12:59:33Z</time>
      </trkpt>
      <trkpt lat="48.38935" lon="2.74348">
        <ele>93.39</ele>
        <time>2016-09-17T12:59:41Z</time>
      </trkpt>
      <trkpt lat="48.38931" lon="2.74346">
        <ele>92.9</ele>
        <time>2016-09-17T12:59:47Z</time>
      </trkpt>
      <trkpt lat="48.38927" lon="2.74345">
        <ele>92.9</ele>
        <time>2016-09-17T12:59:53Z</time>
      </trkpt>
      <trkpt lat="48.38922" lon="2.74344">
        <ele>92.9</ele>
        <time>2016-09-17T12:59:59Z</time>
      </trkpt>
      <trkpt lat="48.38914" lon="2.74344">
        <ele>92.42</ele>
        <time>2016-09-17T13:00:07Z</time>
      </trkpt>
      <trkpt lat="48.38906" lon="2.74344">
        <ele>92.42</ele>
        <time>2016-09-17T13:00:14Z</time>
      </trkpt>
      <trkpt lat="48.389" lon="2.74346">
        <ele>92.42</ele>
        <time>2016-09-17T13:00:22Z</time>
      </trkpt>
      <trkpt lat="48.38892" lon="2.74345">
        <ele>93.39</ele>
        <time>2016-09-17T13:00:30Z</time>
      </trkpt>
      <trkpt lat="48.38885" lon="2.74344">
        <ele>92.42</ele>
        <time>2016-09-17T13:00:37Z</time>
      </trkpt>
      <trkpt lat="48.3888" lon="2.74344">
        <ele>92.9</ele>
        <time>2016-09-17T13:00:44Z</time>
      </trkpt>
      <trkpt lat="48.38875" lon="2.74343">
        <ele>92.9</ele>
        <time>2016-09-17T13:00:51Z</time>
      </trkpt>
      <trkpt lat="48.38871" lon="2.74343">
        <ele>92.9</ele>
        <time>2016-09-17T13:00:55Z</time>
      </trkpt>
      <trkpt lat="48.38863" lon="2.74342">
        <ele>93.39</ele>
        <time>2016-09-17T13:01:01Z</time>
      </trkpt>
      <trkpt lat="48.38855" lon="2.74342">
        <ele>93.39</ele>
        <time>2016-09-17T13:01:07Z</time>
      </trkpt>
      <trkpt lat="48.38844" lon="2.74343">
        <ele>93.87</ele>
        <time>2016-09-17T13:01:15Z</time>
      </trkpt>
      <trkpt lat="48.38838" lon="2.74343">
        <ele>93.87</ele>
        <time>2016-09-17T13:01:21Z</time>
      </trkpt>
      <trkpt lat="48.38832" lon="2.74343">
        <ele>93.87</ele>
        <time>2016-09-17T13:01:26Z</time>
      </trkpt>
      <trkpt lat="48.38826" lon="2.74342">
        <ele>93.87</ele>
        <time>2016-09-17T13:01:32Z</time>
      </trkpt>
      <trkpt lat="48.38823" lon="2.74342">
        <ele>93.87</ele>
        <time>2016-09-17T13:01:37Z</time>
      </trkpt>
      <trkpt lat="48.38817" lon="2.74342">
        <ele>93.87</ele>
        <time>2016-09-17T13:01:43Z</time>
      </trkpt>
      <trkpt lat="48.38809" lon="2.74341">
        <ele>93.87</ele>
        <time>2016-09-17T13:01:50Z</time>
      </trkpt>
      <trkpt lat="48.38796" lon="2.74341">
        <ele>93.87</ele>
        <time>2016-09-17T13:01:57Z</time>
      </trkpt>
      <trkpt lat="48.38789" lon="2.74343">
        <ele>93.87</ele>
        <time>2016-09-17T13:02:03Z</time>
      </trkpt>
      <trkpt lat="48.3878" lon="2.74343">
        <ele>93.87</ele>
        <time>2016-09-17T13:02:09Z</time>
      </trkpt>
      <trkpt lat="48.38778" lon="2.74342">
        <ele>93.87</ele>
        <time>2016-09-17T13:02:10Z</time>
      </trkpt>
      <trkpt lat="48.3877" lon="2.7434">
        <ele>93.87</ele>
        <time>2016-09-17T13:02:16Z</time>
      </trkpt>
      <trkpt lat="48.38762" lon="2.74339">
        <ele>93.87</ele>
        <time>2016-09-17T13:02:23Z</time>
      </trkpt>
      <trkpt lat="48.38751" lon="2.74339">
        <ele>94.83</ele>
        <time>2016-09-17T13:02:30Z</time>
      </trkpt>
      <trkpt lat="48.38744" lon="2.74341">
        <ele>93.87</ele>
        <time>2016-09-17T13:02:35Z</time>
      </trkpt>
      <trkpt lat="48.38735" lon="2.74339">
        <ele>93.87</ele>
        <time>2016-09-17T13:02:42Z</time>
      </trkpt>
      <trkpt lat="48.38727" lon="2.74341">
        <ele>93.39</ele>
        <time>2016-09-17T13:02:50Z</time>
      </trkpt>
      <trkpt lat="48.38719" lon="2.74341">
        <ele>93.39</ele>
        <time>2016-09-17T13:02:57Z</time>
      </trkpt>
      <trkpt lat="48.38708" lon="2.74341">
        <ele>93.39</ele>
        <time>2016-09-17T13:03:05Z</time>
      </trkpt>
      <trkpt lat="48.38701" lon="2.7434">
        <ele>93.39</ele>
        <time>2016-09-17T13:03:11Z</time>
      </trkpt>
      <trkpt lat="48.38693" lon="2.7434">
        <ele>93.39</ele>
        <time>2016-09-17T13:03:18Z</time>
      </trkpt>
      <trkpt lat="48.38685" lon="2.7434">
        <ele>93.39</ele>
        <time>2016-09-17T13:03:25Z</time>
      </trkpt>
      <trkpt lat="48.38678" lon="2.74342">
        <ele>93.39</ele>
        <time>2016-09-17T13:03:31Z</time>
      </trkpt>
      <trkpt lat="48.38671" lon="2.7434">
        <ele>92.9</ele>
        <time>2016-09-17T13:03:38Z</time>
      </trkpt>
      <trkpt lat="48.3867" lon="2.74341">
        <ele>92.9</ele>
        <time>2016-09-17T13:03:39Z</time>
      </trkpt>
      <trkpt lat="48.38663" lon="2.7434">
        <ele>93.39</ele>
        <time>2016-09-17T13:03:46Z</time>
      </trkpt>
      <trkpt lat="48.38654" lon="2.74339">
        <ele>93.39</ele>
        <time>2016-09-17T13:03:54Z</time>
      </trkpt>
      <trkpt lat="48.38646" lon="2.74338">
        <ele>93.87</ele>
        <time>2016-09-17T13:04:01Z</time>
      </trkpt>
      <trkpt lat="48.38639" lon="2.7434">
        <ele>94.35</ele>
        <time>2016-09-17T13:04:07Z</time>
      </trkpt>
      <trkpt lat="48.38634" lon="2.7434">
        <ele>94.35</ele>
        <time>2016-09-17T13:04:12Z</time>
      </trkpt>
      <trkpt lat="48.3863" lon="2.74339">
        <ele>94.35</ele>
        <time>2016-09-17T13:04:17Z</time>
      </trkpt>
      <trkpt lat="48.38624" lon="2.74338">
        <ele>95.31</ele>
        <time>2016-09-17T13:04:24Z</time>
      </trkpt>
      <trkpt lat="48.38616" lon="2.74338">
        <ele>95.79</ele>
        <time>2016-09-17T13:04:30Z</time>
      </trkpt>
      <trkpt lat="48.38603" lon="2.7434">
        <ele>94.83</ele>
        <time>2016-09-17T13:04:37Z</time>
      </trkpt>
      <trkpt lat="48.38595" lon="2.74341">
        <ele>94.83</ele>
        <time>2016-09-17T13:04:45Z</time>
      </trkpt>
      <trkpt lat="48.38586" lon="2.74341">
        <ele>94.35</ele>
        <time>2016-09-17T13:04:51Z</time>
      </trkpt>
      <trkpt lat="48.38583" lon="2.74341">
        <ele>94.35</ele>
        <time>2016-09-17T13:04:53Z</time>
      </trkpt>
      <trkpt lat="48.38576" lon="2.74341">
        <ele>94.35</ele>
        <time>2016-09-17T13:05:01Z</time>
      </trkpt>
      <trkpt lat="48.38567" lon="2.7434">
        <ele>94.35</ele>
        <time>2016-09-17T13:05:08Z</time>
      </trkpt>
      <trkpt lat="48.38559" lon="2.7434">
        <ele>94.35</ele>
        <time>2016-09-17T13:05:15Z</time>
      </trkpt>
      <trkpt lat="48.38555" lon="2.74339">
        <ele>94.35</ele>
        <time>2016-09-17T13:05:19Z</time>
      </trkpt>
      <trkpt lat="48.38544" lon="2.74339">
        <ele>94.35</ele>
        <time>2016-09-17T13:05:27Z</time>
      </trkpt>
      <trkpt lat="48.38536" lon="2.7434">
        <ele>94.35</ele>
        <time>2016-09-17T13:05:32Z</time>
      </trkpt>
      <trkpt lat="48.38526" lon="2.7434">
        <ele>94.35</ele>
        <time>2016-09-17T13:05:39Z</time>
      </trkpt>
      <trkpt lat="48.38524" lon="2.74341">
        <ele>94.35</ele>
        <time>2016-09-17T13:05:55Z</time>
      </trkpt>
      <trkpt lat="48.38523" lon="2.74341">
        <ele>94.35</ele>
        <time>2016-09-17T13:06:05Z</time>
      </trkpt>
      <trkpt lat="48.38522" lon="2.7434">
        <ele>94.35</ele>
        <time>2016-09-17T13:06:11Z</time>
      </trkpt>
      <trkpt lat="48.38517" lon="2.74339">
        <ele>94.35</ele>
        <time>2016-09-17T13:06:19Z</time>
      </trkpt>
      <trkpt lat="48.38511" lon="2.74339">
        <ele>94.35</ele>
        <time>2016-09-17T13:06:25Z</time>
      </trkpt>
      <trkpt lat="48.38502" lon="2.74339">
        <ele>94.83</ele>
        <time>2016-09-17T13:06:34Z</time>
      </trkpt>
      <trkpt lat="48.385" lon="2.74339">
        <ele>94.35</ele>
        <time>2016-09-17T13:06:37Z</time>
      </trkpt>
      <trkpt lat="48.3849" lon="2.7434">
        <ele>94.83</ele>
        <time>2016-09-17T13:06:45Z</time>
      </trkpt>
      <trkpt lat="48.38482" lon="2.7434">
        <ele>94.35</ele>
        <time>2016-09-17T13:06:52Z</time>
      </trkpt>
      <trkpt lat="48.38475" lon="2.74339">
        <ele>94.35</ele>
        <time>2016-09-17T13:06:58Z</time>
      </trkpt>
      <trkpt lat="48.38468" lon="2.74341">
        <ele>94.35</ele>
        <time>2016-09-17T13:07:05Z</time>
      </trkpt>
      <trkpt lat="48.38462" lon="2.74341">
        <ele>94.35</ele>
        <time>2016-09-17T13:07:10Z</time>
      </trkpt>
      <trkpt lat="48.38452" lon="2.7434">
        <ele>94.83</ele>
        <time>2016-09-17T13:07:18Z</time>
      </trkpt>
      <trkpt lat="48.38448" lon="2.74341">
        <ele>94.83</ele>
        <time>2016-09-17T13:07:25Z</time>
      </trkpt>
      <trkpt lat="48.38441" lon="2.74339">
        <ele>94.83</ele>
        <time>2016-09-17T13:07:31Z</time>
      </trkpt>
      <trkpt lat="48.3843" lon="2.74338">
        <ele>94.83</ele>
        <time>2016-09-17T13:07:38Z</time>
      </trkpt>
      <trkpt lat="48.38419" lon="2.74339">
        <ele>94.83</ele>
        <time>2016-09-17T13:07:46Z</time>
      </trkpt>
      <trkpt lat="48.38414" lon="2.7434">
        <ele>95.31</ele>
        <time>2016-09-17T13:07:53Z</time>
      </trkpt>
      <trkpt lat="48.38408" lon="2.7434">
        <ele>95.31</ele>
        <time>2016-09-17T13:08:00Z</time>
      </trkpt>
      <trkpt lat="48.384" lon="2.7434">
        <ele>95.31</ele>
        <time>2016-09-17T13:08:06Z</time>
      </trkpt>
      <trkpt lat="48.38393" lon="2.7434">
        <ele>95.79</ele>
        <time>2016-09-17T13:08:12Z</time>
      </trkpt>
      <trkpt lat="48.38389" lon="2.74338">
        <ele>95.79</ele>
        <time>2016-09-17T13:08:16Z</time>
      </trkpt>
      <trkpt lat="48.38385" lon="2.74338">
        <ele>95.79</ele>
        <time>2016-09-17T13:08:23Z</time>
      </trkpt>
      <trkpt lat="48.3838" lon="2.74337">
        <ele>96.27</ele>
        <time>2016-09-17T13:08:29Z</time>
      </trkpt>
      <trkpt lat="48.3837" lon="2.74339">
        <ele>96.27</ele>
        <time>2016-09-17T13:08:37Z</time>
      </trkpt>
      <trkpt lat="48.3836" lon="2.74338">
        <ele>96.27</ele>
        <time>2016-09-17T13:08:43Z</time>
      </trkpt>
      <trkpt lat="48.38353" lon="2.74339">
        <ele>96.75</ele>
        <time>2016-09-17T13:08:50Z</time>
      </trkpt>
      <trkpt lat="48.38344" lon="2.74337">
        <ele>97.23</ele>
        <time>2016-09-17T13:08:56Z</time>
      </trkpt>
      <trkpt lat="48.38337" lon="2.7434">
        <ele>97.23</ele>
        <time>2016-09-17T13:09:01Z</time>
      </trkpt>
      <trkpt lat="48.38333" lon="2.74339">
        <ele>97.71</ele>
        <time>2016-09-17T13:09:06Z</time>
      </trkpt>
      <trkpt lat="48.38328" lon="2.74338">
        <ele>97.71</ele>
        <time>2016-09-17T13:09:10Z</time>
      </trkpt>
      <trkpt lat="48.38316" lon="2.74339">
        <ele>97.71</ele>
        <time>2016-09-17T13:09:17Z</time>
      </trkpt>
      <trkpt lat="48.38305" lon="2.74341">
        <ele>98.19</ele>
        <time>2016-09-17T13:09:25Z</time>
      </trkpt>
      <trkpt lat="48.38296" lon="2.74341">
        <ele>98.19</ele>
        <time>2016-09-17T13:09:32Z</time>
      </trkpt>
      <trkpt lat="48.38294" lon="2.74341">
        <ele>98.67</ele>
        <time>2016-09-17T13:09:33Z</time>
      </trkpt>
      <trkpt lat="48.38287" lon="2.74339">
        <ele>98.67</ele>
        <time>2016-09-17T13:09:39Z</time>
      </trkpt>
      <trkpt lat="48.38282" lon="2.74337">
        <ele>98.67</ele>
        <time>2016-09-17T13:09:44Z</time>
      </trkpt>
      <trkpt lat="48.38277" lon="2.74338">
        <ele>98.67</ele>
        <time>2016-09-17T13:09:49Z</time>
      </trkpt>
      <trkpt lat="48.38266" lon="2.74339">
        <ele>99.15</ele>
        <time>2016-09-17T13:09:56Z</time>
      </trkpt>
      <trkpt lat="48.3826" lon="2.74339">
        <ele>99.63</ele>
        <time>2016-09-17T13:10:03Z</time>
      </trkpt>
      <trkpt lat="48.38256" lon="2.74338">
        <ele>99.63</ele>
        <time>2016-09-17T13:10:08Z</time>
      </trkpt>
      <trkpt lat="48.38251" lon="2.74339">
        <ele>99.63</ele>
        <time>2016-09-17T13:10:12Z</time>
      </trkpt>
      <trkpt lat="48.3824" lon="2.74339">
        <ele>99.63</ele>
        <time>2016-09-17T13:10:19Z</time>
      </trkpt>
      <trkpt lat="48.38229" lon="2.74339">
        <ele>99.63</ele>
        <time>2016-09-17T13:10:27Z</time>
      </trkpt>
      <trkpt lat="48.38214" lon="2.7434">
        <ele>99.15</ele>
        <time>2016-09-17T13:10:34Z</time>
      </trkpt>
      <trkpt lat="48.38213" lon="2.7434">
        <ele>99.15</ele>
        <time>2016-09-17T13:10:42Z</time>
      </trkpt>
      <trkpt lat="48.38212" lon="2.74342">
        <ele>99.63</ele>
        <time>2016-09-17T13:10:58Z</time>
      </trkpt>
      <trkpt lat="48.38209" lon="2.74343">
        <ele>99.63</ele>
        <time>2016-09-17T13:11:15Z</time>
      </trkpt>
      <trkpt lat="48.38208" lon="2.74343">
        <ele>99.63</ele>
        <time>2016-09-17T13:11:30Z</time>
      </trkpt>
      <trkpt lat="48.38208" lon="2.74344">
        <ele>99.63</ele>
        <time>2016-09-17T13:11:41Z</time>
      </trkpt>
      <trkpt lat="48.38207" lon="2.74345">
        <ele>100.11</ele>
        <time>2016-09-17T13:11:57Z</time>
      </trkpt>
      <trkpt lat="48.38207" lon="2.74346">
        <ele>100.11</ele>
        <time>2016-09-17T13:12:09Z</time>
      </trkpt>
      <trkpt lat="48.38207" lon="2.74345">
        <ele>100.11</ele>
        <time>2016-09-17T13:12:21Z</time>
      </trkpt>
      <trkpt lat="48.38205" lon="2.74344">
        <ele>99.63</ele>
        <time>2016-09-17T13:12:30Z</time>
      </trkpt>
      <trkpt lat="48.38202" lon="2.74339">
        <ele>100.11</ele>
        <time>2016-09-17T13:12:37Z</time>
      </trkpt>
      <trkpt lat="48.38201" lon="2.74336">
        <ele>99.63</ele>
        <time>2016-09-17T13:12:41Z</time>
      </trkpt>
      <trkpt lat="48.38198" lon="2.74326">
        <ele>100.11</ele>
        <time>2016-09-17T13:12:48Z</time>
      </trkpt>
      <trkpt lat="48.38197" lon="2.74322">
        <ele>100.11</ele>
        <time>2016-09-17T13:12:55Z</time>
      </trkpt>
      <trkpt lat="48.38198" lon="2.74315">
        <ele>100.11</ele>
        <time>2016-09-17T13:13:02Z</time>
      </trkpt>
      <trkpt lat="48.38195" lon="2.74308">
        <ele>100.6</ele>
        <time>2016-09-17T13:13:08Z</time>
      </trkpt>
      <trkpt lat="48.38196" lon="2.74301">
        <ele>101.08</ele>
        <time>2016-09-17T13:13:14Z</time>
      </trkpt>
      <trkpt lat="48.38196" lon="2.74292">
        <ele>101.56</ele>
        <time>2016-09-17T13:13:22Z</time>
      </trkpt>
      <trkpt lat="48.38195" lon="2.74281">
        <ele>101.56</ele>
        <time>2016-09-17T13:13:28Z</time>
      </trkpt>
      <trkpt lat="48.38194" lon="2.74274">
        <ele>101.56</ele>
        <time>2016-09-17T13:13:35Z</time>
      </trkpt>
      <trkpt lat="48.38193" lon="2.74263">
        <ele>101.56</ele>
        <time>2016-09-17T13:13:41Z</time>
      </trkpt>
      <trkpt lat="48.38192" lon="2.74256">
        <ele>102.04</ele>
        <time>2016-09-17T13:13:45Z</time>
      </trkpt>
      <trkpt lat="48.38193" lon="2.74244">
        <ele>102.04</ele>
        <time>2016-09-17T13:13:52Z</time>
      </trkpt>
      <trkpt lat="48.38194" lon="2.74228">
        <ele>102.04</ele>
        <time>2016-09-17T13:13:59Z</time>
      </trkpt>
      <trkpt lat="48.38193" lon="2.74216">
        <ele>102.52</ele>
        <time>2016-09-17T13:14:04Z</time>
      </trkpt>
      <trkpt lat="48.38192" lon="2.74202">
        <ele>102.04</ele>
        <time>2016-09-17T13:14:12Z</time>
      </trkpt>
      <trkpt lat="48.38191" lon="2.74187">
        <ele>101.56</ele>
        <time>2016-09-17T13:14:19Z</time>
      </trkpt>
      <trkpt lat="48.3819" lon="2.7417">
        <ele>101.08</ele>
        <time>2016-09-17T13:14:26Z</time>
      </trkpt>
      <trkpt lat="48.38188" lon="2.74158">
        <ele>101.08</ele>
        <time>2016-09-17T13:14:32Z</time>
      </trkpt>
      <trkpt lat="48.38186" lon="2.7414">
        <ele>101.08</ele>
        <time>2016-09-17T13:14:41Z</time>
      </trkpt>
      <trkpt lat="48.38184" lon="2.7413">
        <ele>101.08</ele>
        <time>2016-09-17T13:14:47Z</time>
      </trkpt>
      <trkpt lat="48.38183" lon="2.74118">
        <ele>101.56</ele>
        <time>2016-09-17T13:14:54Z</time>
      </trkpt>
      <trkpt lat="48.38182" lon="2.74106">
        <ele>101.56</ele>
        <time>2016-09-17T13:15:01Z</time>
      </trkpt>
      <trkpt lat="48.38181" lon="2.74095">
        <ele>102.04</ele>
        <time>2016-09-17T13:15:08Z</time>
      </trkpt>
      <trkpt lat="48.3818" lon="2.7409">
        <ele>102.04</ele>
        <time>2016-09-17T13:15:14Z</time>
      </trkpt>
      <trkpt lat="48.38181" lon="2.74078">
        <ele>102.52</ele>
        <time>2016-09-17T13:15:20Z</time>
      </trkpt>
      <trkpt lat="48.3818" lon="2.74073">
        <ele>102.52</ele>
        <time>2016-09-17T13:15:26Z</time>
      </trkpt>
      <trkpt lat="48.38182" lon="2.74063">
        <ele>102.04</ele>
        <time>2016-09-17T13:15:31Z</time>
      </trkpt>
      <trkpt lat="48.38181" lon="2.74055">
        <ele>102.04</ele>
        <time>2016-09-17T13:15:36Z</time>
      </trkpt>
      <trkpt lat="48.38182" lon="2.74047">
        <ele>101.56</ele>
        <time>2016-09-17T13:15:42Z</time>
      </trkpt>
      <trkpt lat="48.3818" lon="2.74034">
        <ele>101.56</ele>
        <time>2016-09-17T13:15:48Z</time>
      </trkpt>
      <trkpt lat="48.38179" lon="2.74024">
        <ele>101.08</ele>
        <time>2016-09-17T13:15:54Z</time>
      </trkpt>
      <trkpt lat="48.38178" lon="2.74013">
        <ele>101.08</ele>
        <time>2016-09-17T13:16:02Z</time>
      </trkpt>
      <trkpt lat="48.38178" lon="2.74003">
        <ele>100.6</ele>
        <time>2016-09-17T13:16:09Z</time>
      </trkpt>
      <trkpt lat="48.38176" lon="2.7399">
        <ele>101.08</ele>
        <time>2016-09-17T13:16:15Z</time>
      </trkpt>
      <trkpt lat="48.38176" lon="2.7398">
        <ele>101.08</ele>
        <time>2016-09-17T13:16:19Z</time>
      </trkpt>
      <trkpt lat="48.38176" lon="2.73971">
        <ele>101.08</ele>
        <time>2016-09-17T13:16:23Z</time>
      </trkpt>
      <trkpt lat="48.38175" lon="2.73955">
        <ele>101.56</ele>
        <time>2016-09-17T13:16:30Z</time>
      </trkpt>
      <trkpt lat="48.38175" lon="2.7394">
        <ele>101.56</ele>
        <time>2016-09-17T13:16:36Z</time>
      </trkpt>
      <trkpt lat="48.38177" lon="2.73925">
        <ele>101.08</ele>
        <time>2016-09-17T13:16:43Z</time>
      </trkpt>
      <trkpt lat="48.38179" lon="2.73913">
        <ele>101.08</ele>
        <time>2016-09-17T13:16:50Z</time>
      </trkpt>
      <trkpt lat="48.38175" lon="2.73892">
        <ele>101.08</ele>
        <time>2016-09-17T13:16:58Z</time>
      </trkpt>
      <trkpt lat="48.38175" lon="2.7389">
        <ele>100.6</ele>
        <time>2016-09-17T13:16:59Z</time>
      </trkpt>
      <trkpt lat="48.38172" lon="2.73876">
        <ele>100.6</ele>
        <time>2016-09-17T13:17:06Z</time>
      </trkpt>
      <trkpt lat="48.38172" lon="2.73863">
        <ele>100.6</ele>
        <time>2016-09-17T13:17:14Z</time>
      </trkpt>
      <trkpt lat="48.38171" lon="2.7386">
        <ele>100.6</ele>
        <time>2016-09-17T13:17:16Z</time>
      </trkpt>
      <trkpt lat="48.38169" lon="2.73845">
        <ele>100.6</ele>
        <time>2016-09-17T13:17:23Z</time>
      </trkpt>
      <trkpt lat="48.38167" lon="2.73831">
        <ele>100.6</ele>
        <time>2016-09-17T13:17:31Z</time>
      </trkpt>
      <trkpt lat="48.38167" lon="2.73825">
        <ele>100.6</ele>
        <time>2016-09-17T13:17:35Z</time>
      </trkpt>
      <trkpt lat="48.38167" lon="2.73819">
        <ele>101.08</ele>
        <time>2016-09-17T13:17:38Z</time>
      </trkpt>
      <trkpt lat="48.38166" lon="2.73807">
        <ele>101.08</ele>
        <time>2016-09-17T13:17:46Z</time>
      </trkpt>
      <trkpt lat="48.38164" lon="2.73793">
        <ele>101.08</ele>
        <time>2016-09-17T13:17:53Z</time>
      </trkpt>
      <trkpt lat="48.38165" lon="2.73783">
        <ele>101.08</ele>
        <time>2016-09-17T13:17:59Z</time>
      </trkpt>
      <trkpt lat="48.38165" lon="2.73769">
        <ele>101.08</ele>
        <time>2016-09-17T13:18:07Z</time>
      </trkpt>
      <trkpt lat="48.38163" lon="2.73758">
        <ele>101.08</ele>
        <time>2016-09-17T13:18:13Z</time>
      </trkpt>
      <trkpt lat="48.38161" lon="2.73748">
        <ele>100.6</ele>
        <time>2016-09-17T13:18:21Z</time>
      </trkpt>
      <trkpt lat="48.3816" lon="2.7374">
        <ele>100.6</ele>
        <time>2016-09-17T13:18:28Z</time>
      </trkpt>
      <trkpt lat="48.38159" lon="2.7373">
        <ele>100.6</ele>
        <time>2016-09-17T13:18:34Z</time>
      </trkpt>
      <trkpt lat="48.38158" lon="2.73713">
        <ele>100.6</ele>
        <time>2016-09-17T13:18:41Z</time>
      </trkpt>
      <trkpt lat="48.38157" lon="2.73704">
        <ele>100.6</ele>
        <time>2016-09-17T13:18:49Z</time>
      </trkpt>
      <trkpt lat="48.38158" lon="2.73689">
        <ele>101.08</ele>
        <time>2016-09-17T13:18:57Z</time>
      </trkpt>
      <trkpt lat="48.38156" lon="2.73671">
        <ele>100.6</ele>
        <time>2016-09-17T13:19:04Z</time>
      </trkpt>
      <trkpt lat="48.38157" lon="2.73661">
        <ele>101.08</ele>
        <time>2016-09-17T13:19:10Z</time>
      </trkpt>
      <trkpt lat="48.38156" lon="2.73653">
        <ele>101.08</ele>
        <time>2016-09-17T13:19:16Z</time>
      </trkpt>
      <trkpt lat="48.38155" lon="2.73645">
        <ele>101.08</ele>
        <time>2016-09-17T13:19:22Z</time>
      </trkpt>
      <trkpt lat="48.38154" lon="2.73632">
        <ele>101.08</ele>
        <time>2016-09-17T13:19:28Z</time>
      </trkpt>
      <trkpt lat="48.38153" lon="2.73607">
        <ele>101.08</ele>
        <time>2016-09-17T13:19:37Z</time>
      </trkpt>
      <trkpt lat="48.38151" lon="2.73593">
        <ele>101.08</ele>
        <time>2016-09-17T13:19:43Z</time>
      </trkpt>
      <trkpt lat="48.38152" lon="2.73589">
        <ele>101.08</ele>
        <time>2016-09-17T13:19:45Z</time>
      </trkpt>
      <trkpt lat="48.38151" lon="2.73567">
        <ele>101.08</ele>
        <time>2016-09-17T13:19:54Z</time>
      </trkpt>
      <trkpt lat="48.3815" lon="2.73565">
        <ele>101.08</ele>
        <time>2016-09-17T13:19:55Z</time>
      </trkpt>
      <trkpt lat="48.38144" lon="2.7355">
        <ele>101.08</ele>
        <time>2016-09-17T13:20:04Z</time>
      </trkpt>
      <trkpt lat="48.38134" lon="2.73541">
        <ele>101.08</ele>
        <time>2016-09-17T13:20:12Z</time>
      </trkpt>
      <trkpt lat="48.38124" lon="2.73532">
        <ele>101.08</ele>
        <time>2016-09-17T13:20:20Z</time>
      </trkpt>
      <trkpt lat="48.38118" lon="2.73526">
        <ele>101.08</ele>
        <time>2016-09-17T13:20:26Z</time>
      </trkpt>
      <trkpt lat="48.3811" lon="2.73519">
        <ele>101.08</ele>
        <time>2016-09-17T13:20:33Z</time>
      </trkpt>
      <trkpt lat="48.38104" lon="2.73511">
        <ele>101.56</ele>
        <time>2016-09-17T13:20:41Z</time>
      </trkpt>
      <trkpt lat="48.38095" lon="2.73503">
        <ele>101.56</ele>
        <time>2016-09-17T13:20:49Z</time>
      </trkpt>
      <trkpt lat="48.38088" lon="2.73494">
        <ele>101.56</ele>
        <time>2016-09-17T13:20:57Z</time>
      </trkpt>
      <trkpt lat="48.38084" lon="2.73492">
        <ele>101.56</ele>
        <time>2016-09-17T13:21:00Z</time>
      </trkpt>
      <trkpt lat="48.38077" lon="2.73487">
        <ele>102.04</ele>
        <time>2016-09-17T13:21:06Z</time>
      </trkpt>
      <trkpt lat="48.38074" lon="2.73483">
        <ele>102.04</ele>
        <time>2016-09-17T13:21:09Z</time>
      </trkpt>
      <trkpt lat="48.38062" lon="2.73475">
        <ele>102.04</ele>
        <time>2016-09-17T13:21:18Z</time>
      </trkpt>
      <trkpt lat="48.38057" lon="2.7347">
        <ele>102.04</ele>
        <time>2016-09-17T13:21:23Z</time>
      </trkpt>
      <trkpt lat="48.38049" lon="2.73463">
        <ele>102.52</ele>
        <time>2016-09-17T13:21:32Z</time>
      </trkpt>
      <trkpt lat="48.38042" lon="2.73456">
        <ele>102.52</ele>
        <time>2016-09-17T13:21:39Z</time>
      </trkpt>
      <trkpt lat="48.38037" lon="2.73451">
        <ele>103</ele>
        <time>2016-09-17T13:21:45Z</time>
      </trkpt>
      <trkpt lat="48.38034" lon="2.73451">
        <ele>103</ele>
        <time>2016-09-17T13:21:53Z</time>
      </trkpt>
      <trkpt lat="48.3803" lon="2.73451">
        <ele>103</ele>
        <time>2016-09-17T13:22:06Z</time>
      </trkpt>
      <trkpt lat="48.3803" lon="2.73451">
        <ele>103</ele>
        <time>2016-09-17T13:22:14Z</time>
      </trkpt>
      <trkpt lat="48.38029" lon="2.73451">
        <ele>102.52</ele>
        <time>2016-09-17T13:22:29Z</time>
      </trkpt>
      <trkpt lat="48.38029" lon="2.73451">
        <ele>102.52</ele>
        <time>2016-09-17T13:22:43Z</time>
      </trkpt>
      <trkpt lat="48.38031" lon="2.7345">
        <ele>102.52</ele>
        <time>2016-09-17T13:22:51Z</time>
      </trkpt>
      <trkpt lat="48.38032" lon="2.7345">
        <ele>102.52</ele>
        <time>2016-09-17T13:23:06Z</time>
      </trkpt>
      <trkpt lat="48.38032" lon="2.73449">
        <ele>102.52</ele>
        <time>2016-09-17T13:23:16Z</time>
      </trkpt>
      <trkpt lat="48.38032" lon="2.73449">
        <ele>102.52</ele>
        <time>2016-09-17T13:23:29Z</time>
      </trkpt>
      <trkpt lat="48.38033" lon="2.73449">
        <ele>102.52</ele>
        <time>2016-09-17T13:23:42Z</time>
      </trkpt>
      <trkpt lat="48.38032" lon="2.7345">
        <ele>102.52</ele>
        <time>2016-09-17T13:23:55Z</time>
      </trkpt>
      <trkpt lat="48.38032" lon="2.73449">
        <ele>102.04</ele>
        <time>2016-09-17T13:24:08Z</time>
      </trkpt>
      <trkpt lat="48.38032" lon="2.7345">
        <ele>102.52</ele>
        <time>2016-09-17T13:24:20Z</time>
      </trkpt>
      <trkpt lat="48.38032" lon="2.73449">
        <ele>102.04</ele>
        <time>2016-09-17T13:24:39Z</time>
      </trkpt>
      <trkpt lat="48.38032" lon="2.7345">
        <ele>102.04</ele>
        <time>2016-09-17T13:24:56Z</time>
      </trkpt>
      <trkpt lat="48.38032" lon="2.73449">
        <ele>102.04</ele>
        <time>2016-09-17T13:25:10Z</time>
      </trkpt>
      <trkpt lat="48.38032" lon="2.73449">
        <ele>102.04</ele>
        <time>2016-09-17T13:25:20Z</time>
      </trkpt>
      <trkpt lat="48.38032" lon="2.7345">
        <ele>102.04</ele>
        <time>2016-09-17T13:25:37Z</time>
      </trkpt>
      <trkpt lat="48.38032" lon="2.7345">
        <ele>102.04</ele>
        <time>2016-09-17T13:25:55Z</time>
      </trkpt>
      <trkpt lat="48.38032" lon="2.73449">
        <ele>101.56</ele>
        <time>2016-09-17T13:26:13Z</time>
      </trkpt>
      <trkpt lat="48.38032" lon="2.73447">
        <ele>101.56</ele>
        <time>2016-09-17T13:26:28Z</time>
      </trkpt>
      <trkpt lat="48.38032" lon="2.73446">
        <ele>101.56</ele>
        <time>2016-09-17T13:26:46Z</time>
      </trkpt>
      <trkpt lat="48.38031" lon="2.73447">
        <ele>101.56</ele>
        <time>2016-09-17T13:27:01Z</time>
      </trkpt>
      <trkpt lat="48.38031" lon="2.73448">
        <ele>101.08</ele>
        <time>2016-09-17T13:27:13Z</time>
      </trkpt>
      <trkpt lat="48.38031" lon="2.73448">
        <ele>101.08</ele>
        <time>2016-09-17T13:27:29Z</time>
      </trkpt>
      <trkpt lat="48.3803" lon="2.73448">
        <ele>101.08</ele>
        <time>2016-09-17T13:27:45Z</time>
      </trkpt>
      <trkpt lat="48.3803" lon="2.73449">
        <ele>101.08</ele>
        <time>2016-09-17T13:28:03Z</time>
      </trkpt>
      <trkpt lat="48.3803" lon="2.73447">
        <ele>101.08</ele>
        <time>2016-09-17T13:28:21Z</time>
      </trkpt>
      <trkpt lat="48.3803" lon="2.73446">
        <ele>101.08</ele>
        <time>2016-09-17T13:28:40Z</time>
      </trkpt>
      <trkpt lat="48.3803" lon="2.73446">
        <ele>100.6</ele>
        <time>2016-09-17T13:29:01Z</time>
      </trkpt>
      <trkpt lat="48.3803" lon="2.73446">
        <ele>100.6</ele>
        <time>2016-09-17T13:29:23Z</time>
      </trkpt>
      <trkpt lat="48.38031" lon="2.73445">
        <ele>100.6</ele>
        <time>2016-09-17T13:29:44Z</time>
      </trkpt>
      <trkpt lat="48.38031" lon="2.73445">
        <ele>100.6</ele>
        <time>2016-09-17T13:29:56Z</time>
      </trkpt>
      <trkpt lat="48.38031" lon="2.73446">
        <ele>100.11</ele>
        <time>2016-09-17T13:30:09Z</time>
      </trkpt>
      <trkpt lat="48.38031" lon="2.73447">
        <ele>100.11</ele>
        <time>2016-09-17T13:30:21Z</time>
      </trkpt>
      <trkpt lat="48.38031" lon="2.73447">
        <ele>100.6</ele>
        <time>2016-09-17T13:30:31Z</time>
      </trkpt>
      <trkpt lat="48.3803" lon="2.73447">
        <ele>100.11</ele>
        <time>2016-09-17T13:30:41Z</time>
      </trkpt>
      <trkpt lat="48.3803" lon="2.73447">
        <ele>100.11</ele>
        <time>2016-09-17T13:30:57Z</time>
      </trkpt>
      <trkpt lat="48.3803" lon="2.73446">
        <ele>99.63</ele>
        <time>2016-09-17T13:31:14Z</time>
      </trkpt>
      <trkpt lat="48.3803" lon="2.73445">
        <ele>99.63</ele>
        <time>2016-09-17T13:31:32Z</time>
      </trkpt>
      <trkpt lat="48.3803" lon="2.73445">
        <ele>99.63</ele>
        <time>2016-09-17T13:31:53Z</time>
      </trkpt>
      <trkpt lat="48.3803" lon="2.73445">
        <ele>99.15</ele>
        <time>2016-09-17T13:32:12Z</time>
      </trkpt>
      <trkpt lat="48.38031" lon="2.73444">
        <ele>99.15</ele>
        <time>2016-09-17T13:32:28Z</time>
      </trkpt>
      <trkpt lat="48.38031" lon="2.73444">
        <ele>99.15</ele>
        <time>2016-09-17T13:32:47Z</time>
      </trkpt>
      <trkpt lat="48.38031" lon="2.73443">
        <ele>99.15</ele>
        <time>2016-09-17T13:33:04Z</time>
      </trkpt>
      <trkpt lat="48.38031" lon="2.73444">
        <ele>99.15</ele>
        <time>2016-09-17T13:33:22Z</time>
      </trkpt>
      <trkpt lat="48.3803" lon="2.73444">
        <ele>98.67</ele>
        <time>2016-09-17T13:33:36Z</time>
      </trkpt>
      <trkpt lat="48.38031" lon="2.73444">
        <ele>98.67</ele>
        <time>2016-09-17T13:33:50Z</time>
      </trkpt>
      <trkpt lat="48.38031" lon="2.73444">
        <ele>98.67</ele>
        <time>2016-09-17T13:34:00Z</time>
      </trkpt>
      <trkpt lat="48.38031" lon="2.73444">
        <ele>98.67</ele>
        <time>2016-09-17T13:34:11Z</time>
      </trkpt>
      <trkpt lat="48.38031" lon="2.73444">
        <ele>98.67</ele>
        <time>2016-09-17T13:34:25Z</time>
      </trkpt>
      <trkpt lat="48.38031" lon="2.73446">
        <ele>98.67</ele>
        <time>2016-09-17T13:34:31Z</time>
      </trkpt>
      <trkpt lat="48.38031" lon="2.73445">
        <ele>98.67</ele>
        <time>2016-09-17T13:34:37Z</time>
      </trkpt>
      <trkpt lat="48.3803" lon="2.73446">
        <ele>98.67</ele>
        <time>2016-09-17T13:34:49Z</time>
      </trkpt>
      <trkpt lat="48.3803" lon="2.73447">
        <ele>98.19</ele>
        <time>2016-09-17T13:35:05Z</time>
      </trkpt>
      <trkpt lat="48.38029" lon="2.73446">
        <ele>98.67</ele>
        <time>2016-09-17T13:35:18Z</time>
      </trkpt>
      <trkpt lat="48.38029" lon="2.73446">
        <ele>98.19</ele>
        <time>2016-09-17T13:35:32Z</time>
      </trkpt>
      <trkpt lat="48.3803" lon="2.73447">
        <ele>98.19</ele>
        <time>2016-09-17T13:35:44Z</time>
      </trkpt>
      <trkpt lat="48.3803" lon="2.73445">
        <ele>98.19</ele>
        <time>2016-09-17T13:35:58Z</time>
      </trkpt>
      <trkpt lat="48.38031" lon="2.73445">
        <ele>98.19</ele>
        <time>2016-09-17T13:36:12Z</time>
      </trkpt>
      <trkpt lat="48.38032" lon="2.73445">
        <ele>98.19</ele>
        <time>2016-09-17T13:36:25Z</time>
      </trkpt>
      <trkpt lat="48.38032" lon="2.73445">
        <ele>97.71</ele>
        <time>2016-09-17T13:36:42Z</time>
      </trkpt>
      <trkpt lat="48.38032" lon="2.73446">
        <ele>97.71</ele>
        <time>2016-09-17T13:36:59Z</time>
      </trkpt>
      <trkpt lat="48.38032" lon="2.73446">
        <ele>97.71</ele>
        <time>2016-09-17T13:37:17Z</time>
      </trkpt>
      <trkpt lat="48.38032" lon="2.73446">
        <ele>97.23</ele>
        <time>2016-09-17T13:37:34Z</time>
      </trkpt>
      <trkpt lat="48.38031" lon="2.73446">
        <ele>97.71</ele>
        <time>2016-09-17T13:37:45Z</time>
      </trkpt>
      <trkpt lat="48.38031" lon="2.73446">
        <ele>97.71</ele>
        <time>2016-09-17T13:38:00Z</time>
      </trkpt>
      <trkpt lat="48.38031" lon="2.73446">
        <ele>97.71</ele>
        <time>2016-09-17T13:38:10Z</time>
      </trkpt>
      <trkpt lat="48.38032" lon="2.73445">
        <ele>97.23</ele>
        <time>2016-09-17T13:38:21Z</time>
      </trkpt>
      <trkpt lat="48.38032" lon="2.73444">
        <ele>97.23</ele>
        <time>2016-09-17T13:38:36Z</time>
      </trkpt>
      <trkpt lat="48.38032" lon="2.73444">
        <ele>97.71</ele>
        <time>2016-09-17T13:38:52Z</time>
      </trkpt>
      <trkpt lat="48.38033" lon="2.73444">
        <ele>97.23</ele>
        <time>2016-09-17T13:39:10Z</time>
      </trkpt>
      <trkpt lat="48.38033" lon="2.73444">
        <ele>97.23</ele>
        <time>2016-09-17T13:39:16Z</time>
      </trkpt>
      <trkpt lat="48.38032" lon="2.73444">
        <ele>97.23</ele>
        <time>2016-09-17T13:39:26Z</time>
      </trkpt>
      <trkpt lat="48.38032" lon="2.73444">
        <ele>97.23</ele>
        <time>2016-09-17T13:39:32Z</time>
      </trkpt>
      <trkpt lat="48.38032" lon="2.73445">
        <ele>97.23</ele>
        <time>2016-09-17T13:39:39Z</time>
      </trkpt>
      <trkpt lat="48.38033" lon="2.73445">
        <ele>96.75</ele>
        <time>2016-09-17T13:39:46Z</time>
      </trkpt>
      <trkpt lat="48.38032" lon="2.73446">
        <ele>97.23</ele>
        <time>2016-09-17T13:39:51Z</time>
      </trkpt>
      <trkpt lat="48.38033" lon="2.73447">
        <ele>97.23</ele>
        <time>2016-09-17T13:39:59Z</time>
      </trkpt>
      <trkpt lat="48.38033" lon="2.73447">
        <ele>97.23</ele>
        <time>2016-09-17T13:40:06Z</time>
      </trkpt>
      <trkpt lat="48.3803" lon="2.73447">
        <ele>97.23</ele>
        <time>2016-09-17T13:40:13Z</time>
      </trkpt>
      <trkpt lat="48.3803" lon="2.73448">
        <ele>97.23</ele>
        <time>2016-09-17T13:40:23Z</time>
      </trkpt>
      <trkpt lat="48.38029" lon="2.73448">
        <ele>97.23</ele>
        <time>2016-09-17T13:40:30Z</time>
      </trkpt>
      <trkpt lat="48.38029" lon="2.73448">
        <ele>97.23</ele>
        <time>2016-09-17T13:40:36Z</time>
      </trkpt>
      <trkpt lat="48.38025" lon="2.73441">
        <ele>96.75</ele>
        <time>2016-09-17T13:40:43Z</time>
      </trkpt>
      <trkpt lat="48.38024" lon="2.73438">
        <ele>97.23</ele>
        <time>2016-09-17T13:40:50Z</time>
      </trkpt>
      <trkpt lat="48.38024" lon="2.73436">
        <ele>96.75</ele>
        <time>2016-09-17T13:41:04Z</time>
      </trkpt>
      <trkpt lat="48.38021" lon="2.73433">
        <ele>96.75</ele>
        <time>2016-09-17T13:41:10Z</time>
      </trkpt>
      <trkpt lat="48.38011" lon="2.73425">
        <ele>97.23</ele>
        <time>2016-09-17T13:41:18Z</time>
      </trkpt>
      <trkpt lat="48.38004" lon="2.73419">
        <ele>97.23</ele>
        <time>2016-09-17T13:41:25Z</time>
      </trkpt>
      <trkpt lat="48.38" lon="2.73411">
        <ele>97.23</ele>
        <time>2016-09-17T13:41:32Z</time>
      </trkpt>
      <trkpt lat="48.37993" lon="2.73405">
        <ele>97.23</ele>
        <time>2016-09-17T13:41:39Z</time>
      </trkpt>
      <trkpt lat="48.37986" lon="2.73399">
        <ele>97.71</ele>
        <time>2016-09-17T13:41:46Z</time>
      </trkpt>
      <trkpt lat="48.37979" lon="2.73393">
        <ele>97.71</ele>
        <time>2016-09-17T13:41:52Z</time>
      </trkpt>
      <trkpt lat="48.37972" lon="2.73388">
        <ele>97.71</ele>
        <time>2016-09-17T13:41:58Z</time>
      </trkpt>
      <trkpt lat="48.37963" lon="2.73383">
        <ele>97.71</ele>
        <time>2016-09-17T13:42:04Z</time>
      </trkpt>
      <trkpt lat="48.37959" lon="2.73377">
        <ele>97.71</ele>
        <time>2016-09-17T13:42:08Z</time>
      </trkpt>
      <trkpt lat="48.37955" lon="2.73364">
        <ele>98.67</ele>
        <time>2016-09-17T13:42:16Z</time>
      </trkpt>
      <trkpt lat="48.37954" lon="2.73358">
        <ele>98.67</ele>
        <time>2016-09-17T13:42:19Z</time>
      </trkpt>
      <trkpt lat="48.37951" lon="2.73343">
        <ele>98.19</ele>
        <time>2016-09-17T13:42:29Z</time>
      </trkpt>
      <trkpt lat="48.37949" lon="2.73333">
        <ele>98.19</ele>
        <time>2016-09-17T13:42:36Z</time>
      </trkpt>
      <trkpt lat="48.37948" lon="2.73321">
        <ele>97.71</ele>
        <time>2016-09-17T13:42:44Z</time>
      </trkpt>
      <trkpt lat="48.37947" lon="2.73311">
        <ele>97.71</ele>
        <time>2016-09-17T13:42:50Z</time>
      </trkpt>
      <trkpt lat="48.37945" lon="2.73303">
        <ele>98.19</ele>
        <time>2016-09-17T13:42:56Z</time>
      </trkpt>
      <trkpt lat="48.37945" lon="2.733">
        <ele>98.19</ele>
        <time>2016-09-17T13:42:58Z</time>
      </trkpt>
      <trkpt lat="48.37947" lon="2.73286">
        <ele>97.71</ele>
        <time>2016-09-17T13:43:06Z</time>
      </trkpt>
      <trkpt lat="48.37947" lon="2.73273">
        <ele>97.71</ele>
        <time>2016-09-17T13:43:14Z</time>
      </trkpt>
      <trkpt lat="48.37949" lon="2.73261">
        <ele>97.71</ele>
        <time>2016-09-17T13:43:23Z</time>
      </trkpt>
      <trkpt lat="48.3795" lon="2.73249">
        <ele>97.71</ele>
        <time>2016-09-17T13:43:31Z</time>
      </trkpt>
      <trkpt lat="48.37952" lon="2.7324">
        <ele>97.71</ele>
        <time>2016-09-17T13:43:37Z</time>
      </trkpt>
      <trkpt lat="48.37952" lon="2.73234">
        <ele>97.71</ele>
        <time>2016-09-17T13:43:40Z</time>
      </trkpt>
      <trkpt lat="48.37953" lon="2.73222">
        <ele>97.71</ele>
        <time>2016-09-17T13:43:48Z</time>
      </trkpt>
      <trkpt lat="48.37954" lon="2.73207">
        <ele>97.71</ele>
        <time>2016-09-17T13:43:57Z</time>
      </trkpt>
      <trkpt lat="48.37955" lon="2.73197">
        <ele>97.71</ele>
        <time>2016-09-17T13:44:02Z</time>
      </trkpt>
      <trkpt lat="48.37957" lon="2.73187">
        <ele>97.23</ele>
        <time>2016-09-17T13:44:08Z</time>
      </trkpt>
      <trkpt lat="48.37957" lon="2.7317">
        <ele>97.23</ele>
        <time>2016-09-17T13:44:16Z</time>
      </trkpt>
      <trkpt lat="48.3796" lon="2.73156">
        <ele>97.23</ele>
        <time>2016-09-17T13:44:24Z</time>
      </trkpt>
      <trkpt lat="48.37961" lon="2.7314">
        <ele>97.23</ele>
        <time>2016-09-17T13:44:32Z</time>
      </trkpt>
      <trkpt lat="48.37964" lon="2.73125">
        <ele>96.75</ele>
        <time>2016-09-17T13:44:40Z</time>
      </trkpt>
      <trkpt lat="48.37965" lon="2.73116">
        <ele>96.75</ele>
        <time>2016-09-17T13:44:45Z</time>
      </trkpt>
      <trkpt lat="48.37964" lon="2.73109">
        <ele>96.75</ele>
        <time>2016-09-17T13:44:49Z</time>
      </trkpt>
      <trkpt lat="48.37965" lon="2.73093">
        <ele>96.75</ele>
        <time>2016-09-17T13:44:58Z</time>
      </trkpt>
      <trkpt lat="48.37967" lon="2.73079">
        <ele>96.75</ele>
        <time>2016-09-17T13:45:06Z</time>
      </trkpt>
      <trkpt lat="48.3797" lon="2.73067">
        <ele>96.75</ele>
        <time>2016-09-17T13:45:14Z</time>
      </trkpt>
      <trkpt lat="48.3797" lon="2.73065">
        <ele>96.75</ele>
        <time>2016-09-17T13:45:16Z</time>
      </trkpt>
      <trkpt lat="48.37972" lon="2.7305">
        <ele>96.75</ele>
        <time>2016-09-17T13:45:25Z</time>
      </trkpt>
      <trkpt lat="48.37973" lon="2.73042">
        <ele>96.75</ele>
        <time>2016-09-17T13:45:29Z</time>
      </trkpt>
      <trkpt lat="48.37975" lon="2.73033">
        <ele>96.75</ele>
        <time>2016-09-17T13:45:34Z</time>
      </trkpt>
      <trkpt lat="48.37975" lon="2.73015">
        <ele>96.75</ele>
        <time>2016-09-17T13:45:44Z</time>
      </trkpt>
      <trkpt lat="48.37975" lon="2.73002">
        <ele>96.75</ele>
        <time>2016-09-17T13:45:51Z</time>
      </trkpt>
      <trkpt lat="48.37978" lon="2.72988">
        <ele>97.23</ele>
        <time>2016-09-17T13:45:58Z</time>
      </trkpt>
      <trkpt lat="48.37979" lon="2.72972">
        <ele>97.23</ele>
        <time>2016-09-17T13:46:08Z</time>
      </trkpt>
      <trkpt lat="48.37981" lon="2.72956">
        <ele>97.71</ele>
        <time>2016-09-17T13:46:17Z</time>
      </trkpt>
      <trkpt lat="48.37982" lon="2.72943">
        <ele>97.71</ele>
        <time>2016-09-17T13:46:24Z</time>
      </trkpt>
      <trkpt lat="48.37985" lon="2.72928">
        <ele>98.19</ele>
        <time>2016-09-17T13:46:32Z</time>
      </trkpt>
      <trkpt lat="48.37986" lon="2.7291">
        <ele>98.19</ele>
        <time>2016-09-17T13:46:40Z</time>
      </trkpt>
      <trkpt lat="48.37987" lon="2.72897">
        <ele>98.19</ele>
        <time>2016-09-17T13:46:47Z</time>
      </trkpt>
      <trkpt lat="48.37989" lon="2.72886">
        <ele>98.67</ele>
        <time>2016-09-17T13:46:54Z</time>
      </trkpt>
      <trkpt lat="48.37988" lon="2.72872">
        <ele>98.67</ele>
        <time>2016-09-17T13:47:02Z</time>
      </trkpt>
      <trkpt lat="48.37991" lon="2.72859">
        <ele>98.67</ele>
        <time>2016-09-17T13:47:10Z</time>
      </trkpt>
      <trkpt lat="48.37992" lon="2.72842">
        <ele>98.67</ele>
        <time>2016-09-17T13:47:18Z</time>
      </trkpt>
      <trkpt lat="48.37994" lon="2.72832">
        <ele>98.67</ele>
        <time>2016-09-17T13:47:24Z</time>
      </trkpt>
      <trkpt lat="48.37997" lon="2.72816">
        <ele>99.15</ele>
        <time>2016-09-17T13:47:33Z</time>
      </trkpt>
      <trkpt lat="48.37997" lon="2.72812">
        <ele>99.15</ele>
        <time>2016-09-17T13:47:36Z</time>
      </trkpt>
      <trkpt lat="48.37998" lon="2.728">
        <ele>99.63</ele>
        <time>2016-09-17T13:47:43Z</time>
      </trkpt>
      <trkpt lat="48.37998" lon="2.72795">
        <ele>99.63</ele>
        <time>2016-09-17T13:47:46Z</time>
      </trkpt>
      <trkpt lat="48.38" lon="2.72789">
        <ele>99.63</ele>
        <time>2016-09-17T13:47:49Z</time>
      </trkpt>
      <trkpt lat="48.37999" lon="2.72772">
        <ele>99.63</ele>
        <time>2016-09-17T13:47:57Z</time>
      </trkpt>
      <trkpt lat="48.38001" lon="2.72759">
        <ele>99.63</ele>
        <time>2016-09-17T13:48:04Z</time>
      </trkpt>
      <trkpt lat="48.38002" lon="2.72757">
        <ele>99.63</ele>
        <time>2016-09-17T13:48:05Z</time>
      </trkpt>
      <trkpt lat="48.38003" lon="2.7275">
        <ele>100.11</ele>
        <time>2016-09-17T13:48:08Z</time>
      </trkpt>
      <trkpt lat="48.38003" lon="2.72736">
        <ele>100.11</ele>
        <time>2016-09-17T13:48:14Z</time>
      </trkpt>
      <trkpt lat="48.38004" lon="2.72723">
        <ele>100.11</ele>
        <time>2016-09-17T13:48:20Z</time>
      </trkpt>
      <trkpt lat="48.38006" lon="2.7271">
        <ele>100.11</ele>
        <time>2016-09-17T13:48:28Z</time>
      </trkpt>
      <trkpt lat="48.38007" lon="2.72702">
        <ele>100.11</ele>
        <time>2016-09-17T13:48:32Z</time>
      </trkpt>
      <trkpt lat="48.3801" lon="2.72688">
        <ele>100.11</ele>
        <time>2016-09-17T13:48:40Z</time>
      </trkpt>
      <trkpt lat="48.3801" lon="2.72683">
        <ele>100.11</ele>
        <time>2016-09-17T13:48:43Z</time>
      </trkpt>
      <trkpt lat="48.38012" lon="2.72669">
        <ele>100.11</ele>
        <time>2016-09-17T13:48:51Z</time>
      </trkpt>
      <trkpt lat="48.38012" lon="2.72667">
        <ele>100.6</ele>
        <time>2016-09-17T13:48:52Z</time>
      </trkpt>
      <trkpt lat="48.38014" lon="2.72658">
        <ele>100.6</ele>
        <time>2016-09-17T13:48:59Z</time>
      </trkpt>
      <trkpt lat="48.38016" lon="2.72645">
        <ele>100.6</ele>
        <time>2016-09-17T13:49:06Z</time>
      </trkpt>
      <trkpt lat="48.38018" lon="2.72633">
        <ele>100.6</ele>
        <time>2016-09-17T13:49:13Z</time>
      </trkpt>
      <trkpt lat="48.38018" lon="2.72617">
        <ele>101.08</ele>
        <time>2016-09-17T13:49:22Z</time>
      </trkpt>
      <trkpt lat="48.38019" lon="2.72608">
        <ele>101.08</ele>
        <time>2016-09-17T13:49:28Z</time>
      </trkpt>
      <trkpt lat="48.3802" lon="2.72594">
        <ele>101.08</ele>
        <time>2016-09-17T13:49:35Z</time>
      </trkpt>
      <trkpt lat="48.38022" lon="2.72584">
        <ele>101.56</ele>
        <time>2016-09-17T13:49:42Z</time>
      </trkpt>
      <trkpt lat="48.38023" lon="2.72575">
        <ele>101.56</ele>
        <time>2016-09-17T13:49:49Z</time>
      </trkpt>
      <trkpt lat="48.38023" lon="2.72563">
        <ele>101.56</ele>
        <time>2016-09-17T13:49:56Z</time>
      </trkpt>
      <trkpt lat="48.38025" lon="2.72543">
        <ele>101.56</ele>
        <time>2016-09-17T13:50:04Z</time>
      </trkpt>
      <trkpt lat="48.38027" lon="2.72529">
        <ele>102.04</ele>
        <time>2016-09-17T13:50:11Z</time>
      </trkpt>
      <trkpt lat="48.38028" lon="2.7252">
        <ele>102.04</ele>
        <time>2016-09-17T13:50:16Z</time>
      </trkpt>
      <trkpt lat="48.3803" lon="2.72509">
        <ele>102.52</ele>
        <time>2016-09-17T13:50:23Z</time>
      </trkpt>
      <trkpt lat="48.38031" lon="2.72499">
        <ele>102.52</ele>
        <time>2016-09-17T13:50:29Z</time>
      </trkpt>
      <trkpt lat="48.38032" lon="2.72484">
        <ele>102.52</ele>
        <time>2016-09-17T13:50:36Z</time>
      </trkpt>
      <trkpt lat="48.38032" lon="2.72483">
        <ele>102.52</ele>
        <time>2016-09-17T13:50:37Z</time>
      </trkpt>
      <trkpt lat="48.38034" lon="2.72472">
        <ele>102.52</ele>
        <time>2016-09-17T13:50:44Z</time>
      </trkpt>
      <trkpt lat="48.38035" lon="2.72466">
        <ele>103</ele>
        <time>2016-09-17T13:50:49Z</time>
      </trkpt>
      <trkpt lat="48.38036" lon="2.72457">
        <ele>103</ele>
        <time>2016-09-17T13:50:53Z</time>
      </trkpt>
      <trkpt lat="48.38037" lon="2.72446">
        <ele>103</ele>
        <time>2016-09-17T13:50:59Z</time>
      </trkpt>
      <trkpt lat="48.38039" lon="2.72435">
        <ele>103.48</ele>
        <time>2016-09-17T13:51:05Z</time>
      </trkpt>
      <trkpt lat="48.38039" lon="2.72418">
        <ele>103.48</ele>
        <time>2016-09-17T13:51:13Z</time>
      </trkpt>
      <trkpt lat="48.38042" lon="2.72404">
        <ele>103.48</ele>
        <time>2016-09-17T13:51:20Z</time>
      </trkpt>
      <trkpt lat="48.38043" lon="2.7239">
        <ele>103.96</ele>
        <time>2016-09-17T13:51:27Z</time>
      </trkpt>
      <trkpt lat="48.38043" lon="2.72386">
        <ele>103.96</ele>
        <time>2016-09-17T13:51:29Z</time>
      </trkpt>
      <trkpt lat="48.38045" lon="2.72373">
        <ele>103.96</ele>
        <time>2016-09-17T13:51:36Z</time>
      </trkpt>
      <trkpt lat="48.38047" lon="2.72362">
        <ele>104.44</ele>
        <time>2016-09-17T13:51:43Z</time>
      </trkpt>
      <trkpt lat="48.38048" lon="2.72349">
        <ele>104.44</ele>
        <time>2016-09-17T13:51:51Z</time>
      </trkpt>
      <trkpt lat="48.38047" lon="2.72337">
        <ele>104.44</ele>
        <time>2016-09-17T13:51:58Z</time>
      </trkpt>
      <trkpt lat="48.38049" lon="2.72321">
        <ele>104.92</ele>
        <time>2016-09-17T13:52:07Z</time>
      </trkpt>
      <trkpt lat="48.38051" lon="2.72308">
        <ele>104.92</ele>
        <time>2016-09-17T13:52:14Z</time>
      </trkpt>
      <trkpt lat="48.38052" lon="2.72289">
        <ele>105.4</ele>
        <time>2016-09-17T13:52:23Z</time>
      </trkpt>
      <trkpt lat="48.38053" lon="2.72287">
        <ele>105.88</ele>
        <time>2016-09-17T13:52:24Z</time>
      </trkpt>
      <trkpt lat="48.38052" lon="2.72278">
        <ele>105.88</ele>
        <time>2016-09-17T13:52:28Z</time>
      </trkpt>
      <trkpt lat="48.38053" lon="2.72268">
        <ele>105.4</ele>
        <time>2016-09-17T13:52:34Z</time>
      </trkpt>
      <trkpt lat="48.38053" lon="2.72258">
        <ele>105.4</ele>
        <time>2016-09-17T13:52:40Z</time>
      </trkpt>
      <trkpt lat="48.38056" lon="2.72247">
        <ele>105.4</ele>
        <time>2016-09-17T13:52:47Z</time>
      </trkpt>
      <trkpt lat="48.38058" lon="2.72235">
        <ele>104.92</ele>
        <time>2016-09-17T13:52:54Z</time>
      </trkpt>
      <trkpt lat="48.3806" lon="2.72226">
        <ele>105.4</ele>
        <time>2016-09-17T13:53:01Z</time>
      </trkpt>
      <trkpt lat="48.38062" lon="2.72217">
        <ele>105.4</ele>
        <time>2016-09-17T13:53:08Z</time>
      </trkpt>
      <trkpt lat="48.38064" lon="2.72208">
        <ele>105.88</ele>
        <time>2016-09-17T13:53:13Z</time>
      </trkpt>
      <trkpt lat="48.38067" lon="2.72199">
        <ele>105.88</ele>
        <time>2016-09-17T13:53:20Z</time>
      </trkpt>
      <trkpt lat="48.38069" lon="2.72183">
        <ele>105.88</ele>
        <time>2016-09-17T13:53:28Z</time>
      </trkpt>
      <trkpt lat="48.38074" lon="2.72163">
        <ele>106.36</ele>
        <time>2016-09-17T13:53:37Z</time>
      </trkpt>
      <trkpt lat="48.38075" lon="2.72158">
        <ele>106.36</ele>
        <time>2016-09-17T13:53:40Z</time>
      </trkpt>
      <trkpt lat="48.38079" lon="2.72141">
        <ele>106.36</ele>
        <time>2016-09-17T13:53:49Z</time>
      </trkpt>
      <trkpt lat="48.38081" lon="2.72127">
        <ele>106.36</ele>
        <time>2016-09-17T13:53:56Z</time>
      </trkpt>
      <trkpt lat="48.38081" lon="2.72123">
        <ele>106.36</ele>
        <time>2016-09-17T13:53:58Z</time>
      </trkpt>
      <trkpt lat="48.38082" lon="2.72112">
        <ele>106.84</ele>
        <time>2016-09-17T13:54:05Z</time>
      </trkpt>
      <trkpt lat="48.38085" lon="2.7209">
        <ele>107.32</ele>
        <time>2016-09-17T13:54:14Z</time>
      </trkpt>
      <trkpt lat="48.38085" lon="2.72087">
        <ele>106.84</ele>
        <time>2016-09-17T13:54:16Z</time>
      </trkpt>
      <trkpt lat="48.38085" lon="2.72068">
        <ele>106.84</ele>
        <time>2016-09-17T13:54:25Z</time>
      </trkpt>
      <trkpt lat="48.38086" lon="2.72054">
        <ele>107.32</ele>
        <time>2016-09-17T13:54:32Z</time>
      </trkpt>
      <trkpt lat="48.38088" lon="2.72038">
        <ele>107.32</ele>
        <time>2016-09-17T13:54:42Z</time>
      </trkpt>
      <trkpt lat="48.38088" lon="2.72033">
        <ele>107.32</ele>
        <time>2016-09-17T13:54:46Z</time>
      </trkpt>
      <trkpt lat="48.38087" lon="2.72027">
        <ele>107.81</ele>
        <time>2016-09-17T13:54:52Z</time>
      </trkpt>
      <trkpt lat="48.38087" lon="2.72023">
        <ele>107.81</ele>
        <time>2016-09-17T13:54:55Z</time>
      </trkpt>
      <trkpt lat="48.38088" lon="2.72015">
        <ele>107.81</ele>
        <time>2016-09-17T13:55:00Z</time>
      </trkpt>
      <trkpt lat="48.38088" lon="2.72007">
        <ele>107.81</ele>
        <time>2016-09-17T13:55:08Z</time>
      </trkpt>
      <trkpt lat="48.38089" lon="2.72002">
        <ele>107.81</ele>
        <time>2016-09-17T13:55:11Z</time>
      </trkpt>
      <trkpt lat="48.3809" lon="2.71987">
        <ele>108.29</ele>
        <time>2016-09-17T13:55:19Z</time>
      </trkpt>
      <trkpt lat="48.38091" lon="2.71974">
        <ele>108.29</ele>
        <time>2016-09-17T13:55:26Z</time>
      </trkpt>
      <trkpt lat="48.38094" lon="2.71959">
        <ele>108.29</ele>
        <time>2016-09-17T13:55:34Z</time>
      </trkpt>
      <trkpt lat="48.38097" lon="2.71946">
        <ele>108.77</ele>
        <time>2016-09-17T13:55:41Z</time>
      </trkpt>
      <trkpt lat="48.38099" lon="2.71939">
        <ele>108.77</ele>
        <time>2016-09-17T13:55:45Z</time>
      </trkpt>
      <trkpt lat="48.381" lon="2.71933">
        <ele>108.77</ele>
        <time>2016-09-17T13:55:48Z</time>
      </trkpt>
      <trkpt lat="48.38104" lon="2.71914">
        <ele>108.77</ele>
        <time>2016-09-17T13:55:58Z</time>
      </trkpt>
      <trkpt lat="48.38105" lon="2.71898">
        <ele>109.25</ele>
        <time>2016-09-17T13:56:07Z</time>
      </trkpt>
      <trkpt lat="48.38104" lon="2.71885">
        <ele>109.73</ele>
        <time>2016-09-17T13:56:15Z</time>
      </trkpt>
      <trkpt lat="48.38105" lon="2.71883">
        <ele>109.25</ele>
        <time>2016-09-17T13:56:16Z</time>
      </trkpt>
      <trkpt lat="48.38107" lon="2.71871">
        <ele>109.73</ele>
        <time>2016-09-17T13:56:24Z</time>
      </trkpt>
      <trkpt lat="48.38108" lon="2.71858">
        <ele>110.21</ele>
        <time>2016-09-17T13:56:31Z</time>
      </trkpt>
      <trkpt lat="48.38109" lon="2.71845">
        <ele>110.21</ele>
        <time>2016-09-17T13:56:38Z</time>
      </trkpt>
      <trkpt lat="48.3811" lon="2.71838">
        <ele>110.21</ele>
        <time>2016-09-17T13:56:42Z</time>
      </trkpt>
      <trkpt lat="48.38114" lon="2.71821">
        <ele>110.69</ele>
        <time>2016-09-17T13:56:51Z</time>
      </trkpt>
      <trkpt lat="48.38114" lon="2.71813">
        <ele>110.69</ele>
        <time>2016-09-17T13:56:57Z</time>
      </trkpt>
      <trkpt lat="48.38113" lon="2.71811">
        <ele>110.69</ele>
        <time>2016-09-17T13:57:04Z</time>
      </trkpt>
      <trkpt lat="48.38111" lon="2.71808">
        <ele>110.21</ele>
        <time>2016-09-17T13:57:13Z</time>
      </trkpt>
      <trkpt lat="48.3811" lon="2.71808">
        <ele>110.21</ele>
        <time>2016-09-17T13:57:26Z</time>
      </trkpt>
      <trkpt lat="48.3811" lon="2.71807">
        <ele>109.73</ele>
        <time>2016-09-17T13:57:42Z</time>
      </trkpt>
      <trkpt lat="48.3811" lon="2.71806">
        <ele>109.73</ele>
        <time>2016-09-17T13:57:57Z</time>
      </trkpt>
      <trkpt lat="48.3811" lon="2.71806">
        <ele>109.73</ele>
        <time>2016-09-17T13:58:09Z</time>
      </trkpt>
      <trkpt lat="48.3811" lon="2.71807">
        <ele>109.73</ele>
        <time>2016-09-17T13:58:23Z</time>
      </trkpt>
      <trkpt lat="48.38109" lon="2.71806">
        <ele>110.21</ele>
        <time>2016-09-17T13:58:42Z</time>
      </trkpt>
      <trkpt lat="48.3811" lon="2.71804">
        <ele>110.69</ele>
        <time>2016-09-17T13:58:55Z</time>
      </trkpt>
      <trkpt lat="48.3811" lon="2.71803">
        <ele>110.69</ele>
        <time>2016-09-17T13:59:03Z</time>
      </trkpt>
      <trkpt lat="48.3811" lon="2.71802">
        <ele>110.69</ele>
        <time>2016-09-17T13:59:11Z</time>
      </trkpt>
      <trkpt lat="48.38109" lon="2.718">
        <ele>110.69</ele>
        <time>2016-09-17T13:59:30Z</time>
      </trkpt>
      <trkpt lat="48.38109" lon="2.718">
        <ele>110.21</ele>
        <time>2016-09-17T13:59:48Z</time>
      </trkpt>
      <trkpt lat="48.38109" lon="2.71799">
        <ele>110.21</ele>
        <time>2016-09-17T14:00:04Z</time>
      </trkpt>
      <trkpt lat="48.38109" lon="2.71799">
        <ele>110.21</ele>
        <time>2016-09-17T14:00:19Z</time>
      </trkpt>
      <trkpt lat="48.38109" lon="2.71798">
        <ele>110.21</ele>
        <time>2016-09-17T14:00:31Z</time>
      </trkpt>
      <trkpt lat="48.38109" lon="2.71798">
        <ele>110.21</ele>
        <time>2016-09-17T14:00:44Z</time>
      </trkpt>
      <trkpt lat="48.38109" lon="2.71797">
        <ele>110.21</ele>
        <time>2016-09-17T14:01:03Z</time>
      </trkpt>
      <trkpt lat="48.38109" lon="2.71796">
        <ele>110.21</ele>
        <time>2016-09-17T14:01:20Z</time>
      </trkpt>
      <trkpt lat="48.38109" lon="2.71796">
        <ele>109.25</ele>
        <time>2016-09-17T14:01:35Z</time>
      </trkpt>
      <trkpt lat="48.38109" lon="2.71796">
        <ele>109.25</ele>
        <time>2016-09-17T14:01:41Z</time>
      </trkpt>
      <trkpt lat="48.38111" lon="2.71795">
        <ele>109.73</ele>
        <time>2016-09-17T14:01:49Z</time>
      </trkpt>
      <trkpt lat="48.38111" lon="2.71793">
        <ele>109.25</ele>
        <time>2016-09-17T14:01:51Z</time>
      </trkpt>
      <trkpt lat="48.38112" lon="2.7179">
        <ele>109.73</ele>
        <time>2016-09-17T14:01:54Z</time>
      </trkpt>
      <trkpt lat="48.38112" lon="2.71787">
        <ele>109.73</ele>
        <time>2016-09-17T14:01:57Z</time>
      </trkpt>
      <trkpt lat="48.38113" lon="2.71781">
        <ele>109.73</ele>
        <time>2016-09-17T14:02:02Z</time>
      </trkpt>
      <trkpt lat="48.38115" lon="2.71769">
        <ele>109.73</ele>
        <time>2016-09-17T14:02:10Z</time>
      </trkpt>
      <trkpt lat="48.38116" lon="2.71755">
        <ele>109.73</ele>
        <time>2016-09-17T14:02:18Z</time>
      </trkpt>
      <trkpt lat="48.38117" lon="2.71747">
        <ele>110.21</ele>
        <time>2016-09-17T14:02:23Z</time>
      </trkpt>
      <trkpt lat="48.38119" lon="2.71739">
        <ele>110.21</ele>
        <time>2016-09-17T14:02:29Z</time>
      </trkpt>
      <trkpt lat="48.38121" lon="2.71722">
        <ele>110.69</ele>
        <time>2016-09-17T14:02:39Z</time>
      </trkpt>
      <trkpt lat="48.38121" lon="2.71718">
        <ele>110.69</ele>
        <time>2016-09-17T14:02:41Z</time>
      </trkpt>
      <trkpt lat="48.38122" lon="2.7171">
        <ele>110.69</ele>
        <time>2016-09-17T14:02:46Z</time>
      </trkpt>
      <trkpt lat="48.38124" lon="2.71698">
        <ele>110.69</ele>
        <time>2016-09-17T14:02:53Z</time>
      </trkpt>
      <trkpt lat="48.38126" lon="2.71685">
        <ele>111.17</ele>
        <time>2016-09-17T14:03:00Z</time>
      </trkpt>
      <trkpt lat="48.38128" lon="2.71671">
        <ele>111.17</ele>
        <time>2016-09-17T14:03:08Z</time>
      </trkpt>
      <trkpt lat="48.38131" lon="2.71656">
        <ele>111.65</ele>
        <time>2016-09-17T14:03:16Z</time>
      </trkpt>
      <trkpt lat="48.38132" lon="2.71641">
        <ele>112.13</ele>
        <time>2016-09-17T14:03:25Z</time>
      </trkpt>
      <trkpt lat="48.38133" lon="2.71633">
        <ele>112.13</ele>
        <time>2016-09-17T14:03:29Z</time>
      </trkpt>
      <trkpt lat="48.38135" lon="2.71622">
        <ele>112.13</ele>
        <time>2016-09-17T14:03:36Z</time>
      </trkpt>
      <trkpt lat="48.38137" lon="2.71615">
        <ele>112.61</ele>
        <time>2016-09-17T14:03:40Z</time>
      </trkpt>
      <trkpt lat="48.38138" lon="2.71603">
        <ele>112.61</ele>
        <time>2016-09-17T14:03:47Z</time>
      </trkpt>
      <trkpt lat="48.38139" lon="2.71595">
        <ele>112.61</ele>
        <time>2016-09-17T14:03:51Z</time>
      </trkpt>
      <trkpt lat="48.38139" lon="2.71584">
        <ele>113.09</ele>
        <time>2016-09-17T14:03:58Z</time>
      </trkpt>
      <trkpt lat="48.38139" lon="2.71582">
        <ele>113.09</ele>
        <time>2016-09-17T14:03:59Z</time>
      </trkpt>
      <trkpt lat="48.38141" lon="2.71572">
        <ele>113.09</ele>
        <time>2016-09-17T14:04:05Z</time>
      </trkpt>
      <trkpt lat="48.38143" lon="2.71559">
        <ele>113.57</ele>
        <time>2016-09-17T14:04:12Z</time>
      </trkpt>
      <trkpt lat="48.38144" lon="2.71551">
        <ele>113.57</ele>
        <time>2016-09-17T14:04:17Z</time>
      </trkpt>
      <trkpt lat="48.38146" lon="2.71547">
        <ele>113.57</ele>
        <time>2016-09-17T14:04:20Z</time>
      </trkpt>
      <trkpt lat="48.38148" lon="2.71535">
        <ele>114.05</ele>
        <time>2016-09-17T14:04:27Z</time>
      </trkpt>
      <trkpt lat="48.3815" lon="2.71524">
        <ele>114.53</ele>
        <time>2016-09-17T14:04:33Z</time>
      </trkpt>
      <trkpt lat="48.38151" lon="2.7152">
        <ele>114.05</ele>
        <time>2016-09-17T14:04:35Z</time>
      </trkpt>
      <trkpt lat="48.38152" lon="2.71509">
        <ele>114.53</ele>
        <time>2016-09-17T14:04:41Z</time>
      </trkpt>
      <trkpt lat="48.38152" lon="2.71506">
        <ele>114.53</ele>
        <time>2016-09-17T14:04:43Z</time>
      </trkpt>
      <trkpt lat="48.38156" lon="2.71494">
        <ele>115.01</ele>
        <time>2016-09-17T14:04:50Z</time>
      </trkpt>
      <trkpt lat="48.38157" lon="2.71489">
        <ele>115.01</ele>
        <time>2016-09-17T14:04:53Z</time>
      </trkpt>
      <trkpt lat="48.38159" lon="2.71476">
        <ele>115.5</ele>
        <time>2016-09-17T14:05:00Z</time>
      </trkpt>
      <trkpt lat="48.3816" lon="2.7147">
        <ele>115.98</ele>
        <time>2016-09-17T14:05:04Z</time>
      </trkpt>
      <trkpt lat="48.38164" lon="2.71453">
        <ele>116.46</ele>
        <time>2016-09-17T14:05:13Z</time>
      </trkpt>
      <trkpt lat="48.38167" lon="2.71441">
        <ele>116.46</ele>
        <time>2016-09-17T14:05:20Z</time>
      </trkpt>
      <trkpt lat="48.3817" lon="2.7143">
        <ele>116.94</ele>
        <time>2016-09-17T14:05:26Z</time>
      </trkpt>
      <trkpt lat="48.38174" lon="2.71412">
        <ele>117.42</ele>
        <time>2016-09-17T14:05:35Z</time>
      </trkpt>
      <trkpt lat="48.38176" lon="2.71402">
        <ele>117.42</ele>
        <time>2016-09-17T14:05:41Z</time>
      </trkpt>
      <trkpt lat="48.38176" lon="2.714">
        <ele>117.9</ele>
        <time>2016-09-17T14:05:42Z</time>
      </trkpt>
      <trkpt lat="48.38179" lon="2.7139">
        <ele>117.9</ele>
        <time>2016-09-17T14:05:48Z</time>
      </trkpt>
      <trkpt lat="48.38179" lon="2.71389">
        <ele>118.38</ele>
        <time>2016-09-17T14:05:49Z</time>
      </trkpt>
      <trkpt lat="48.3818" lon="2.71386">
        <ele>118.38</ele>
        <time>2016-09-17T14:05:51Z</time>
      </trkpt>
      <trkpt lat="48.38183" lon="2.71375">
        <ele>118.38</ele>
        <time>2016-09-17T14:05:57Z</time>
      </trkpt>
      <trkpt lat="48.38185" lon="2.71361">
        <ele>118.86</ele>
        <time>2016-09-17T14:06:04Z</time>
      </trkpt>
      <trkpt lat="48.38187" lon="2.71352">
        <ele>118.86</ele>
        <time>2016-09-17T14:06:09Z</time>
      </trkpt>
      <trkpt lat="48.38188" lon="2.71339">
        <ele>119.34</ele>
        <time>2016-09-17T14:06:16Z</time>
      </trkpt>
      <trkpt lat="48.38189" lon="2.71337">
        <ele>119.82</ele>
        <time>2016-09-17T14:06:17Z</time>
      </trkpt>
      <trkpt lat="48.3819" lon="2.71331">
        <ele>119.82</ele>
        <time>2016-09-17T14:06:21Z</time>
      </trkpt>
      <trkpt lat="48.38193" lon="2.71317">
        <ele>120.3</ele>
        <time>2016-09-17T14:06:29Z</time>
      </trkpt>
      <trkpt lat="48.38193" lon="2.7131">
        <ele>120.78</ele>
        <time>2016-09-17T14:06:33Z</time>
      </trkpt>
      <trkpt lat="48.38196" lon="2.71305">
        <ele>120.78</ele>
        <time>2016-09-17T14:06:36Z</time>
      </trkpt>
      <trkpt lat="48.38203" lon="2.71305">
        <ele>121.74</ele>
        <time>2016-09-17T14:06:42Z</time>
      </trkpt>
      <trkpt lat="48.38208" lon="2.71314">
        <ele>122.22</ele>
        <time>2016-09-17T14:06:50Z</time>
      </trkpt>
      <trkpt lat="48.38208" lon="2.71316">
        <ele>122.22</ele>
        <time>2016-09-17T14:06:52Z</time>
      </trkpt>
      <trkpt lat="48.38209" lon="2.71324">
        <ele>123.19</ele>
        <time>2016-09-17T14:07:00Z</time>
      </trkpt>
      <trkpt lat="48.38212" lon="2.71328">
        <ele>123.67</ele>
        <time>2016-09-17T14:07:05Z</time>
      </trkpt>
      <trkpt lat="48.38215" lon="2.71336">
        <ele>124.15</ele>
        <time>2016-09-17T14:07:11Z</time>
      </trkpt>
      <trkpt lat="48.38217" lon="2.7134">
        <ele>124.63</ele>
        <time>2016-09-17T14:07:13Z</time>
      </trkpt>
      <trkpt lat="48.38222" lon="2.71349">
        <ele>125.11</ele>
        <time>2016-09-17T14:07:20Z</time>
      </trkpt>
      <trkpt lat="48.38223" lon="2.71351">
        <ele>125.59</ele>
        <time>2016-09-17T14:07:23Z</time>
      </trkpt>
      <trkpt lat="48.38226" lon="2.71357">
        <ele>126.55</ele>
        <time>2016-09-17T14:07:29Z</time>
      </trkpt>
      <trkpt lat="48.38229" lon="2.71364">
        <ele>127.51</ele>
        <time>2016-09-17T14:07:36Z</time>
      </trkpt>
      <trkpt lat="48.38232" lon="2.7137">
        <ele>127.51</ele>
        <time>2016-09-17T14:07:42Z</time>
      </trkpt>
      <trkpt lat="48.38237" lon="2.71377">
        <ele>127.99</ele>
        <time>2016-09-17T14:07:49Z</time>
      </trkpt>
      <trkpt lat="48.38239" lon="2.71378">
        <ele>129.43</ele>
        <time>2016-09-17T14:07:54Z</time>
      </trkpt>
      <trkpt lat="48.3824" lon="2.71379">
        <ele>129.43</ele>
        <time>2016-09-17T14:07:56Z</time>
      </trkpt>
      <trkpt lat="48.38246" lon="2.71373">
        <ele>129.92</ele>
        <time>2016-09-17T14:08:04Z</time>
      </trkpt>
      <trkpt lat="48.38248" lon="2.71368">
        <ele>130.4</ele>
        <time>2016-09-17T14:08:11Z</time>
      </trkpt>
      <trkpt lat="48.38252" lon="2.71364">
        <ele>131.36</ele>
        <time>2016-09-17T14:08:18Z</time>
      </trkpt>
      <trkpt lat="48.38252" lon="2.71362">
        <ele>131.36</ele>
        <time>2016-09-17T14:08:25Z</time>
      </trkpt>
      <trkpt lat="48.38253" lon="2.71358">
        <ele>133.28</ele>
        <time>2016-09-17T14:08:32Z</time>
      </trkpt>
      <trkpt lat="48.38256" lon="2.71353">
        <ele>133.76</ele>
        <time>2016-09-17T14:08:39Z</time>
      </trkpt>
      <trkpt lat="48.38255" lon="2.71347">
        <ele>134.72</ele>
        <time>2016-09-17T14:08:45Z</time>
      </trkpt>
      <trkpt lat="48.38253" lon="2.71344">
        <ele>134.72</ele>
        <time>2016-09-17T14:08:51Z</time>
      </trkpt>
      <trkpt lat="48.3825" lon="2.7134">
        <ele>134.24</ele>
        <time>2016-09-17T14:08:56Z</time>
      </trkpt>
      <trkpt lat="48.3825" lon="2.71332">
        <ele>133.76</ele>
        <time>2016-09-17T14:09:02Z</time>
      </trkpt>
      <trkpt lat="48.3825" lon="2.71331">
        <ele>134.24</ele>
        <time>2016-09-17T14:09:03Z</time>
      </trkpt>
      <trkpt lat="48.3825" lon="2.71324">
        <ele>134.24</ele>
        <time>2016-09-17T14:09:07Z</time>
      </trkpt>
      <trkpt lat="48.3825" lon="2.71316">
        <ele>134.72</ele>
        <time>2016-09-17T14:09:11Z</time>
      </trkpt>
      <trkpt lat="48.38253" lon="2.71305">
        <ele>135.2</ele>
        <time>2016-09-17T14:09:18Z</time>
      </trkpt>
      <trkpt lat="48.38256" lon="2.71295">
        <ele>136.64</ele>
        <time>2016-09-17T14:09:26Z</time>
      </trkpt>
      <trkpt lat="48.38258" lon="2.71288">
        <ele>137.61</ele>
        <time>2016-09-17T14:09:31Z</time>
      </trkpt>
      <trkpt lat="48.38259" lon="2.71283">
        <ele>138.09</ele>
        <time>2016-09-17T14:09:35Z</time>
      </trkpt>
      <trkpt lat="48.38262" lon="2.71273">
        <ele>139.05</ele>
        <time>2016-09-17T14:09:43Z</time>
      </trkpt>
      <trkpt lat="48.38264" lon="2.71265">
        <ele>139.53</ele>
        <time>2016-09-17T14:09:49Z</time>
      </trkpt>
      <trkpt lat="48.38267" lon="2.7126">
        <ele>140.97</ele>
        <time>2016-09-17T14:09:58Z</time>
      </trkpt>
      <trkpt lat="48.3827" lon="2.71256">
        <ele>141.93</ele>
        <time>2016-09-17T14:10:04Z</time>
      </trkpt>
      <trkpt lat="48.38271" lon="2.71251">
        <ele>141.93</ele>
        <time>2016-09-17T14:10:10Z</time>
      </trkpt>
      <trkpt lat="48.38273" lon="2.71246">
        <ele>143.37</ele>
        <time>2016-09-17T14:10:17Z</time>
      </trkpt>
      <trkpt lat="48.38276" lon="2.71243">
        <ele>144.82</ele>
        <time>2016-09-17T14:10:24Z</time>
      </trkpt>
      <trkpt lat="48.38278" lon="2.71241">
        <ele>145.78</ele>
        <time>2016-09-17T14:10:29Z</time>
      </trkpt>
      <trkpt lat="48.3828" lon="2.71241">
        <ele>145.3</ele>
        <time>2016-09-17T14:10:34Z</time>
      </trkpt>
      <trkpt lat="48.3828" lon="2.71241">
        <ele>145.3</ele>
        <time>2016-09-17T14:10:44Z</time>
      </trkpt>
      <trkpt lat="48.38281" lon="2.71241">
        <ele>145.78</ele>
        <time>2016-09-17T14:10:55Z</time>
      </trkpt>
      <trkpt lat="48.38282" lon="2.71242">
        <ele>145.3</ele>
        <time>2016-09-17T14:11:00Z</time>
      </trkpt>
      <trkpt lat="48.38283" lon="2.71241">
        <ele>145.3</ele>
        <time>2016-09-17T14:11:09Z</time>
      </trkpt>
      <trkpt lat="48.38283" lon="2.71241">
        <ele>145.3</ele>
        <time>2016-09-17T14:11:20Z</time>
      </trkpt>
      <trkpt lat="48.38282" lon="2.7124">
        <ele>144.82</ele>
        <time>2016-09-17T14:11:29Z</time>
      </trkpt>
      <trkpt lat="48.38283" lon="2.71239">
        <ele>144.82</ele>
        <time>2016-09-17T14:11:37Z</time>
      </trkpt>
      <trkpt lat="48.38283" lon="2.71239">
        <ele>144.82</ele>
        <time>2016-09-17T14:11:46Z</time>
      </trkpt>
      <trkpt lat="48.38283" lon="2.71239">
        <ele>144.82</ele>
        <time>2016-09-17T14:11:55Z</time>
      </trkpt>
      <trkpt lat="48.38283" lon="2.71238">
        <ele>144.82</ele>
        <time>2016-09-17T14:12:05Z</time>
      </trkpt>
      <trkpt lat="48.38283" lon="2.71238">
        <ele>144.82</ele>
        <time>2016-09-17T14:12:18Z</time>
      </trkpt>
      <trkpt lat="48.38283" lon="2.71238">
        <ele>144.34</ele>
        <time>2016-09-17T14:12:27Z</time>
      </trkpt>
      <trkpt lat="48.38283" lon="2.71238">
        <ele>144.34</ele>
        <time>2016-09-17T14:12:34Z</time>
      </trkpt>
      <trkpt lat="48.38283" lon="2.71238">
        <ele>144.34</ele>
        <time>2016-09-17T14:12:41Z</time>
      </trkpt>
      <trkpt lat="48.38283" lon="2.71238">
        <ele>144.34</ele>
        <time>2016-09-17T14:12:50Z</time>
      </trkpt>
      <trkpt lat="48.38283" lon="2.71237">
        <ele>144.34</ele>
        <time>2016-09-17T14:13:01Z</time>
      </trkpt>
      <trkpt lat="48.38283" lon="2.71237">
        <ele>144.34</ele>
        <time>2016-09-17T14:13:11Z</time>
      </trkpt>
      <trkpt lat="48.38283" lon="2.71237">
        <ele>144.34</ele>
        <time>2016-09-17T14:13:24Z</time>
      </trkpt>
      <trkpt lat="48.38283" lon="2.71237">
        <ele>143.85</ele>
        <time>2016-09-17T14:13:37Z</time>
      </trkpt>
      <trkpt lat="48.38282" lon="2.71238">
        <ele>143.85</ele>
        <time>2016-09-17T14:13:52Z</time>
      </trkpt>
      <trkpt lat="48.38282" lon="2.71237">
        <ele>143.85</ele>
        <time>2016-09-17T14:14:06Z</time>
      </trkpt>
      <trkpt lat="48.38283" lon="2.71238">
        <ele>143.85</ele>
        <time>2016-09-17T14:14:17Z</time>
      </trkpt>
      <trkpt lat="48.38284" lon="2.71239">
        <ele>143.85</ele>
        <time>2016-09-17T14:14:25Z</time>
      </trkpt>
      <trkpt lat="48.38285" lon="2.71239">
        <ele>143.85</ele>
        <time>2016-09-17T14:14:34Z</time>
      </trkpt>
      <trkpt lat="48.38285" lon="2.71239">
        <ele>143.85</ele>
        <time>2016-09-17T14:14:43Z</time>
      </trkpt>
      <trkpt lat="48.38286" lon="2.71239">
        <ele>143.37</ele>
        <time>2016-09-17T14:14:53Z</time>
      </trkpt>
      <trkpt lat="48.38286" lon="2.71239">
        <ele>143.37</ele>
        <time>2016-09-17T14:15:00Z</time>
      </trkpt>
      <trkpt lat="48.38286" lon="2.7124">
        <ele>143.37</ele>
        <time>2016-09-17T14:15:10Z</time>
      </trkpt>
      <trkpt lat="48.38286" lon="2.71239">
        <ele>143.37</ele>
        <time>2016-09-17T14:15:19Z</time>
      </trkpt>
      <trkpt lat="48.38286" lon="2.71239">
        <ele>142.41</ele>
        <time>2016-09-17T14:15:29Z</time>
      </trkpt>
      <trkpt lat="48.38286" lon="2.71238">
        <ele>138.57</ele>
        <time>2016-09-17T14:15:36Z</time>
      </trkpt>
      <trkpt lat="48.38286" lon="2.71238">
        <ele>142.41</ele>
        <time>2016-09-17T14:15:37Z</time>
      </trkpt>
      <trkpt lat="48.38286" lon="2.71239">
        <ele>143.37</ele>
        <time>2016-09-17T14:15:42Z</time>
      </trkpt>
      <trkpt lat="48.38286" lon="2.71239">
        <ele>141.93</ele>
        <time>2016-09-17T14:15:53Z</time>
      </trkpt>
      <trkpt lat="48.38286" lon="2.71239">
        <ele>142.89</ele>
        <time>2016-09-17T14:16:00Z</time>
      </trkpt>
      <trkpt lat="48.38286" lon="2.71238">
        <ele>142.89</ele>
        <time>2016-09-17T14:16:12Z</time>
      </trkpt>
      <trkpt lat="48.38286" lon="2.71239">
        <ele>142.89</ele>
        <time>2016-09-17T14:16:22Z</time>
      </trkpt>
      <trkpt lat="48.38286" lon="2.71239">
        <ele>142.89</ele>
        <time>2016-09-17T14:16:37Z</time>
      </trkpt>
      <trkpt lat="48.38285" lon="2.71239">
        <ele>142.89</ele>
        <time>2016-09-17T14:16:49Z</time>
      </trkpt>
      <trkpt lat="48.38286" lon="2.71238">
        <ele>143.37</ele>
        <time>2016-09-17T14:17:01Z</time>
      </trkpt>
      <trkpt lat="48.38286" lon="2.71238">
        <ele>142.89</ele>
        <time>2016-09-17T14:17:11Z</time>
      </trkpt>
      <trkpt lat="48.38286" lon="2.71239">
        <ele>142.41</ele>
        <time>2016-09-17T14:17:22Z</time>
      </trkpt>
      <trkpt lat="48.38286" lon="2.71239">
        <ele>142.89</ele>
        <time>2016-09-17T14:17:38Z</time>
      </trkpt>
      <trkpt lat="48.38286" lon="2.71239">
        <ele>142.89</ele>
        <time>2016-09-17T14:17:48Z</time>
      </trkpt>
      <trkpt lat="48.38286" lon="2.71239">
        <ele>141.45</ele>
        <time>2016-09-17T14:17:56Z</time>
      </trkpt>
      <trkpt lat="48.38286" lon="2.71239">
        <ele>142.41</ele>
        <time>2016-09-17T14:18:00Z</time>
      </trkpt>
      <trkpt lat="48.38286" lon="2.71238">
        <ele>142.41</ele>
        <time>2016-09-17T14:18:10Z</time>
      </trkpt>
      <trkpt lat="48.38286" lon="2.71237">
        <ele>142.41</ele>
        <time>2016-09-17T14:18:19Z</time>
      </trkpt>
      <trkpt lat="48.38285" lon="2.71238">
        <ele>142.41</ele>
        <time>2016-09-17T14:18:26Z</time>
      </trkpt>
      <trkpt lat="48.38286" lon="2.71238">
        <ele>142.41</ele>
        <time>2016-09-17T14:18:34Z</time>
      </trkpt>
      <trkpt lat="48.38285" lon="2.71239">
        <ele>142.41</ele>
        <time>2016-09-17T14:18:48Z</time>
      </trkpt>
      <trkpt lat="48.38285" lon="2.71239">
        <ele>141.93</ele>
        <time>2016-09-17T14:19:00Z</time>
      </trkpt>
      <trkpt lat="48.38285" lon="2.71239">
        <ele>142.41</ele>
        <time>2016-09-17T14:19:13Z</time>
      </trkpt>
      <trkpt lat="48.38285" lon="2.71239">
        <ele>141.93</ele>
        <time>2016-09-17T14:19:28Z</time>
      </trkpt>
      <trkpt lat="48.38285" lon="2.7124">
        <ele>141.93</ele>
        <time>2016-09-17T14:19:37Z</time>
      </trkpt>
      <trkpt lat="48.38285" lon="2.71239">
        <ele>141.93</ele>
        <time>2016-09-17T14:19:50Z</time>
      </trkpt>
      <trkpt lat="48.38285" lon="2.71241">
        <ele>141.45</ele>
        <time>2016-09-17T14:20:09Z</time>
      </trkpt>
      <trkpt lat="48.38285" lon="2.7124">
        <ele>141.45</ele>
        <time>2016-09-17T14:20:23Z</time>
      </trkpt>
      <trkpt lat="48.38285" lon="2.71239">
        <ele>141.45</ele>
        <time>2016-09-17T14:20:36Z</time>
      </trkpt>
      <trkpt lat="48.38285" lon="2.71239">
        <ele>140.97</ele>
        <time>2016-09-17T14:20:52Z</time>
      </trkpt>
      <trkpt lat="48.38285" lon="2.7124">
        <ele>140.97</ele>
        <time>2016-09-17T14:21:05Z</time>
      </trkpt>
      <trkpt lat="48.38286" lon="2.71241">
        <ele>140.97</ele>
        <time>2016-09-17T14:21:16Z</time>
      </trkpt>
      <trkpt lat="48.38285" lon="2.7124">
        <ele>140.97</ele>
        <time>2016-09-17T14:21:29Z</time>
      </trkpt>
      <trkpt lat="48.38285" lon="2.7124">
        <ele>140.97</ele>
        <time>2016-09-17T14:21:43Z</time>
      </trkpt>
      <trkpt lat="48.38285" lon="2.7124">
        <ele>140.49</ele>
        <time>2016-09-17T14:21:57Z</time>
      </trkpt>
      <trkpt lat="48.38284" lon="2.71241">
        <ele>140.49</ele>
        <time>2016-09-17T14:22:12Z</time>
      </trkpt>
      <trkpt lat="48.38284" lon="2.71241">
        <ele>140.49</ele>
        <time>2016-09-17T14:22:22Z</time>
      </trkpt>
      <trkpt lat="48.38284" lon="2.7124">
        <ele>140.49</ele>
        <time>2016-09-17T14:22:31Z</time>
      </trkpt>
      <trkpt lat="48.38284" lon="2.7124">
        <ele>140.49</ele>
        <time>2016-09-17T14:22:43Z</time>
      </trkpt>
      <trkpt lat="48.38284" lon="2.7124">
        <ele>140.01</ele>
        <time>2016-09-17T14:22:57Z</time>
      </trkpt>
      <trkpt lat="48.38284" lon="2.7124">
        <ele>140.01</ele>
        <time>2016-09-17T14:23:08Z</time>
      </trkpt>
      <trkpt lat="48.38284" lon="2.71239">
        <ele>140.01</ele>
        <time>2016-09-17T14:23:23Z</time>
      </trkpt>
      <trkpt lat="48.38284" lon="2.71239">
        <ele>139.53</ele>
        <time>2016-09-17T14:23:41Z</time>
      </trkpt>
      <trkpt lat="48.38284" lon="2.7124">
        <ele>139.53</ele>
        <time>2016-09-17T14:23:54Z</time>
      </trkpt>
      <trkpt lat="48.38284" lon="2.7124">
        <ele>139.53</ele>
        <time>2016-09-17T14:24:07Z</time>
      </trkpt>
      <trkpt lat="48.38284" lon="2.7124">
        <ele>140.01</ele>
        <time>2016-09-17T14:24:23Z</time>
      </trkpt>
      <trkpt lat="48.38284" lon="2.7124">
        <ele>139.53</ele>
        <time>2016-09-17T14:24:34Z</time>
      </trkpt>
      <trkpt lat="48.38284" lon="2.7124">
        <ele>139.53</ele>
        <time>2016-09-17T14:24:44Z</time>
      </trkpt>
      <trkpt lat="48.38284" lon="2.7124">
        <ele>139.53</ele>
        <time>2016-09-17T14:25:01Z</time>
      </trkpt>
      <trkpt lat="48.38283" lon="2.71239">
        <ele>139.05</ele>
        <time>2016-09-17T14:25:17Z</time>
      </trkpt>
      <trkpt lat="48.38283" lon="2.71238">
        <ele>139.05</ele>
        <time>2016-09-17T14:25:33Z</time>
      </trkpt>
      <trkpt lat="48.38282" lon="2.71237">
        <ele>139.05</ele>
        <time>2016-09-17T14:25:48Z</time>
      </trkpt>
      <trkpt lat="48.38283" lon="2.71237">
        <ele>139.53</ele>
        <time>2016-09-17T14:25:59Z</time>
      </trkpt>
      <trkpt lat="48.38283" lon="2.71237">
        <ele>139.05</ele>
        <time>2016-09-17T14:26:10Z</time>
      </trkpt>
      <trkpt lat="48.38283" lon="2.71238">
        <ele>138.57</ele>
        <time>2016-09-17T14:26:26Z</time>
      </trkpt>
      <trkpt lat="48.38283" lon="2.71239">
        <ele>138.57</ele>
        <time>2016-09-17T14:26:39Z</time>
      </trkpt>
      <trkpt lat="48.38283" lon="2.71239">
        <ele>138.57</ele>
        <time>2016-09-17T14:26:49Z</time>
      </trkpt>
      <trkpt lat="48.38283" lon="2.71239">
        <ele>138.57</ele>
        <time>2016-09-17T14:26:59Z</time>
      </trkpt>
      <trkpt lat="48.38283" lon="2.71239">
        <ele>138.57</ele>
        <time>2016-09-17T14:27:12Z</time>
      </trkpt>
      <trkpt lat="48.38284" lon="2.71239">
        <ele>138.57</ele>
        <time>2016-09-17T14:27:23Z</time>
      </trkpt>
      <trkpt lat="48.38284" lon="2.71238">
        <ele>138.09</ele>
        <time>2016-09-17T14:27:36Z</time>
      </trkpt>
      <trkpt lat="48.38284" lon="2.71239">
        <ele>138.09</ele>
        <time>2016-09-17T14:27:48Z</time>
      </trkpt>
      <trkpt lat="48.38285" lon="2.71239">
        <ele>138.09</ele>
        <time>2016-09-17T14:27:55Z</time>
      </trkpt>
      <trkpt lat="48.38285" lon="2.71239">
        <ele>138.57</ele>
        <time>2016-09-17T14:28:04Z</time>
      </trkpt>
      <trkpt lat="48.38286" lon="2.71239">
        <ele>138.57</ele>
        <time>2016-09-17T14:28:13Z</time>
      </trkpt>
      <trkpt lat="48.38286" lon="2.7124">
        <ele>138.57</ele>
        <time>2016-09-17T14:28:25Z</time>
      </trkpt>
      <trkpt lat="48.38286" lon="2.71237">
        <ele>138.09</ele>
        <time>2016-09-17T14:28:36Z</time>
      </trkpt>
      <trkpt lat="48.38286" lon="2.71236">
        <ele>138.57</ele>
        <time>2016-09-17T14:28:45Z</time>
      </trkpt>
      <trkpt lat="48.38286" lon="2.71236">
        <ele>138.09</ele>
        <time>2016-09-17T14:29:01Z</time>
      </trkpt>
      <trkpt lat="48.38286" lon="2.71237">
        <ele>138.09</ele>
        <time>2016-09-17T14:29:15Z</time>
      </trkpt>
      <trkpt lat="48.38286" lon="2.71237">
        <ele>138.57</ele>
        <time>2016-09-17T14:29:29Z</time>
      </trkpt>
      <trkpt lat="48.38287" lon="2.71237">
        <ele>138.09</ele>
        <time>2016-09-17T14:29:46Z</time>
      </trkpt>
      <trkpt lat="48.38286" lon="2.71237">
        <ele>138.09</ele>
        <time>2016-09-17T14:30:00Z</time>
      </trkpt>
      <trkpt lat="48.38286" lon="2.71237">
        <ele>138.09</ele>
        <time>2016-09-17T14:30:13Z</time>
      </trkpt>
      <trkpt lat="48.38286" lon="2.71236">
        <ele>138.09</ele>
        <time>2016-09-17T14:30:25Z</time>
      </trkpt>
      <trkpt lat="48.38286" lon="2.71236">
        <ele>138.09</ele>
        <time>2016-09-17T14:30:42Z</time>
      </trkpt>
      <trkpt lat="48.38286" lon="2.71236">
        <ele>138.09</ele>
        <time>2016-09-17T14:30:58Z</time>
      </trkpt>
      <trkpt lat="48.38286" lon="2.71235">
        <ele>138.09</ele>
        <time>2016-09-17T14:31:13Z</time>
      </trkpt>
      <trkpt lat="48.38287" lon="2.71235">
        <ele>138.09</ele>
        <time>2016-09-17T14:31:23Z</time>
      </trkpt>
      <trkpt lat="48.38286" lon="2.71235">
        <ele>138.09</ele>
        <time>2016-09-17T14:31:37Z</time>
      </trkpt>
      <trkpt lat="48.38286" lon="2.71235">
        <ele>138.09</ele>
        <time>2016-09-17T14:31:54Z</time>
      </trkpt>
      <trkpt lat="48.38286" lon="2.71235">
        <ele>138.09</ele>
        <time>2016-09-17T14:32:06Z</time>
      </trkpt>
      <trkpt lat="48.38286" lon="2.71234">
        <ele>138.09</ele>
        <time>2016-09-17T14:32:21Z</time>
      </trkpt>
      <trkpt lat="48.38286" lon="2.71235">
        <ele>138.09</ele>
        <time>2016-09-17T14:32:35Z</time>
      </trkpt>
      <trkpt lat="48.38286" lon="2.71235">
        <ele>138.57</ele>
        <time>2016-09-17T14:32:50Z</time>
      </trkpt>
      <trkpt lat="48.38286" lon="2.71235">
        <ele>138.09</ele>
        <time>2016-09-17T14:33:05Z</time>
      </trkpt>
      <trkpt lat="48.38286" lon="2.71235">
        <ele>138.09</ele>
        <time>2016-09-17T14:33:20Z</time>
      </trkpt>
      <trkpt lat="48.38286" lon="2.71235">
        <ele>138.09</ele>
        <time>2016-09-17T14:33:36Z</time>
      </trkpt>
      <trkpt lat="48.38286" lon="2.71235">
        <ele>137.61</ele>
        <time>2016-09-17T14:33:47Z</time>
      </trkpt>
      <trkpt lat="48.38286" lon="2.71234">
        <ele>138.57</ele>
        <time>2016-09-17T14:34:00Z</time>
      </trkpt>
      <trkpt lat="48.38286" lon="2.71234">
        <ele>137.61</ele>
        <time>2016-09-17T14:34:17Z</time>
      </trkpt>
      <trkpt lat="48.38286" lon="2.71234">
        <ele>138.09</ele>
        <time>2016-09-17T14:34:33Z</time>
      </trkpt>
      <trkpt lat="48.38286" lon="2.71233">
        <ele>138.09</ele>
        <time>2016-09-17T14:34:46Z</time>
      </trkpt>
      <trkpt lat="48.38286" lon="2.71234">
        <ele>138.09</ele>
        <time>2016-09-17T14:34:56Z</time>
      </trkpt>
      <trkpt lat="48.38286" lon="2.71233">
        <ele>138.09</ele>
        <time>2016-09-17T14:35:10Z</time>
      </trkpt>
      <trkpt lat="48.38285" lon="2.71234">
        <ele>138.09</ele>
        <time>2016-09-17T14:35:22Z</time>
      </trkpt>
      <trkpt lat="48.38285" lon="2.71234">
        <ele>137.61</ele>
        <time>2016-09-17T14:35:37Z</time>
      </trkpt>
      <trkpt lat="48.38285" lon="2.71234">
        <ele>137.61</ele>
        <time>2016-09-17T14:35:52Z</time>
      </trkpt>
      <trkpt lat="48.38285" lon="2.71235">
        <ele>138.09</ele>
        <time>2016-09-17T14:36:09Z</time>
      </trkpt>
      <trkpt lat="48.38286" lon="2.71234">
        <ele>137.61</ele>
        <time>2016-09-17T14:36:26Z</time>
      </trkpt>
      <trkpt lat="48.38286" lon="2.71233">
        <ele>137.61</ele>
        <time>2016-09-17T14:36:43Z</time>
      </trkpt>
      <trkpt lat="48.38286" lon="2.71233">
        <ele>138.09</ele>
        <time>2016-09-17T14:36:59Z</time>
      </trkpt>
      <trkpt lat="48.38286" lon="2.71234">
        <ele>138.09</ele>
        <time>2016-09-17T14:37:07Z</time>
      </trkpt>
      <trkpt lat="48.38285" lon="2.71233">
        <ele>138.09</ele>
        <time>2016-09-17T14:37:23Z</time>
      </trkpt>
      <trkpt lat="48.38285" lon="2.71232">
        <ele>138.09</ele>
        <time>2016-09-17T14:37:24Z</time>
      </trkpt>
      <trkpt lat="48.38284" lon="2.7123">
        <ele>138.09</ele>
        <time>2016-09-17T14:37:31Z</time>
      </trkpt>
      <trkpt lat="48.38284" lon="2.71228">
        <ele>137.61</ele>
        <time>2016-09-17T14:37:39Z</time>
      </trkpt>
      <trkpt lat="48.38284" lon="2.71227">
        <ele>137.61</ele>
        <time>2016-09-17T14:37:51Z</time>
      </trkpt>
      <trkpt lat="48.38284" lon="2.71227">
        <ele>138.09</ele>
        <time>2016-09-17T14:38:08Z</time>
      </trkpt>
      <trkpt lat="48.38284" lon="2.71227">
        <ele>137.61</ele>
        <time>2016-09-17T14:38:25Z</time>
      </trkpt>
      <trkpt lat="48.38283" lon="2.71226">
        <ele>138.09</ele>
        <time>2016-09-17T14:38:38Z</time>
      </trkpt>
      <trkpt lat="48.38284" lon="2.71227">
        <ele>137.61</ele>
        <time>2016-09-17T14:38:49Z</time>
      </trkpt>
      <trkpt lat="48.38284" lon="2.71227">
        <ele>137.61</ele>
        <time>2016-09-17T14:38:58Z</time>
      </trkpt>
      <trkpt lat="48.38287" lon="2.71222">
        <ele>137.61</ele>
        <time>2016-09-17T14:39:06Z</time>
      </trkpt>
      <trkpt lat="48.38288" lon="2.71221">
        <ele>137.61</ele>
        <time>2016-09-17T14:39:14Z</time>
      </trkpt>
      <trkpt lat="48.38289" lon="2.7122">
        <ele>136.64</ele>
        <time>2016-09-17T14:39:23Z</time>
      </trkpt>
      <trkpt lat="48.3829" lon="2.71219">
        <ele>136.64</ele>
        <time>2016-09-17T14:39:30Z</time>
      </trkpt>
      <trkpt lat="48.3829" lon="2.71219">
        <ele>137.13</ele>
        <time>2016-09-17T14:39:41Z</time>
      </trkpt>
      <trkpt lat="48.38291" lon="2.71217">
        <ele>136.64</ele>
        <time>2016-09-17T14:39:48Z</time>
      </trkpt>
      <trkpt lat="48.38292" lon="2.71214">
        <ele>136.16</ele>
        <time>2016-09-17T14:39:56Z</time>
      </trkpt>
      <trkpt lat="48.38295" lon="2.71209">
        <ele>136.16</ele>
        <time>2016-09-17T14:40:03Z</time>
      </trkpt>
      <trkpt lat="48.38293" lon="2.71204">
        <ele>136.64</ele>
        <time>2016-09-17T14:40:09Z</time>
      </trkpt>
      <trkpt lat="48.38292" lon="2.71201">
        <ele>136.64</ele>
        <time>2016-09-17T14:40:15Z</time>
      </trkpt>
      <trkpt lat="48.38292" lon="2.71194">
        <ele>137.13</ele>
        <time>2016-09-17T14:40:22Z</time>
      </trkpt>
      <trkpt lat="48.38293" lon="2.71187">
        <ele>138.09</ele>
        <time>2016-09-17T14:40:30Z</time>
      </trkpt>
      <trkpt lat="48.38291" lon="2.71183">
        <ele>137.61</ele>
        <time>2016-09-17T14:40:36Z</time>
      </trkpt>
      <trkpt lat="48.3829" lon="2.71179">
        <ele>137.61</ele>
        <time>2016-09-17T14:40:42Z</time>
      </trkpt>
      <trkpt lat="48.38289" lon="2.71177">
        <ele>138.57</ele>
        <time>2016-09-17T14:40:49Z</time>
      </trkpt>
      <trkpt lat="48.38289" lon="2.71174">
        <ele>138.09</ele>
        <time>2016-09-17T14:40:56Z</time>
      </trkpt>
      <trkpt lat="48.38289" lon="2.71171">
        <ele>138.09</ele>
        <time>2016-09-17T14:41:00Z</time>
      </trkpt>
      <trkpt lat="48.38292" lon="2.71164">
        <ele>138.09</ele>
        <time>2016-09-17T14:41:06Z</time>
      </trkpt>
      <trkpt lat="48.38293" lon="2.71163">
        <ele>138.09</ele>
        <time>2016-09-17T14:41:07Z</time>
      </trkpt>
      <trkpt lat="48.38294" lon="2.71157">
        <ele>138.57</ele>
        <time>2016-09-17T14:41:12Z</time>
      </trkpt>
      <trkpt lat="48.38293" lon="2.71155">
        <ele>138.09</ele>
        <time>2016-09-17T14:41:14Z</time>
      </trkpt>
      <trkpt lat="48.38293" lon="2.71152">
        <ele>138.09</ele>
        <time>2016-09-17T14:41:16Z</time>
      </trkpt>
      <trkpt lat="48.38292" lon="2.71142">
        <ele>138.09</ele>
        <time>2016-09-17T14:41:23Z</time>
      </trkpt>
      <trkpt lat="48.38293" lon="2.71135">
        <ele>137.61</ele>
        <time>2016-09-17T14:41:29Z</time>
      </trkpt>
      <trkpt lat="48.38295" lon="2.71131">
        <ele>137.13</ele>
        <time>2016-09-17T14:41:35Z</time>
      </trkpt>
      <trkpt lat="48.38297" lon="2.71125">
        <ele>137.61</ele>
        <time>2016-09-17T14:41:41Z</time>
      </trkpt>
      <trkpt lat="48.38295" lon="2.71117">
        <ele>138.09</ele>
        <time>2016-09-17T14:41:48Z</time>
      </trkpt>
      <trkpt lat="48.38295" lon="2.71109">
        <ele>138.09</ele>
        <time>2016-09-17T14:41:54Z</time>
      </trkpt>
      <trkpt lat="48.38295" lon="2.71107">
        <ele>137.61</ele>
        <time>2016-09-17T14:41:56Z</time>
      </trkpt>
      <trkpt lat="48.38296" lon="2.71099">
        <ele>137.61</ele>
        <time>2016-09-17T14:42:01Z</time>
      </trkpt>
      <trkpt lat="48.38295" lon="2.71092">
        <ele>137.61</ele>
        <time>2016-09-17T14:42:05Z</time>
      </trkpt>
      <trkpt lat="48.38297" lon="2.71082">
        <ele>137.61</ele>
        <time>2016-09-17T14:42:12Z</time>
      </trkpt>
      <trkpt lat="48.38298" lon="2.71076">
        <ele>137.13</ele>
        <time>2016-09-17T14:42:17Z</time>
      </trkpt>
      <trkpt lat="48.38301" lon="2.71072">
        <ele>136.64</ele>
        <time>2016-09-17T14:42:21Z</time>
      </trkpt>
      <trkpt lat="48.38303" lon="2.71071">
        <ele>136.64</ele>
        <time>2016-09-17T14:42:23Z</time>
      </trkpt>
      <trkpt lat="48.38309" lon="2.71061">
        <ele>136.64</ele>
        <time>2016-09-17T14:42:31Z</time>
      </trkpt>
      <trkpt lat="48.38313" lon="2.71054">
        <ele>136.16</ele>
        <time>2016-09-17T14:42:38Z</time>
      </trkpt>
      <trkpt lat="48.38313" lon="2.7105">
        <ele>136.16</ele>
        <time>2016-09-17T14:42:41Z</time>
      </trkpt>
      <trkpt lat="48.38315" lon="2.71039">
        <ele>136.16</ele>
        <time>2016-09-17T14:42:49Z</time>
      </trkpt>
      <trkpt lat="48.38315" lon="2.71037">
        <ele>136.16</ele>
        <time>2016-09-17T14:42:50Z</time>
      </trkpt>
      <trkpt lat="48.38316" lon="2.71032">
        <ele>136.16</ele>
        <time>2016-09-17T14:42:53Z</time>
      </trkpt>
      <trkpt lat="48.38318" lon="2.71026">
        <ele>136.64</ele>
        <time>2016-09-17T14:42:59Z</time>
      </trkpt>
      <trkpt lat="48.38319" lon="2.71024">
        <ele>136.64</ele>
        <time>2016-09-17T14:43:01Z</time>
      </trkpt>
      <trkpt lat="48.3832" lon="2.71012">
        <ele>136.16</ele>
        <time>2016-09-17T14:43:09Z</time>
      </trkpt>
      <trkpt lat="48.3832" lon="2.71009">
        <ele>136.64</ele>
        <time>2016-09-17T14:43:11Z</time>
      </trkpt>
      <trkpt lat="48.38321" lon="2.71001">
        <ele>137.13</ele>
        <time>2016-09-17T14:43:18Z</time>
      </trkpt>
      <trkpt lat="48.3832" lon="2.70995">
        <ele>137.61</ele>
        <time>2016-09-17T14:43:24Z</time>
      </trkpt>
      <trkpt lat="48.38322" lon="2.70994">
        <ele>137.13</ele>
        <time>2016-09-17T14:43:29Z</time>
      </trkpt>
      <trkpt lat="48.38328" lon="2.70983">
        <ele>137.13</ele>
        <time>2016-09-17T14:43:37Z</time>
      </trkpt>
      <trkpt lat="48.38329" lon="2.70976">
        <ele>137.13</ele>
        <time>2016-09-17T14:43:44Z</time>
      </trkpt>
      <trkpt lat="48.38334" lon="2.70967">
        <ele>136.64</ele>
        <time>2016-09-17T14:43:50Z</time>
      </trkpt>
      <trkpt lat="48.3834" lon="2.70956">
        <ele>137.61</ele>
        <time>2016-09-17T14:43:56Z</time>
      </trkpt>
      <trkpt lat="48.38341" lon="2.70954">
        <ele>137.61</ele>
        <time>2016-09-17T14:43:58Z</time>
      </trkpt>
      <trkpt lat="48.38344" lon="2.70944">
        <ele>137.61</ele>
        <time>2016-09-17T14:44:05Z</time>
      </trkpt>
      <trkpt lat="48.38344" lon="2.7094">
        <ele>138.09</ele>
        <time>2016-09-17T14:44:10Z</time>
      </trkpt>
      <trkpt lat="48.38343" lon="2.70932">
        <ele>138.09</ele>
        <time>2016-09-17T14:44:16Z</time>
      </trkpt>
      <trkpt lat="48.38342" lon="2.70928">
        <ele>137.61</ele>
        <time>2016-09-17T14:44:19Z</time>
      </trkpt>
      <trkpt lat="48.38346" lon="2.70915">
        <ele>138.57</ele>
        <time>2016-09-17T14:44:26Z</time>
      </trkpt>
      <trkpt lat="48.38348" lon="2.70911">
        <ele>138.57</ele>
        <time>2016-09-17T14:44:29Z</time>
      </trkpt>
      <trkpt lat="48.38349" lon="2.70908">
        <ele>138.57</ele>
        <time>2016-09-17T14:44:31Z</time>
      </trkpt>
      <trkpt lat="48.38353" lon="2.70896">
        <ele>138.57</ele>
        <time>2016-09-17T14:44:39Z</time>
      </trkpt>
      <trkpt lat="48.38358" lon="2.70885">
        <ele>138.57</ele>
        <time>2016-09-17T14:44:46Z</time>
      </trkpt>
      <trkpt lat="48.38358" lon="2.70871">
        <ele>138.09</ele>
        <time>2016-09-17T14:44:55Z</time>
      </trkpt>
      <trkpt lat="48.38359" lon="2.70868">
        <ele>138.09</ele>
        <time>2016-09-17T14:44:57Z</time>
      </trkpt>
      <trkpt lat="48.3836" lon="2.70855">
        <ele>137.61</ele>
        <time>2016-09-17T14:45:04Z</time>
      </trkpt>
      <trkpt lat="48.38363" lon="2.7085">
        <ele>137.61</ele>
        <time>2016-09-17T14:45:07Z</time>
      </trkpt>
      <trkpt lat="48.38364" lon="2.70847">
        <ele>137.61</ele>
        <time>2016-09-17T14:45:09Z</time>
      </trkpt>
      <trkpt lat="48.38368" lon="2.70839">
        <ele>137.61</ele>
        <time>2016-09-17T14:45:16Z</time>
      </trkpt>
      <trkpt lat="48.3837" lon="2.70836">
        <ele>137.61</ele>
        <time>2016-09-17T14:45:19Z</time>
      </trkpt>
      <trkpt lat="48.38372" lon="2.70832">
        <ele>137.61</ele>
        <time>2016-09-17T14:45:22Z</time>
      </trkpt>
      <trkpt lat="48.38379" lon="2.70824">
        <ele>137.13</ele>
        <time>2016-09-17T14:45:30Z</time>
      </trkpt>
      <trkpt lat="48.38381" lon="2.70815">
        <ele>137.61</ele>
        <time>2016-09-17T14:45:35Z</time>
      </trkpt>
      <trkpt lat="48.38385" lon="2.7081">
        <ele>137.13</ele>
        <time>2016-09-17T14:45:42Z</time>
      </trkpt>
      <trkpt lat="48.38387" lon="2.70807">
        <ele>137.13</ele>
        <time>2016-09-17T14:45:46Z</time>
      </trkpt>
      <trkpt lat="48.38386" lon="2.70799">
        <ele>137.13</ele>
        <time>2016-09-17T14:45:53Z</time>
      </trkpt>
      <trkpt lat="48.38386" lon="2.70796">
        <ele>137.13</ele>
        <time>2016-09-17T14:45:55Z</time>
      </trkpt>
      <trkpt lat="48.38386" lon="2.70787">
        <ele>137.61</ele>
        <time>2016-09-17T14:46:02Z</time>
      </trkpt>
      <trkpt lat="48.38385" lon="2.70782">
        <ele>137.13</ele>
        <time>2016-09-17T14:46:07Z</time>
      </trkpt>
      <trkpt lat="48.38384" lon="2.70768">
        <ele>137.61</ele>
        <time>2016-09-17T14:46:16Z</time>
      </trkpt>
      <trkpt lat="48.38386" lon="2.70757">
        <ele>137.13</ele>
        <time>2016-09-17T14:46:23Z</time>
      </trkpt>
      <trkpt lat="48.38388" lon="2.70754">
        <ele>136.64</ele>
        <time>2016-09-17T14:46:31Z</time>
      </trkpt>
      <trkpt lat="48.38387" lon="2.70751">
        <ele>136.64</ele>
        <time>2016-09-17T14:46:39Z</time>
      </trkpt>
      <trkpt lat="48.38386" lon="2.7075">
        <ele>137.13</ele>
        <time>2016-09-17T14:46:46Z</time>
      </trkpt>
      <trkpt lat="48.38388" lon="2.70751">
        <ele>137.13</ele>
        <time>2016-09-17T14:46:55Z</time>
      </trkpt>
      <trkpt lat="48.38388" lon="2.7075">
        <ele>137.13</ele>
        <time>2016-09-17T14:47:07Z</time>
      </trkpt>
      <trkpt lat="48.38389" lon="2.70751">
        <ele>137.13</ele>
        <time>2016-09-17T14:47:16Z</time>
      </trkpt>
      <trkpt lat="48.38389" lon="2.70751">
        <ele>137.61</ele>
        <time>2016-09-17T14:47:23Z</time>
      </trkpt>
      <trkpt lat="48.38387" lon="2.70749">
        <ele>138.09</ele>
        <time>2016-09-17T14:47:31Z</time>
      </trkpt>
      <trkpt lat="48.38388" lon="2.70749">
        <ele>138.09</ele>
        <time>2016-09-17T14:47:39Z</time>
      </trkpt>
      <trkpt lat="48.38387" lon="2.70747">
        <ele>138.09</ele>
        <time>2016-09-17T14:47:47Z</time>
      </trkpt>
      <trkpt lat="48.38387" lon="2.70742">
        <ele>138.09</ele>
        <time>2016-09-17T14:47:56Z</time>
      </trkpt>
      <trkpt lat="48.38386" lon="2.70741">
        <ele>138.09</ele>
        <time>2016-09-17T14:48:02Z</time>
      </trkpt>
      <trkpt lat="48.38387" lon="2.70734">
        <ele>138.57</ele>
        <time>2016-09-17T14:48:09Z</time>
      </trkpt>
      <trkpt lat="48.3839" lon="2.70726">
        <ele>138.57</ele>
        <time>2016-09-17T14:48:16Z</time>
      </trkpt>
      <trkpt lat="48.3839" lon="2.70721">
        <ele>138.57</ele>
        <time>2016-09-17T14:48:22Z</time>
      </trkpt>
      <trkpt lat="48.38391" lon="2.70718">
        <ele>138.57</ele>
        <time>2016-09-17T14:48:31Z</time>
      </trkpt>
      <trkpt lat="48.38393" lon="2.70712">
        <ele>139.05</ele>
        <time>2016-09-17T14:48:38Z</time>
      </trkpt>
      <trkpt lat="48.38398" lon="2.70707">
        <ele>138.57</ele>
        <time>2016-09-17T14:48:44Z</time>
      </trkpt>
      <trkpt lat="48.38401" lon="2.70702">
        <ele>138.09</ele>
        <time>2016-09-17T14:48:51Z</time>
      </trkpt>
      <trkpt lat="48.38401" lon="2.70699">
        <ele>138.57</ele>
        <time>2016-09-17T14:48:57Z</time>
      </trkpt>
      <trkpt lat="48.38401" lon="2.70695">
        <ele>139.05</ele>
        <time>2016-09-17T14:49:04Z</time>
      </trkpt>
      <trkpt lat="48.38403" lon="2.70688">
        <ele>139.05</ele>
        <time>2016-09-17T14:49:11Z</time>
      </trkpt>
      <trkpt lat="48.38404" lon="2.70678">
        <ele>138.09</ele>
        <time>2016-09-17T14:49:18Z</time>
      </trkpt>
      <trkpt lat="48.38404" lon="2.70677">
        <ele>138.09</ele>
        <time>2016-09-17T14:49:19Z</time>
      </trkpt>
      <trkpt lat="48.3841" lon="2.70665">
        <ele>138.09</ele>
        <time>2016-09-17T14:49:28Z</time>
      </trkpt>
      <trkpt lat="48.38411" lon="2.70664">
        <ele>137.61</ele>
        <time>2016-09-17T14:49:34Z</time>
      </trkpt>
      <trkpt lat="48.38412" lon="2.70662">
        <ele>138.09</ele>
        <time>2016-09-17T14:49:41Z</time>
      </trkpt>
      <trkpt lat="48.38413" lon="2.70662">
        <ele>138.09</ele>
        <time>2016-09-17T14:49:50Z</time>
      </trkpt>
      <trkpt lat="48.38412" lon="2.70661">
        <ele>138.09</ele>
        <time>2016-09-17T14:50:00Z</time>
      </trkpt>
      <trkpt lat="48.38414" lon="2.70656">
        <ele>138.09</ele>
        <time>2016-09-17T14:50:09Z</time>
      </trkpt>
      <trkpt lat="48.38414" lon="2.70649">
        <ele>138.09</ele>
        <time>2016-09-17T14:50:16Z</time>
      </trkpt>
      <trkpt lat="48.38415" lon="2.70645">
        <ele>137.61</ele>
        <time>2016-09-17T14:50:23Z</time>
      </trkpt>
      <trkpt lat="48.38416" lon="2.70642">
        <ele>137.61</ele>
        <time>2016-09-17T14:50:30Z</time>
      </trkpt>
      <trkpt lat="48.38417" lon="2.70642">
        <ele>137.61</ele>
        <time>2016-09-17T14:50:43Z</time>
      </trkpt>
      <trkpt lat="48.3842" lon="2.7064">
        <ele>137.61</ele>
        <time>2016-09-17T14:50:52Z</time>
      </trkpt>
      <trkpt lat="48.38422" lon="2.70638">
        <ele>137.61</ele>
        <time>2016-09-17T14:51:00Z</time>
      </trkpt>
      <trkpt lat="48.38424" lon="2.70636">
        <ele>138.09</ele>
        <time>2016-09-17T14:51:09Z</time>
      </trkpt>
      <trkpt lat="48.38424" lon="2.70635">
        <ele>137.61</ele>
        <time>2016-09-17T14:51:19Z</time>
      </trkpt>
      <trkpt lat="48.38424" lon="2.70635">
        <ele>138.09</ele>
        <time>2016-09-17T14:51:34Z</time>
      </trkpt>
      <trkpt lat="48.38425" lon="2.70634">
        <ele>137.61</ele>
        <time>2016-09-17T14:51:46Z</time>
      </trkpt>
      <trkpt lat="48.38425" lon="2.70633">
        <ele>137.61</ele>
        <time>2016-09-17T14:51:58Z</time>
      </trkpt>
      <trkpt lat="48.38425" lon="2.70632">
        <ele>137.61</ele>
        <time>2016-09-17T14:52:09Z</time>
      </trkpt>
      <trkpt lat="48.38426" lon="2.7063">
        <ele>138.09</ele>
        <time>2016-09-17T14:52:18Z</time>
      </trkpt>
      <trkpt lat="48.38427" lon="2.70629">
        <ele>137.61</ele>
        <time>2016-09-17T14:52:30Z</time>
      </trkpt>
      <trkpt lat="48.38429" lon="2.70629">
        <ele>137.61</ele>
        <time>2016-09-17T14:52:37Z</time>
      </trkpt>
      <trkpt lat="48.38429" lon="2.7063">
        <ele>137.61</ele>
        <time>2016-09-17T14:52:43Z</time>
      </trkpt>
      <trkpt lat="48.38428" lon="2.70632">
        <ele>137.61</ele>
        <time>2016-09-17T14:52:51Z</time>
      </trkpt>
      <trkpt lat="48.38424" lon="2.70631">
        <ele>137.61</ele>
        <time>2016-09-17T14:52:57Z</time>
      </trkpt>
      <trkpt lat="48.38421" lon="2.70631">
        <ele>137.61</ele>
        <time>2016-09-17T14:53:04Z</time>
      </trkpt>
      <trkpt lat="48.38416" lon="2.70633">
        <ele>137.61</ele>
        <time>2016-09-17T14:53:10Z</time>
      </trkpt>
      <trkpt lat="48.38415" lon="2.70635">
        <ele>137.61</ele>
        <time>2016-09-17T14:53:11Z</time>
      </trkpt>
      <trkpt lat="48.38414" lon="2.70643">
        <ele>138.57</ele>
        <time>2016-09-17T14:53:18Z</time>
      </trkpt>
      <trkpt lat="48.38414" lon="2.70647">
        <ele>138.57</ele>
        <time>2016-09-17T14:53:21Z</time>
      </trkpt>
      <trkpt lat="48.38412" lon="2.70655">
        <ele>138.09</ele>
        <time>2016-09-17T14:53:29Z</time>
      </trkpt>
      <trkpt lat="48.38408" lon="2.70661">
        <ele>138.09</ele>
        <time>2016-09-17T14:53:38Z</time>
      </trkpt>
      <trkpt lat="48.38408" lon="2.70666">
        <ele>139.05</ele>
        <time>2016-09-17T14:53:46Z</time>
      </trkpt>
      <trkpt lat="48.38406" lon="2.70672">
        <ele>139.53</ele>
        <time>2016-09-17T14:53:53Z</time>
      </trkpt>
      <trkpt lat="48.38404" lon="2.70681">
        <ele>138.09</ele>
        <time>2016-09-17T14:54:01Z</time>
      </trkpt>
      <trkpt lat="48.38404" lon="2.70691">
        <ele>138.09</ele>
        <time>2016-09-17T14:54:09Z</time>
      </trkpt>
      <trkpt lat="48.38404" lon="2.70696">
        <ele>138.57</ele>
        <time>2016-09-17T14:54:16Z</time>
      </trkpt>
      <trkpt lat="48.38401" lon="2.70699">
        <ele>138.57</ele>
        <time>2016-09-17T14:54:23Z</time>
      </trkpt>
      <trkpt lat="48.38399" lon="2.70705">
        <ele>138.57</ele>
        <time>2016-09-17T14:54:29Z</time>
      </trkpt>
      <trkpt lat="48.38396" lon="2.70712">
        <ele>138.09</ele>
        <time>2016-09-17T14:54:36Z</time>
      </trkpt>
      <trkpt lat="48.38393" lon="2.70718">
        <ele>138.09</ele>
        <time>2016-09-17T14:54:43Z</time>
      </trkpt>
      <trkpt lat="48.38393" lon="2.70726">
        <ele>138.09</ele>
        <time>2016-09-17T14:54:50Z</time>
      </trkpt>
      <trkpt lat="48.3839" lon="2.70731">
        <ele>137.61</ele>
        <time>2016-09-17T14:54:56Z</time>
      </trkpt>
      <trkpt lat="48.38389" lon="2.70734">
        <ele>137.13</ele>
        <time>2016-09-17T14:55:03Z</time>
      </trkpt>
      <trkpt lat="48.3839" lon="2.70737">
        <ele>137.13</ele>
        <time>2016-09-17T14:55:11Z</time>
      </trkpt>
      <trkpt lat="48.38392" lon="2.70739">
        <ele>136.16</ele>
        <time>2016-09-17T14:55:17Z</time>
      </trkpt>
      <trkpt lat="48.38395" lon="2.70739">
        <ele>135.68</ele>
        <time>2016-09-17T14:55:22Z</time>
      </trkpt>
      <trkpt lat="48.38397" lon="2.70741">
        <ele>135.2</ele>
        <time>2016-09-17T14:55:27Z</time>
      </trkpt>
      <trkpt lat="48.38401" lon="2.70739">
        <ele>134.24</ele>
        <time>2016-09-17T14:55:34Z</time>
      </trkpt>
      <trkpt lat="48.38406" lon="2.7074">
        <ele>133.76</ele>
        <time>2016-09-17T14:55:43Z</time>
      </trkpt>
      <trkpt lat="48.38407" lon="2.7074">
        <ele>133.28</ele>
        <time>2016-09-17T14:55:49Z</time>
      </trkpt>
      <trkpt lat="48.38411" lon="2.70737">
        <ele>132.32</ele>
        <time>2016-09-17T14:55:56Z</time>
      </trkpt>
      <trkpt lat="48.38415" lon="2.70738">
        <ele>131.84</ele>
        <time>2016-09-17T14:56:03Z</time>
      </trkpt>
      <trkpt lat="48.38417" lon="2.70735">
        <ele>131.36</ele>
        <time>2016-09-17T14:56:09Z</time>
      </trkpt>
      <trkpt lat="48.38418" lon="2.70733">
        <ele>130.88</ele>
        <time>2016-09-17T14:56:17Z</time>
      </trkpt>
      <trkpt lat="48.38421" lon="2.7073">
        <ele>129.92</ele>
        <time>2016-09-17T14:56:23Z</time>
      </trkpt>
      <trkpt lat="48.38424" lon="2.70729">
        <ele>128.95</ele>
        <time>2016-09-17T14:56:28Z</time>
      </trkpt>
      <trkpt lat="48.38425" lon="2.70729">
        <ele>128.95</ele>
        <time>2016-09-17T14:56:36Z</time>
      </trkpt>
      <trkpt lat="48.38426" lon="2.70726">
        <ele>128.47</ele>
        <time>2016-09-17T14:56:42Z</time>
      </trkpt>
      <trkpt lat="48.3843" lon="2.70722">
        <ele>127.99</ele>
        <time>2016-09-17T14:56:49Z</time>
      </trkpt>
      <trkpt lat="48.38433" lon="2.70721">
        <ele>127.51</ele>
        <time>2016-09-17T14:56:57Z</time>
      </trkpt>
      <trkpt lat="48.38435" lon="2.70717">
        <ele>127.51</ele>
        <time>2016-09-17T14:57:04Z</time>
      </trkpt>
      <trkpt lat="48.38437" lon="2.70713">
        <ele>127.03</ele>
        <time>2016-09-17T14:57:10Z</time>
      </trkpt>
      <trkpt lat="48.38438" lon="2.7071">
        <ele>126.55</ele>
        <time>2016-09-17T14:57:17Z</time>
      </trkpt>
      <trkpt lat="48.3844" lon="2.70705">
        <ele>125.59</ele>
        <time>2016-09-17T14:57:24Z</time>
      </trkpt>
      <trkpt lat="48.38441" lon="2.70702">
        <ele>125.11</ele>
        <time>2016-09-17T14:57:31Z</time>
      </trkpt>
      <trkpt lat="48.38443" lon="2.707">
        <ele>124.63</ele>
        <time>2016-09-17T14:57:39Z</time>
      </trkpt>
      <trkpt lat="48.38444" lon="2.70699">
        <ele>123.67</ele>
        <time>2016-09-17T14:57:46Z</time>
      </trkpt>
      <trkpt lat="48.38445" lon="2.70697">
        <ele>122.71</ele>
        <time>2016-09-17T14:57:55Z</time>
      </trkpt>
      <trkpt lat="48.38447" lon="2.70694">
        <ele>121.74</ele>
        <time>2016-09-17T14:58:02Z</time>
      </trkpt>
      <trkpt lat="48.38451" lon="2.7069">
        <ele>120.3</ele>
        <time>2016-09-17T14:58:10Z</time>
      </trkpt>
      <trkpt lat="48.38454" lon="2.70684">
        <ele>119.82</ele>
        <time>2016-09-17T14:58:17Z</time>
      </trkpt>
      <trkpt lat="48.38456" lon="2.70682">
        <ele>119.34</ele>
        <time>2016-09-17T14:58:21Z</time>
      </trkpt>
      <trkpt lat="48.38459" lon="2.70679">
        <ele>118.86</ele>
        <time>2016-09-17T14:58:26Z</time>
      </trkpt>
      <trkpt lat="48.38462" lon="2.70678">
        <ele>118.38</ele>
        <time>2016-09-17T14:58:29Z</time>
      </trkpt>
      <trkpt lat="48.38466" lon="2.70673">
        <ele>118.38</ele>
        <time>2016-09-17T14:58:34Z</time>
      </trkpt>
      <trkpt lat="48.38476" lon="2.70671">
        <ele>118.38</ele>
        <time>2016-09-17T14:58:42Z</time>
      </trkpt>
      <trkpt lat="48.3848" lon="2.7067">
        <ele>117.9</ele>
        <time>2016-09-17T14:58:48Z</time>
      </trkpt>
      <trkpt lat="48.38487" lon="2.70663">
        <ele>117.9</ele>
        <time>2016-09-17T14:58:56Z</time>
      </trkpt>
      <trkpt lat="48.38489" lon="2.70658">
        <ele>116.94</ele>
        <time>2016-09-17T14:59:01Z</time>
      </trkpt>
      <trkpt lat="48.38492" lon="2.70653">
        <ele>116.46</ele>
        <time>2016-09-17T14:59:05Z</time>
      </trkpt>
      <trkpt lat="48.38496" lon="2.70649">
        <ele>115.5</ele>
        <time>2016-09-17T14:59:10Z</time>
      </trkpt>
      <trkpt lat="48.38501" lon="2.70645">
        <ele>115.01</ele>
        <time>2016-09-17T14:59:16Z</time>
      </trkpt>
      <trkpt lat="48.38504" lon="2.70639">
        <ele>114.05</ele>
        <time>2016-09-17T14:59:22Z</time>
      </trkpt>
      <trkpt lat="48.38506" lon="2.70637">
        <ele>113.57</ele>
        <time>2016-09-17T14:59:26Z</time>
      </trkpt>
      <trkpt lat="48.38508" lon="2.70629">
        <ele>112.61</ele>
        <time>2016-09-17T14:59:32Z</time>
      </trkpt>
      <trkpt lat="48.38513" lon="2.70622">
        <ele>112.61</ele>
        <time>2016-09-17T14:59:38Z</time>
      </trkpt>
      <trkpt lat="48.38518" lon="2.70621">
        <ele>112.61</ele>
        <time>2016-09-17T14:59:44Z</time>
      </trkpt>
      <trkpt lat="48.38523" lon="2.70617">
        <ele>112.13</ele>
        <time>2016-09-17T14:59:48Z</time>
      </trkpt>
      <trkpt lat="48.3853" lon="2.70613">
        <ele>112.13</ele>
        <time>2016-09-17T14:59:55Z</time>
      </trkpt>
      <trkpt lat="48.3853" lon="2.70612">
        <ele>112.61</ele>
        <time>2016-09-17T14:59:56Z</time>
      </trkpt>
      <trkpt lat="48.38534" lon="2.70609">
        <ele>112.61</ele>
        <time>2016-09-17T14:59:59Z</time>
      </trkpt>
      <trkpt lat="48.38538" lon="2.70601">
        <ele>113.09</ele>
        <time>2016-09-17T15:00:05Z</time>
      </trkpt>
      <trkpt lat="48.38542" lon="2.70597">
        <ele>113.57</ele>
        <time>2016-09-17T15:00:10Z</time>
      </trkpt>
      <trkpt lat="48.38547" lon="2.70589">
        <ele>114.53</ele>
        <time>2016-09-17T15:00:18Z</time>
      </trkpt>
      <trkpt lat="48.38555" lon="2.70586">
        <ele>115.98</ele>
        <time>2016-09-17T15:00:26Z</time>
      </trkpt>
      <trkpt lat="48.38555" lon="2.70585">
        <ele>115.98</ele>
        <time>2016-09-17T15:00:27Z</time>
      </trkpt>
      <trkpt lat="48.38565" lon="2.7058">
        <ele>117.9</ele>
        <time>2016-09-17T15:00:36Z</time>
      </trkpt>
      <trkpt lat="48.38569" lon="2.70575">
        <ele>118.38</ele>
        <time>2016-09-17T15:00:42Z</time>
      </trkpt>
      <trkpt lat="48.38572" lon="2.70571">
        <ele>119.34</ele>
        <time>2016-09-17T15:00:48Z</time>
      </trkpt>
      <trkpt lat="48.38575" lon="2.70569">
        <ele>119.82</ele>
        <time>2016-09-17T15:00:51Z</time>
      </trkpt>
      <trkpt lat="48.38578" lon="2.70566">
        <ele>120.3</ele>
        <time>2016-09-17T15:00:55Z</time>
      </trkpt>
      <trkpt lat="48.38584" lon="2.70563">
        <ele>121.26</ele>
        <time>2016-09-17T15:01:02Z</time>
      </trkpt>
      <trkpt lat="48.38585" lon="2.70563">
        <ele>121.74</ele>
        <time>2016-09-17T15:01:03Z</time>
      </trkpt>
      <trkpt lat="48.38592" lon="2.70564">
        <ele>122.71</ele>
        <time>2016-09-17T15:01:09Z</time>
      </trkpt>
      <trkpt lat="48.38596" lon="2.70563">
        <ele>123.19</ele>
        <time>2016-09-17T15:01:12Z</time>
      </trkpt>
      <trkpt lat="48.38598" lon="2.70561">
        <ele>123.67</ele>
        <time>2016-09-17T15:01:14Z</time>
      </trkpt>
      <trkpt lat="48.38605" lon="2.70559">
        <ele>124.63</ele>
        <time>2016-09-17T15:01:18Z</time>
      </trkpt>
      <trkpt lat="48.38612" lon="2.70559">
        <ele>126.07</ele>
        <time>2016-09-17T15:01:24Z</time>
      </trkpt>
      <trkpt lat="48.38613" lon="2.70558">
        <ele>126.07</ele>
        <time>2016-09-17T15:01:25Z</time>
      </trkpt>
      <trkpt lat="48.3862" lon="2.70556">
        <ele>127.51</ele>
        <time>2016-09-17T15:01:33Z</time>
      </trkpt>
      <trkpt lat="48.38625" lon="2.70553">
        <ele>128.47</ele>
        <time>2016-09-17T15:01:39Z</time>
      </trkpt>
      <trkpt lat="48.38628" lon="2.70552">
        <ele>129.92</ele>
        <time>2016-09-17T15:01:45Z</time>
      </trkpt>
      <trkpt lat="48.38633" lon="2.7055">
        <ele>130.88</ele>
        <time>2016-09-17T15:01:51Z</time>
      </trkpt>
      <trkpt lat="48.38638" lon="2.7055">
        <ele>131.36</ele>
        <time>2016-09-17T15:01:56Z</time>
      </trkpt>
      <trkpt lat="48.38643" lon="2.70548">
        <ele>132.32</ele>
        <time>2016-09-17T15:02:01Z</time>
      </trkpt>
      <trkpt lat="48.38649" lon="2.70545">
        <ele>133.28</ele>
        <time>2016-09-17T15:02:07Z</time>
      </trkpt>
      <trkpt lat="48.38653" lon="2.70543">
        <ele>134.72</ele>
        <time>2016-09-17T15:02:12Z</time>
      </trkpt>
      <trkpt lat="48.38657" lon="2.70543">
        <ele>135.68</ele>
        <time>2016-09-17T15:02:15Z</time>
      </trkpt>
      <trkpt lat="48.38662" lon="2.70541">
        <ele>135.68</ele>
        <time>2016-09-17T15:02:20Z</time>
      </trkpt>
      <trkpt lat="48.38665" lon="2.7054">
        <ele>136.16</ele>
        <time>2016-09-17T15:02:23Z</time>
      </trkpt>
      <trkpt lat="48.3867" lon="2.7054">
        <ele>136.16</ele>
        <time>2016-09-17T15:02:27Z</time>
      </trkpt>
      <trkpt lat="48.38677" lon="2.70539">
        <ele>137.13</ele>
        <time>2016-09-17T15:02:33Z</time>
      </trkpt>
      <trkpt lat="48.38682" lon="2.70536">
        <ele>136.64</ele>
        <time>2016-09-17T15:02:38Z</time>
      </trkpt>
      <trkpt lat="48.38686" lon="2.70536">
        <ele>136.64</ele>
        <time>2016-09-17T15:02:42Z</time>
      </trkpt>
      <trkpt lat="48.38697" lon="2.70534">
        <ele>136.64</ele>
        <time>2016-09-17T15:02:50Z</time>
      </trkpt>
      <trkpt lat="48.38705" lon="2.70533">
        <ele>136.64</ele>
        <time>2016-09-17T15:02:56Z</time>
      </trkpt>
      <trkpt lat="48.38714" lon="2.70533">
        <ele>136.64</ele>
        <time>2016-09-17T15:03:04Z</time>
      </trkpt>
      <trkpt lat="48.38716" lon="2.70533">
        <ele>137.13</ele>
        <time>2016-09-17T15:03:07Z</time>
      </trkpt>
      <trkpt lat="48.38718" lon="2.70532">
        <ele>136.64</ele>
        <time>2016-09-17T15:03:11Z</time>
      </trkpt>
      <trkpt lat="48.38722" lon="2.70531">
        <ele>136.64</ele>
        <time>2016-09-17T15:03:17Z</time>
      </trkpt>
      <trkpt lat="48.38726" lon="2.70528">
        <ele>135.68</ele>
        <time>2016-09-17T15:03:21Z</time>
      </trkpt>
      <trkpt lat="48.38729" lon="2.70525">
        <ele>135.68</ele>
        <time>2016-09-17T15:03:27Z</time>
      </trkpt>
      <trkpt lat="48.3873" lon="2.70524">
        <ele>135.68</ele>
        <time>2016-09-17T15:03:33Z</time>
      </trkpt>
      <trkpt lat="48.38729" lon="2.70524">
        <ele>135.68</ele>
        <time>2016-09-17T15:03:40Z</time>
      </trkpt>
      <trkpt lat="48.3873" lon="2.70524">
        <ele>135.68</ele>
        <time>2016-09-17T15:03:51Z</time>
      </trkpt>
      <trkpt lat="48.3873" lon="2.70523">
        <ele>135.2</ele>
        <time>2016-09-17T15:03:59Z</time>
      </trkpt>
      <trkpt lat="48.3873" lon="2.70523">
        <ele>136.16</ele>
        <time>2016-09-17T15:04:08Z</time>
      </trkpt>
      <trkpt lat="48.3873" lon="2.70523">
        <ele>136.16</ele>
        <time>2016-09-17T15:04:19Z</time>
      </trkpt>
      <trkpt lat="48.3873" lon="2.70522">
        <ele>135.68</ele>
        <time>2016-09-17T15:04:29Z</time>
      </trkpt>
      <trkpt lat="48.3873" lon="2.70521">
        <ele>135.2</ele>
        <time>2016-09-17T15:04:41Z</time>
      </trkpt>
      <trkpt lat="48.38731" lon="2.70521">
        <ele>135.68</ele>
        <time>2016-09-17T15:04:56Z</time>
      </trkpt>
      <trkpt lat="48.38731" lon="2.70522">
        <ele>136.16</ele>
        <time>2016-09-17T15:05:08Z</time>
      </trkpt>
      <trkpt lat="48.38731" lon="2.70521">
        <ele>135.2</ele>
        <time>2016-09-17T15:05:22Z</time>
      </trkpt>
      <trkpt lat="48.38731" lon="2.70522">
        <ele>134.72</ele>
        <time>2016-09-17T15:05:35Z</time>
      </trkpt>
      <trkpt lat="48.38731" lon="2.70522">
        <ele>135.2</ele>
        <time>2016-09-17T15:05:41Z</time>
      </trkpt>
      <trkpt lat="48.38731" lon="2.70522">
        <ele>135.2</ele>
        <time>2016-09-17T15:05:53Z</time>
      </trkpt>
      <trkpt lat="48.3873" lon="2.70522">
        <ele>135.2</ele>
        <time>2016-09-17T15:06:09Z</time>
      </trkpt>
      <trkpt lat="48.38731" lon="2.70522">
        <ele>135.2</ele>
        <time>2016-09-17T15:06:21Z</time>
      </trkpt>
      <trkpt lat="48.3873" lon="2.70522">
        <ele>134.72</ele>
        <time>2016-09-17T15:06:37Z</time>
      </trkpt>
      <trkpt lat="48.3873" lon="2.70522">
        <ele>135.2</ele>
        <time>2016-09-17T15:06:53Z</time>
      </trkpt>
      <trkpt lat="48.38731" lon="2.70523">
        <ele>134.72</ele>
        <time>2016-09-17T15:07:11Z</time>
      </trkpt>
      <trkpt lat="48.38731" lon="2.70524">
        <ele>134.72</ele>
        <time>2016-09-17T15:07:30Z</time>
      </trkpt>
      <trkpt lat="48.3873" lon="2.70524">
        <ele>135.2</ele>
        <time>2016-09-17T15:07:46Z</time>
      </trkpt>
      <trkpt lat="48.38733" lon="2.70524">
        <ele>134.72</ele>
        <time>2016-09-17T15:07:53Z</time>
      </trkpt>
      <trkpt lat="48.38733" lon="2.70524">
        <ele>134.72</ele>
        <time>2016-09-17T15:07:59Z</time>
      </trkpt>
      <trkpt lat="48.38734" lon="2.70523">
        <ele>134.72</ele>
        <time>2016-09-17T15:08:07Z</time>
      </trkpt>
      <trkpt lat="48.38739" lon="2.70523">
        <ele>135.2</ele>
        <time>2016-09-17T15:08:15Z</time>
      </trkpt>
      <trkpt lat="48.38744" lon="2.70521">
        <ele>133.76</ele>
        <time>2016-09-17T15:08:22Z</time>
      </trkpt>
      <trkpt lat="48.38746" lon="2.70519">
        <ele>133.28</ele>
        <time>2016-09-17T15:08:26Z</time>
      </trkpt>
      <trkpt lat="48.3875" lon="2.70516">
        <ele>132.32</ele>
        <time>2016-09-17T15:08:33Z</time>
      </trkpt>
      <trkpt lat="48.38752" lon="2.70515">
        <ele>131.84</ele>
        <time>2016-09-17T15:08:35Z</time>
      </trkpt>
      <trkpt lat="48.38755" lon="2.70514">
        <ele>131.36</ele>
        <time>2016-09-17T15:08:39Z</time>
      </trkpt>
      <trkpt lat="48.38758" lon="2.70507">
        <ele>129.43</ele>
        <time>2016-09-17T15:08:44Z</time>
      </trkpt>
      <trkpt lat="48.38761" lon="2.70507">
        <ele>129.43</ele>
        <time>2016-09-17T15:08:47Z</time>
      </trkpt>
      <trkpt lat="48.38767" lon="2.70507">
        <ele>127.99</ele>
        <time>2016-09-17T15:08:53Z</time>
      </trkpt>
      <trkpt lat="48.38768" lon="2.70507">
        <ele>127.51</ele>
        <time>2016-09-17T15:08:54Z</time>
      </trkpt>
      <trkpt lat="48.38771" lon="2.70505">
        <ele>127.03</ele>
        <time>2016-09-17T15:08:57Z</time>
      </trkpt>
      <trkpt lat="48.38775" lon="2.70503">
        <ele>126.07</ele>
        <time>2016-09-17T15:09:02Z</time>
      </trkpt>
      <trkpt lat="48.3878" lon="2.70501">
        <ele>125.11</ele>
        <time>2016-09-17T15:09:08Z</time>
      </trkpt>
      <trkpt lat="48.38782" lon="2.70502">
        <ele>124.63</ele>
        <time>2016-09-17T15:09:11Z</time>
      </trkpt>
      <trkpt lat="48.38787" lon="2.70502">
        <ele>123.19</ele>
        <time>2016-09-17T15:09:18Z</time>
      </trkpt>
      <trkpt lat="48.3879" lon="2.70499">
        <ele>122.71</ele>
        <time>2016-09-17T15:09:21Z</time>
      </trkpt>
      <trkpt lat="48.38793" lon="2.705">
        <ele>121.74</ele>
        <time>2016-09-17T15:09:25Z</time>
      </trkpt>
      <trkpt lat="48.388" lon="2.70501">
        <ele>119.34</ele>
        <time>2016-09-17T15:09:31Z</time>
      </trkpt>
      <trkpt lat="48.38809" lon="2.70495">
        <ele>117.9</ele>
        <time>2016-09-17T15:09:38Z</time>
      </trkpt>
      <trkpt lat="48.38814" lon="2.70494">
        <ele>117.42</ele>
        <time>2016-09-17T15:09:43Z</time>
      </trkpt>
      <trkpt lat="48.3882" lon="2.70492">
        <ele>115.98</ele>
        <time>2016-09-17T15:09:49Z</time>
      </trkpt>
      <trkpt lat="48.38825" lon="2.7049">
        <ele>114.53</ele>
        <time>2016-09-17T15:09:54Z</time>
      </trkpt>
      <trkpt lat="48.38833" lon="2.7049">
        <ele>113.09</ele>
        <time>2016-09-17T15:10:00Z</time>
      </trkpt>
      <trkpt lat="48.38835" lon="2.70489">
        <ele>113.09</ele>
        <time>2016-09-17T15:10:02Z</time>
      </trkpt>
      <trkpt lat="48.38839" lon="2.70489">
        <ele>112.61</ele>
        <time>2016-09-17T15:10:06Z</time>
      </trkpt>
      <trkpt lat="48.38843" lon="2.70488">
        <ele>111.17</ele>
        <time>2016-09-17T15:10:10Z</time>
      </trkpt>
      <trkpt lat="48.38848" lon="2.70486">
        <ele>110.21</ele>
        <time>2016-09-17T15:10:15Z</time>
      </trkpt>
      <trkpt lat="48.38855" lon="2.70482">
        <ele>108.77</ele>
        <time>2016-09-17T15:10:22Z</time>
      </trkpt>
      <trkpt lat="48.38859" lon="2.7048">
        <ele>107.32</ele>
        <time>2016-09-17T15:10:26Z</time>
      </trkpt>
      <trkpt lat="48.38865" lon="2.70474">
        <ele>106.36</ele>
        <time>2016-09-17T15:10:31Z</time>
      </trkpt>
      <trkpt lat="48.38871" lon="2.70474">
        <ele>105.4</ele>
        <time>2016-09-17T15:10:36Z</time>
      </trkpt>
      <trkpt lat="48.38876" lon="2.70473">
        <ele>104.92</ele>
        <time>2016-09-17T15:10:40Z</time>
      </trkpt>
      <trkpt lat="48.38878" lon="2.70471">
        <ele>103.96</ele>
        <time>2016-09-17T15:10:43Z</time>
      </trkpt>
      <trkpt lat="48.38882" lon="2.70469">
        <ele>103.96</ele>
        <time>2016-09-17T15:10:46Z</time>
      </trkpt>
      <trkpt lat="48.38888" lon="2.70467">
        <ele>102.52</ele>
        <time>2016-09-17T15:10:51Z</time>
      </trkpt>
      <trkpt lat="48.38894" lon="2.70461">
        <ele>101.56</ele>
        <time>2016-09-17T15:10:56Z</time>
      </trkpt>
      <trkpt lat="48.38903" lon="2.70459">
        <ele>99.63</ele>
        <time>2016-09-17T15:11:03Z</time>
      </trkpt>
      <trkpt lat="48.38908" lon="2.70459">
        <ele>99.15</ele>
        <time>2016-09-17T15:11:07Z</time>
      </trkpt>
      <trkpt lat="48.38916" lon="2.70455">
        <ele>98.19</ele>
        <time>2016-09-17T15:11:13Z</time>
      </trkpt>
      <trkpt lat="48.38918" lon="2.70453">
        <ele>97.71</ele>
        <time>2016-09-17T15:11:15Z</time>
      </trkpt>
      <trkpt lat="48.38923" lon="2.70451">
        <ele>97.71</ele>
        <time>2016-09-17T15:11:20Z</time>
      </trkpt>
      <trkpt lat="48.3893" lon="2.70451">
        <ele>97.23</ele>
        <time>2016-09-17T15:11:25Z</time>
      </trkpt>
      <trkpt lat="48.3894" lon="2.70451">
        <ele>96.75</ele>
        <time>2016-09-17T15:11:32Z</time>
      </trkpt>
      <trkpt lat="48.38945" lon="2.7045">
        <ele>96.27</ele>
        <time>2016-09-17T15:11:35Z</time>
      </trkpt>
      <trkpt lat="48.3895" lon="2.70449">
        <ele>96.27</ele>
        <time>2016-09-17T15:11:39Z</time>
      </trkpt>
      <trkpt lat="48.38961" lon="2.70447">
        <ele>95.79</ele>
        <time>2016-09-17T15:11:47Z</time>
      </trkpt>
      <trkpt lat="48.38969" lon="2.70444">
        <ele>95.31</ele>
        <time>2016-09-17T15:11:53Z</time>
      </trkpt>
      <trkpt lat="48.38977" lon="2.70441">
        <ele>95.31</ele>
        <time>2016-09-17T15:11:59Z</time>
      </trkpt>
      <trkpt lat="48.38984" lon="2.70438">
        <ele>94.83</ele>
        <time>2016-09-17T15:12:05Z</time>
      </trkpt>
      <trkpt lat="48.38987" lon="2.70436">
        <ele>94.83</ele>
        <time>2016-09-17T15:12:07Z</time>
      </trkpt>
      <trkpt lat="48.38991" lon="2.70436">
        <ele>94.83</ele>
        <time>2016-09-17T15:12:10Z</time>
      </trkpt>
      <trkpt lat="48.38997" lon="2.70433">
        <ele>94.35</ele>
        <time>2016-09-17T15:12:15Z</time>
      </trkpt>
      <trkpt lat="48.39009" lon="2.7043">
        <ele>94.35</ele>
        <time>2016-09-17T15:12:23Z</time>
      </trkpt>
      <trkpt lat="48.39012" lon="2.70429">
        <ele>94.35</ele>
        <time>2016-09-17T15:12:25Z</time>
      </trkpt>
      <trkpt lat="48.39015" lon="2.70428">
        <ele>94.35</ele>
        <time>2016-09-17T15:12:27Z</time>
      </trkpt>
      <trkpt lat="48.39017" lon="2.70428">
        <ele>94.35</ele>
        <time>2016-09-17T15:12:29Z</time>
      </trkpt>
      <trkpt lat="48.39025" lon="2.70425">
        <ele>93.87</ele>
        <time>2016-09-17T15:12:35Z</time>
      </trkpt>
      <trkpt lat="48.39027" lon="2.70424">
        <ele>93.87</ele>
        <time>2016-09-17T15:12:38Z</time>
      </trkpt>
      <trkpt lat="48.39037" lon="2.7042">
        <ele>93.39</ele>
        <time>2016-09-17T15:12:45Z</time>
      </trkpt>
      <trkpt lat="48.39043" lon="2.7042">
        <ele>93.39</ele>
        <time>2016-09-17T15:12:49Z</time>
      </trkpt>
      <trkpt lat="48.39046" lon="2.70419">
        <ele>93.39</ele>
        <time>2016-09-17T15:12:51Z</time>
      </trkpt>
      <trkpt lat="48.39054" lon="2.70415">
        <ele>93.39</ele>
        <time>2016-09-17T15:12:57Z</time>
      </trkpt>
      <trkpt lat="48.39064" lon="2.70411">
        <ele>92.9</ele>
        <time>2016-09-17T15:13:06Z</time>
      </trkpt>
      <trkpt lat="48.39072" lon="2.70408">
        <ele>92.9</ele>
        <time>2016-09-17T15:13:12Z</time>
      </trkpt>
      <trkpt lat="48.39077" lon="2.70404">
        <ele>92.9</ele>
        <time>2016-09-17T15:13:16Z</time>
      </trkpt>
      <trkpt lat="48.39079" lon="2.70403">
        <ele>92.9</ele>
        <time>2016-09-17T15:13:17Z</time>
      </trkpt>
      <trkpt lat="48.39089" lon="2.70398">
        <ele>92.9</ele>
        <time>2016-09-17T15:13:25Z</time>
      </trkpt>
      <trkpt lat="48.39094" lon="2.70397">
        <ele>92.9</ele>
        <time>2016-09-17T15:13:29Z</time>
      </trkpt>
      <trkpt lat="48.39099" lon="2.70396">
        <ele>92.42</ele>
        <time>2016-09-17T15:13:33Z</time>
      </trkpt>
      <trkpt lat="48.39102" lon="2.70396">
        <ele>92.42</ele>
        <time>2016-09-17T15:13:35Z</time>
      </trkpt>
      <trkpt lat="48.39109" lon="2.70392">
        <ele>92.42</ele>
        <time>2016-09-17T15:13:42Z</time>
      </trkpt>
      <trkpt lat="48.3912" lon="2.70389">
        <ele>92.42</ele>
        <time>2016-09-17T15:13:50Z</time>
      </trkpt>
      <trkpt lat="48.39125" lon="2.70389">
        <ele>92.42</ele>
        <time>2016-09-17T15:13:53Z</time>
      </trkpt>
      <trkpt lat="48.39135" lon="2.70386">
        <ele>91.94</ele>
        <time>2016-09-17T15:14:00Z</time>
      </trkpt>
      <trkpt lat="48.39138" lon="2.70385">
        <ele>91.94</ele>
        <time>2016-09-17T15:14:03Z</time>
      </trkpt>
      <trkpt lat="48.39146" lon="2.7038">
        <ele>91.94</ele>
        <time>2016-09-17T15:14:09Z</time>
      </trkpt>
      <trkpt lat="48.3915" lon="2.70381">
        <ele>91.94</ele>
        <time>2016-09-17T15:14:12Z</time>
      </trkpt>
      <trkpt lat="48.39156" lon="2.7038">
        <ele>91.94</ele>
        <time>2016-09-17T15:14:16Z</time>
      </trkpt>
      <trkpt lat="48.39165" lon="2.7038">
        <ele>91.94</ele>
        <time>2016-09-17T15:14:22Z</time>
      </trkpt>
      <trkpt lat="48.39178" lon="2.70378">
        <ele>91.94</ele>
        <time>2016-09-17T15:14:29Z</time>
      </trkpt>
      <trkpt lat="48.39187" lon="2.70376">
        <ele>91.94</ele>
        <time>2016-09-17T15:14:36Z</time>
      </trkpt>
      <trkpt lat="48.39198" lon="2.70371">
        <ele>91.94</ele>
        <time>2016-09-17T15:14:43Z</time>
      </trkpt>
      <trkpt lat="48.39206" lon="2.70368">
        <ele>91.94</ele>
        <time>2016-09-17T15:14:49Z</time>
      </trkpt>
      <trkpt lat="48.39216" lon="2.70365">
        <ele>91.46</ele>
        <time>2016-09-17T15:14:55Z</time>
      </trkpt>
      <trkpt lat="48.39223" lon="2.70363">
        <ele>91.46</ele>
        <time>2016-09-17T15:15:00Z</time>
      </trkpt>
      <trkpt lat="48.39227" lon="2.70362">
        <ele>91.94</ele>
        <time>2016-09-17T15:15:03Z</time>
      </trkpt>
      <trkpt lat="48.39235" lon="2.70357">
        <ele>91.94</ele>
        <time>2016-09-17T15:15:09Z</time>
      </trkpt>
      <trkpt lat="48.39242" lon="2.70355">
        <ele>91.46</ele>
        <time>2016-09-17T15:15:15Z</time>
      </trkpt>
      <trkpt lat="48.39251" lon="2.70355">
        <ele>90.98</ele>
        <time>2016-09-17T15:15:21Z</time>
      </trkpt>
      <trkpt lat="48.39256" lon="2.70354">
        <ele>91.46</ele>
        <time>2016-09-17T15:15:26Z</time>
      </trkpt>
      <trkpt lat="48.39258" lon="2.70355">
        <ele>90.98</ele>
        <time>2016-09-17T15:15:33Z</time>
      </trkpt>
      <trkpt lat="48.39259" lon="2.70355">
        <ele>91.46</ele>
        <time>2016-09-17T15:15:38Z</time>
      </trkpt>
      <trkpt lat="48.39269" lon="2.70358">
        <ele>91.46</ele>
        <time>2016-09-17T15:15:46Z</time>
      </trkpt>
      <trkpt lat="48.39275" lon="2.70353">
        <ele>90.98</ele>
        <time>2016-09-17T15:15:51Z</time>
      </trkpt>
      <trkpt lat="48.3928" lon="2.7035">
        <ele>91.46</ele>
        <time>2016-09-17T15:15:55Z</time>
      </trkpt>
      <trkpt lat="48.39287" lon="2.70347">
        <ele>91.46</ele>
        <time>2016-09-17T15:16:01Z</time>
      </trkpt>
      <trkpt lat="48.39294" lon="2.70345">
        <ele>90.98</ele>
        <time>2016-09-17T15:16:06Z</time>
      </trkpt>
      <trkpt lat="48.39302" lon="2.70341">
        <ele>91.46</ele>
        <time>2016-09-17T15:16:11Z</time>
      </trkpt>
      <trkpt lat="48.39305" lon="2.7034">
        <ele>90.98</ele>
        <time>2016-09-17T15:16:14Z</time>
      </trkpt>
      <trkpt lat="48.39308" lon="2.70341">
        <ele>90.98</ele>
        <time>2016-09-17T15:16:16Z</time>
      </trkpt>
      <trkpt lat="48.39319" lon="2.70337">
        <ele>90.5</ele>
        <time>2016-09-17T15:16:23Z</time>
      </trkpt>
      <trkpt lat="48.3932" lon="2.70337">
        <ele>90.5</ele>
        <time>2016-09-17T15:16:24Z</time>
      </trkpt>
      <trkpt lat="48.39324" lon="2.70335">
        <ele>90.5</ele>
        <time>2016-09-17T15:16:28Z</time>
      </trkpt>
      <trkpt lat="48.39334" lon="2.70332">
        <ele>90.5</ele>
        <time>2016-09-17T15:16:35Z</time>
      </trkpt>
      <trkpt lat="48.39337" lon="2.70328">
        <ele>90.5</ele>
        <time>2016-09-17T15:16:39Z</time>
      </trkpt>
      <trkpt lat="48.39346" lon="2.70326">
        <ele>90.5</ele>
        <time>2016-09-17T15:16:45Z</time>
      </trkpt>
      <trkpt lat="48.39354" lon="2.70325">
        <ele>90.02</ele>
        <time>2016-09-17T15:16:50Z</time>
      </trkpt>
      <trkpt lat="48.39364" lon="2.70322">
        <ele>90.5</ele>
        <time>2016-09-17T15:16:57Z</time>
      </trkpt>
      <trkpt lat="48.39372" lon="2.70319">
        <ele>90.5</ele>
        <time>2016-09-17T15:17:02Z</time>
      </trkpt>
      <trkpt lat="48.39379" lon="2.70315">
        <ele>90.02</ele>
        <time>2016-09-17T15:17:08Z</time>
      </trkpt>
      <trkpt lat="48.39387" lon="2.70313">
        <ele>90.02</ele>
        <time>2016-09-17T15:17:14Z</time>
      </trkpt>
      <trkpt lat="48.3939" lon="2.70311">
        <ele>90.02</ele>
        <time>2016-09-17T15:17:16Z</time>
      </trkpt>
      <trkpt lat="48.39399" lon="2.70309">
        <ele>89.54</ele>
        <time>2016-09-17T15:17:23Z</time>
      </trkpt>
      <trkpt lat="48.39402" lon="2.70306">
        <ele>89.54</ele>
        <time>2016-09-17T15:17:25Z</time>
      </trkpt>
      <trkpt lat="48.39408" lon="2.70304">
        <ele>89.54</ele>
        <time>2016-09-17T15:17:30Z</time>
      </trkpt>
      <trkpt lat="48.39413" lon="2.70303">
        <ele>89.06</ele>
        <time>2016-09-17T15:17:33Z</time>
      </trkpt>
      <trkpt lat="48.39421" lon="2.70301">
        <ele>89.06</ele>
        <time>2016-09-17T15:17:39Z</time>
      </trkpt>
      <trkpt lat="48.39426" lon="2.70299">
        <ele>89.06</ele>
        <time>2016-09-17T15:17:43Z</time>
      </trkpt>
      <trkpt lat="48.39431" lon="2.70299">
        <ele>89.06</ele>
        <time>2016-09-17T15:17:46Z</time>
      </trkpt>
      <trkpt lat="48.3944" lon="2.70295">
        <ele>89.06</ele>
        <time>2016-09-17T15:17:53Z</time>
      </trkpt>
      <trkpt lat="48.3945" lon="2.70293">
        <ele>88.58</ele>
        <time>2016-09-17T15:18:01Z</time>
      </trkpt>
      <trkpt lat="48.39457" lon="2.70291">
        <ele>88.1</ele>
        <time>2016-09-17T15:18:06Z</time>
      </trkpt>
      <trkpt lat="48.39462" lon="2.70288">
        <ele>88.1</ele>
        <time>2016-09-17T15:18:11Z</time>
      </trkpt>
      <trkpt lat="48.39464" lon="2.70288">
        <ele>88.1</ele>
        <time>2016-09-17T15:18:13Z</time>
      </trkpt>
      <trkpt lat="48.39474" lon="2.70284">
        <ele>88.1</ele>
        <time>2016-09-17T15:18:20Z</time>
      </trkpt>
      <trkpt lat="48.39481" lon="2.70283">
        <ele>88.1</ele>
        <time>2016-09-17T15:18:25Z</time>
      </trkpt>
      <trkpt lat="48.39492" lon="2.7028">
        <ele>88.1</ele>
        <time>2016-09-17T15:18:33Z</time>
      </trkpt>
      <trkpt lat="48.39493" lon="2.70279">
        <ele>87.62</ele>
        <time>2016-09-17T15:18:34Z</time>
      </trkpt>
      <trkpt lat="48.39499" lon="2.70278">
        <ele>87.62</ele>
        <time>2016-09-17T15:18:38Z</time>
      </trkpt>
      <trkpt lat="48.3951" lon="2.70275">
        <ele>87.62</ele>
        <time>2016-09-17T15:18:45Z</time>
      </trkpt>
      <trkpt lat="48.39518" lon="2.70271">
        <ele>87.62</ele>
        <time>2016-09-17T15:18:51Z</time>
      </trkpt>
      <trkpt lat="48.3952" lon="2.7027">
        <ele>87.62</ele>
        <time>2016-09-17T15:18:53Z</time>
      </trkpt>
      <trkpt lat="48.39525" lon="2.70269">
        <ele>87.62</ele>
        <time>2016-09-17T15:18:56Z</time>
      </trkpt>
      <trkpt lat="48.39535" lon="2.70266">
        <ele>87.62</ele>
        <time>2016-09-17T15:19:03Z</time>
      </trkpt>
      <trkpt lat="48.39543" lon="2.70265">
        <ele>86.66</ele>
        <time>2016-09-17T15:19:08Z</time>
      </trkpt>
      <trkpt lat="48.39544" lon="2.70264">
        <ele>86.66</ele>
        <time>2016-09-17T15:19:09Z</time>
      </trkpt>
      <trkpt lat="48.39556" lon="2.70261">
        <ele>86.18</ele>
        <time>2016-09-17T15:19:18Z</time>
      </trkpt>
      <trkpt lat="48.39558" lon="2.70261">
        <ele>86.66</ele>
        <time>2016-09-17T15:19:20Z</time>
      </trkpt>
      <trkpt lat="48.39565" lon="2.70258">
        <ele>86.66</ele>
        <time>2016-09-17T15:19:25Z</time>
      </trkpt>
      <trkpt lat="48.39577" lon="2.70255">
        <ele>86.18</ele>
        <time>2016-09-17T15:19:34Z</time>
      </trkpt>
      <trkpt lat="48.39588" lon="2.70251">
        <ele>86.18</ele>
        <time>2016-09-17T15:19:42Z</time>
      </trkpt>
      <trkpt lat="48.39595" lon="2.70249">
        <ele>85.69</ele>
        <time>2016-09-17T15:19:47Z</time>
      </trkpt>
      <trkpt lat="48.39602" lon="2.70248">
        <ele>85.69</ele>
        <time>2016-09-17T15:19:53Z</time>
      </trkpt>
      <trkpt lat="48.39603" lon="2.70247">
        <ele>85.69</ele>
        <time>2016-09-17T15:19:54Z</time>
      </trkpt>
      <trkpt lat="48.3961" lon="2.70246">
        <ele>85.21</ele>
        <time>2016-09-17T15:19:59Z</time>
      </trkpt>
      <trkpt lat="48.39618" lon="2.70242">
        <ele>85.21</ele>
        <time>2016-09-17T15:20:05Z</time>
      </trkpt>
      <trkpt lat="48.39623" lon="2.70241">
        <ele>85.21</ele>
        <time>2016-09-17T15:20:09Z</time>
      </trkpt>
      <trkpt lat="48.39631" lon="2.70239">
        <ele>85.21</ele>
        <time>2016-09-17T15:20:16Z</time>
      </trkpt>
      <trkpt lat="48.39638" lon="2.70237">
        <ele>85.69</ele>
        <time>2016-09-17T15:20:21Z</time>
      </trkpt>
      <trkpt lat="48.39647" lon="2.70237">
        <ele>85.21</ele>
        <time>2016-09-17T15:20:28Z</time>
      </trkpt>
      <trkpt lat="48.39648" lon="2.70237">
        <ele>85.21</ele>
        <time>2016-09-17T15:20:29Z</time>
      </trkpt>
      <trkpt lat="48.39653" lon="2.70236">
        <ele>85.21</ele>
        <time>2016-09-17T15:20:33Z</time>
      </trkpt>
      <trkpt lat="48.39655" lon="2.70234">
        <ele>84.73</ele>
        <time>2016-09-17T15:20:35Z</time>
      </trkpt>
      <trkpt lat="48.39662" lon="2.70233">
        <ele>85.21</ele>
        <time>2016-09-17T15:20:41Z</time>
      </trkpt>
      <trkpt lat="48.39665" lon="2.70233">
        <ele>84.73</ele>
        <time>2016-09-17T15:20:47Z</time>
      </trkpt>
      <trkpt lat="48.39665" lon="2.70233">
        <ele>85.21</ele>
        <time>2016-09-17T15:20:50Z</time>
      </trkpt>
      <trkpt lat="48.39673" lon="2.70231">
        <ele>85.69</ele>
        <time>2016-09-17T15:20:56Z</time>
      </trkpt>
      <trkpt lat="48.39683" lon="2.70227">
        <ele>84.73</ele>
        <time>2016-09-17T15:21:03Z</time>
      </trkpt>
      <trkpt lat="48.39693" lon="2.70222">
        <ele>84.25</ele>
        <time>2016-09-17T15:21:10Z</time>
      </trkpt>
      <trkpt lat="48.39699" lon="2.70218">
        <ele>84.25</ele>
        <time>2016-09-17T15:21:18Z</time>
      </trkpt>
      <trkpt lat="48.39702" lon="2.70216">
        <ele>84.25</ele>
        <time>2016-09-17T15:21:20Z</time>
      </trkpt>
      <trkpt lat="48.39709" lon="2.70213">
        <ele>83.77</ele>
        <time>2016-09-17T15:21:27Z</time>
      </trkpt>
      <trkpt lat="48.39714" lon="2.70212">
        <ele>83.29</ele>
        <time>2016-09-17T15:21:33Z</time>
      </trkpt>
      <trkpt lat="48.39716" lon="2.70211">
        <ele>83.29</ele>
        <time>2016-09-17T15:21:35Z</time>
      </trkpt>
      <trkpt lat="48.39722" lon="2.70209">
        <ele>83.29</ele>
        <time>2016-09-17T15:21:41Z</time>
      </trkpt>
      <trkpt lat="48.39727" lon="2.70209">
        <ele>83.29</ele>
        <time>2016-09-17T15:21:46Z</time>
      </trkpt>
      <trkpt lat="48.39728" lon="2.70209">
        <ele>83.29</ele>
        <time>2016-09-17T15:21:48Z</time>
      </trkpt>
      <trkpt lat="48.39732" lon="2.70206">
        <ele>83.29</ele>
        <time>2016-09-17T15:21:53Z</time>
      </trkpt>
      <trkpt lat="48.39732" lon="2.70205">
        <ele>83.29</ele>
        <time>2016-09-17T15:21:54Z</time>
      </trkpt>
      <trkpt lat="48.39737" lon="2.70205">
        <ele>82.81</ele>
        <time>2016-09-17T15:21:59Z</time>
      </trkpt>
      <trkpt lat="48.39741" lon="2.70204">
        <ele>83.29</ele>
        <time>2016-09-17T15:22:04Z</time>
      </trkpt>
      <trkpt lat="48.39746" lon="2.70202">
        <ele>82.81</ele>
        <time>2016-09-17T15:22:11Z</time>
      </trkpt>
      <trkpt lat="48.39748" lon="2.70202">
        <ele>82.81</ele>
        <time>2016-09-17T15:22:12Z</time>
      </trkpt>
      <trkpt lat="48.39753" lon="2.70204">
        <ele>82.81</ele>
        <time>2016-09-17T15:22:19Z</time>
      </trkpt>
      <trkpt lat="48.39755" lon="2.70202">
        <ele>82.81</ele>
        <time>2016-09-17T15:22:22Z</time>
      </trkpt>
      <trkpt lat="48.39766" lon="2.702">
        <ele>82.33</ele>
        <time>2016-09-17T15:22:32Z</time>
      </trkpt>
      <trkpt lat="48.3977" lon="2.70201">
        <ele>82.33</ele>
        <time>2016-09-17T15:22:35Z</time>
      </trkpt>
      <trkpt lat="48.39774" lon="2.70199">
        <ele>82.33</ele>
        <time>2016-09-17T15:22:39Z</time>
      </trkpt>
      <trkpt lat="48.3978" lon="2.70196">
        <ele>82.33</ele>
        <time>2016-09-17T15:22:46Z</time>
      </trkpt>
      <trkpt lat="48.3978" lon="2.70195">
        <ele>82.33</ele>
        <time>2016-09-17T15:22:47Z</time>
      </trkpt>
      <trkpt lat="48.39785" lon="2.70192">
        <ele>81.85</ele>
        <time>2016-09-17T15:22:52Z</time>
      </trkpt>
      <trkpt lat="48.39793" lon="2.70187">
        <ele>81.85</ele>
        <time>2016-09-17T15:22:59Z</time>
      </trkpt>
      <trkpt lat="48.39794" lon="2.70187">
        <ele>81.85</ele>
        <time>2016-09-17T15:23:00Z</time>
      </trkpt>
      <trkpt lat="48.39796" lon="2.70186">
        <ele>81.85</ele>
        <time>2016-09-17T15:23:02Z</time>
      </trkpt>
      <trkpt lat="48.39802" lon="2.70184">
        <ele>81.37</ele>
        <time>2016-09-17T15:23:07Z</time>
      </trkpt>
      <trkpt lat="48.39805" lon="2.70183">
        <ele>81.37</ele>
        <time>2016-09-17T15:23:10Z</time>
      </trkpt>
      <trkpt lat="48.39808" lon="2.70181">
        <ele>81.37</ele>
        <time>2016-09-17T15:23:12Z</time>
      </trkpt>
      <trkpt lat="48.39814" lon="2.70179">
        <ele>81.37</ele>
        <time>2016-09-17T15:23:18Z</time>
      </trkpt>
      <trkpt lat="48.39817" lon="2.70176">
        <ele>80.89</ele>
        <time>2016-09-17T15:23:21Z</time>
      </trkpt>
      <trkpt lat="48.39822" lon="2.70174">
        <ele>81.37</ele>
        <time>2016-09-17T15:23:25Z</time>
      </trkpt>
      <trkpt lat="48.39826" lon="2.70173">
        <ele>80.89</ele>
        <time>2016-09-17T15:23:29Z</time>
      </trkpt>
      <trkpt lat="48.39833" lon="2.70168">
        <ele>80.89</ele>
        <time>2016-09-17T15:23:35Z</time>
      </trkpt>
      <trkpt lat="48.39837" lon="2.70163">
        <ele>80.89</ele>
        <time>2016-09-17T15:23:40Z</time>
      </trkpt>
      <trkpt lat="48.39845" lon="2.70162">
        <ele>80.89</ele>
        <time>2016-09-17T15:23:46Z</time>
      </trkpt>
      <trkpt lat="48.39855" lon="2.70161">
        <ele>80.89</ele>
        <time>2016-09-17T15:23:54Z</time>
      </trkpt>
      <trkpt lat="48.39857" lon="2.70161">
        <ele>80.89</ele>
        <time>2016-09-17T15:23:55Z</time>
      </trkpt>
      <trkpt lat="48.39865" lon="2.70157">
        <ele>80.89</ele>
        <time>2016-09-17T15:24:02Z</time>
      </trkpt>
      <trkpt lat="48.39872" lon="2.70155">
        <ele>80.89</ele>
        <time>2016-09-17T15:24:08Z</time>
      </trkpt>
      <trkpt lat="48.3988" lon="2.70155">
        <ele>80.41</ele>
        <time>2016-09-17T15:24:15Z</time>
      </trkpt>
      <trkpt lat="48.39882" lon="2.70155">
        <ele>80.41</ele>
        <time>2016-09-17T15:24:18Z</time>
      </trkpt>
      <trkpt lat="48.39887" lon="2.70154">
        <ele>80.41</ele>
        <time>2016-09-17T15:24:21Z</time>
      </trkpt>
      <trkpt lat="48.39895" lon="2.70154">
        <ele>80.41</ele>
        <time>2016-09-17T15:24:26Z</time>
      </trkpt>
      <trkpt lat="48.39901" lon="2.70159">
        <ele>80.41</ele>
        <time>2016-09-17T15:24:32Z</time>
      </trkpt>
      <trkpt lat="48.39905" lon="2.70161">
        <ele>80.41</ele>
        <time>2016-09-17T15:24:39Z</time>
      </trkpt>
      <trkpt lat="48.39907" lon="2.70162">
        <ele>80.41</ele>
        <time>2016-09-17T15:24:47Z</time>
      </trkpt>
      <trkpt lat="48.39909" lon="2.70161">
        <ele>80.41</ele>
        <time>2016-09-17T15:24:51Z</time>
      </trkpt>
      <trkpt lat="48.39914" lon="2.70154">
        <ele>80.41</ele>
        <time>2016-09-17T15:24:58Z</time>
      </trkpt>
      <trkpt lat="48.39916" lon="2.70155">
        <ele>80.41</ele>
        <time>2016-09-17T15:25:00Z</time>
      </trkpt>
      <trkpt lat="48.39922" lon="2.70152">
        <ele>80.89</ele>
        <time>2016-09-17T15:25:05Z</time>
      </trkpt>
      <trkpt lat="48.39926" lon="2.7015">
        <ele>80.89</ele>
        <time>2016-09-17T15:25:08Z</time>
      </trkpt>
      <trkpt lat="48.39934" lon="2.70147">
        <ele>80.89</ele>
        <time>2016-09-17T15:25:15Z</time>
      </trkpt>
      <trkpt lat="48.39941" lon="2.70143">
        <ele>80.89</ele>
        <time>2016-09-17T15:25:22Z</time>
      </trkpt>
      <trkpt lat="48.39947" lon="2.70137">
        <ele>80.89</ele>
        <time>2016-09-17T15:25:27Z</time>
      </trkpt>
      <trkpt lat="48.39949" lon="2.70136">
        <ele>80.89</ele>
        <time>2016-09-17T15:25:29Z</time>
      </trkpt>
      <trkpt lat="48.39955" lon="2.70134">
        <ele>80.89</ele>
        <time>2016-09-17T15:25:33Z</time>
      </trkpt>
      <trkpt lat="48.39961" lon="2.70134">
        <ele>80.89</ele>
        <time>2016-09-17T15:25:38Z</time>
      </trkpt>
      <trkpt lat="48.39968" lon="2.70134">
        <ele>80.89</ele>
        <time>2016-09-17T15:25:42Z</time>
      </trkpt>
      <trkpt lat="48.3998" lon="2.7013">
        <ele>80.89</ele>
        <time>2016-09-17T15:25:50Z</time>
      </trkpt>
      <trkpt lat="48.39981" lon="2.70129">
        <ele>80.89</ele>
        <time>2016-09-17T15:25:51Z</time>
      </trkpt>
      <trkpt lat="48.39988" lon="2.70125">
        <ele>81.37</ele>
        <time>2016-09-17T15:25:56Z</time>
      </trkpt>
      <trkpt lat="48.39999" lon="2.70121">
        <ele>80.89</ele>
        <time>2016-09-17T15:26:04Z</time>
      </trkpt>
      <trkpt lat="48.40004" lon="2.7012">
        <ele>80.89</ele>
        <time>2016-09-17T15:26:08Z</time>
      </trkpt>
      <trkpt lat="48.40013" lon="2.70116">
        <ele>80.41</ele>
        <time>2016-09-17T15:26:15Z</time>
      </trkpt>
      <trkpt lat="48.40022" lon="2.70113">
        <ele>80.89</ele>
        <time>2016-09-17T15:26:22Z</time>
      </trkpt>
      <trkpt lat="48.4003" lon="2.7011">
        <ele>80.89</ele>
        <time>2016-09-17T15:26:28Z</time>
      </trkpt>
      <trkpt lat="48.40038" lon="2.70107">
        <ele>80.41</ele>
        <time>2016-09-17T15:26:36Z</time>
      </trkpt>
      <trkpt lat="48.40041" lon="2.70106">
        <ele>80.41</ele>
        <time>2016-09-17T15:26:43Z</time>
      </trkpt>
      <trkpt lat="48.40041" lon="2.70104">
        <ele>80.41</ele>
        <time>2016-09-17T15:26:48Z</time>
      </trkpt>
      <trkpt lat="48.40041" lon="2.70102">
        <ele>80.41</ele>
        <time>2016-09-17T15:26:54Z</time>
      </trkpt>
      <trkpt lat="48.40041" lon="2.70101">
        <ele>80.41</ele>
        <time>2016-09-17T15:27:01Z</time>
      </trkpt>
      <trkpt lat="48.40041" lon="2.70101">
        <ele>80.41</ele>
        <time>2016-09-17T15:27:10Z</time>
      </trkpt>
      <trkpt lat="48.40042" lon="2.70101">
        <ele>79.45</ele>
        <time>2016-09-17T15:27:19Z</time>
      </trkpt>
      <trkpt lat="48.40042" lon="2.70101">
        <ele>79.45</ele>
        <time>2016-09-17T15:27:34Z</time>
      </trkpt>
      <trkpt lat="48.40042" lon="2.70102">
        <ele>79.93</ele>
        <time>2016-09-17T15:27:45Z</time>
      </trkpt>
      <trkpt lat="48.40042" lon="2.70102">
        <ele>78.97</ele>
        <time>2016-09-17T15:27:59Z</time>
      </trkpt>
      <trkpt lat="48.40043" lon="2.70101">
        <ele>79.45</ele>
        <time>2016-09-17T15:28:06Z</time>
      </trkpt>
      <trkpt lat="48.40042" lon="2.70101">
        <ele>79.93</ele>
        <time>2016-09-17T15:28:12Z</time>
      </trkpt>
      <trkpt lat="48.40043" lon="2.70101">
        <ele>79.93</ele>
        <time>2016-09-17T15:28:22Z</time>
      </trkpt>
      <trkpt lat="48.40043" lon="2.70102">
        <ele>79.93</ele>
        <time>2016-09-17T15:28:37Z</time>
      </trkpt>
      <trkpt lat="48.40043" lon="2.70101">
        <ele>79.93</ele>
        <time>2016-09-17T15:28:46Z</time>
      </trkpt>
      <trkpt lat="48.40042" lon="2.70102">
        <ele>79.93</ele>
        <time>2016-09-17T15:28:57Z</time>
      </trkpt>
      <trkpt lat="48.40042" lon="2.70102">
        <ele>79.93</ele>
        <time>2016-09-17T15:29:08Z</time>
      </trkpt>
      <trkpt lat="48.40042" lon="2.70102">
        <ele>79.45</ele>
        <time>2016-09-17T15:29:23Z</time>
      </trkpt>
      <trkpt lat="48.40043" lon="2.70102">
        <ele>79.45</ele>
        <time>2016-09-17T15:29:35Z</time>
      </trkpt>
      <trkpt lat="48.40043" lon="2.70103">
        <ele>79.45</ele>
        <time>2016-09-17T15:29:44Z</time>
      </trkpt>
      <trkpt lat="48.40043" lon="2.70103">
        <ele>79.45</ele>
        <time>2016-09-17T15:29:53Z</time>
      </trkpt>
      <trkpt lat="48.40042" lon="2.70102">
        <ele>79.45</ele>
        <time>2016-09-17T15:29:58Z</time>
      </trkpt>
      <trkpt lat="48.40042" lon="2.70102">
        <ele>79.45</ele>
        <time>2016-09-17T15:30:09Z</time>
      </trkpt>
      <trkpt lat="48.40042" lon="2.70102">
        <ele>79.45</ele>
        <time>2016-09-17T15:30:25Z</time>
      </trkpt>
      <trkpt lat="48.40043" lon="2.70101">
        <ele>78.97</ele>
        <time>2016-09-17T15:30:37Z</time>
      </trkpt>
      <trkpt lat="48.40043" lon="2.70101">
        <ele>78.97</ele>
        <time>2016-09-17T15:30:53Z</time>
      </trkpt>
      <trkpt lat="48.40043" lon="2.70102">
        <ele>78.97</ele>
        <time>2016-09-17T15:31:12Z</time>
      </trkpt>
      <trkpt lat="48.40043" lon="2.70101">
        <ele>78.97</ele>
        <time>2016-09-17T15:31:25Z</time>
      </trkpt>
      <trkpt lat="48.40043" lon="2.70101">
        <ele>78.97</ele>
        <time>2016-09-17T15:31:35Z</time>
      </trkpt>
      <trkpt lat="48.40043" lon="2.70101">
        <ele>78.97</ele>
        <time>2016-09-17T15:31:51Z</time>
      </trkpt>
      <trkpt lat="48.40043" lon="2.701">
        <ele>78.97</ele>
        <time>2016-09-17T15:32:00Z</time>
      </trkpt>
      <trkpt lat="48.40044" lon="2.701">
        <ele>78.97</ele>
        <time>2016-09-17T15:32:07Z</time>
      </trkpt>
      <trkpt lat="48.40049" lon="2.70104">
        <ele>78.97</ele>
        <time>2016-09-17T15:32:15Z</time>
      </trkpt>
      <trkpt lat="48.4005" lon="2.70105">
        <ele>78.97</ele>
        <time>2016-09-17T15:32:16Z</time>
      </trkpt>
      <trkpt lat="48.40058" lon="2.70107">
        <ele>78.48</ele>
        <time>2016-09-17T15:32:24Z</time>
      </trkpt>
      <trkpt lat="48.40067" lon="2.70108">
        <ele>78.97</ele>
        <time>2016-09-17T15:32:33Z</time>
      </trkpt>
      <trkpt lat="48.4007" lon="2.70108">
        <ele>78.48</ele>
        <time>2016-09-17T15:32:36Z</time>
      </trkpt>
      <trkpt lat="48.40075" lon="2.70106">
        <ele>78.97</ele>
        <time>2016-09-17T15:32:43Z</time>
      </trkpt>
      <trkpt lat="48.40082" lon="2.70102">
        <ele>78.97</ele>
        <time>2016-09-17T15:32:50Z</time>
      </trkpt>
      <trkpt lat="48.40093" lon="2.70099">
        <ele>78.48</ele>
        <time>2016-09-17T15:32:59Z</time>
      </trkpt>
      <trkpt lat="48.40098" lon="2.70096">
        <ele>78.48</ele>
        <time>2016-09-17T15:33:05Z</time>
      </trkpt>
      <trkpt lat="48.40103" lon="2.70094">
        <ele>78.48</ele>
        <time>2016-09-17T15:33:10Z</time>
      </trkpt>
      <trkpt lat="48.4011" lon="2.70091">
        <ele>78.97</ele>
        <time>2016-09-17T15:33:18Z</time>
      </trkpt>
      <trkpt lat="48.40115" lon="2.70088">
        <ele>78.97</ele>
        <time>2016-09-17T15:33:24Z</time>
      </trkpt>
      <trkpt lat="48.40119" lon="2.70085">
        <ele>78.97</ele>
        <time>2016-09-17T15:33:29Z</time>
      </trkpt>
      <trkpt lat="48.40122" lon="2.70084">
        <ele>78.97</ele>
        <time>2016-09-17T15:33:32Z</time>
      </trkpt>
      <trkpt lat="48.4013" lon="2.7008">
        <ele>78.97</ele>
        <time>2016-09-17T15:33:39Z</time>
      </trkpt>
      <trkpt lat="48.40136" lon="2.7008">
        <ele>78.97</ele>
        <time>2016-09-17T15:33:44Z</time>
      </trkpt>
      <trkpt lat="48.4014" lon="2.70078">
        <ele>78.97</ele>
        <time>2016-09-17T15:33:48Z</time>
      </trkpt>
      <trkpt lat="48.40142" lon="2.70077">
        <ele>78.97</ele>
        <time>2016-09-17T15:33:50Z</time>
      </trkpt>
      <trkpt lat="48.40146" lon="2.70077">
        <ele>79.45</ele>
        <time>2016-09-17T15:33:54Z</time>
      </trkpt>
      <trkpt lat="48.4015" lon="2.70076">
        <ele>78.97</ele>
        <time>2016-09-17T15:34:02Z</time>
      </trkpt>
      <trkpt lat="48.4015" lon="2.70076">
        <ele>78.97</ele>
        <time>2016-09-17T15:34:11Z</time>
      </trkpt>
      <trkpt lat="48.40151" lon="2.70077">
        <ele>78.97</ele>
        <time>2016-09-17T15:34:23Z</time>
      </trkpt>
      <trkpt lat="48.40152" lon="2.70078">
        <ele>78.97</ele>
        <time>2016-09-17T15:34:35Z</time>
      </trkpt>
      <trkpt lat="48.40152" lon="2.70078">
        <ele>79.45</ele>
        <time>2016-09-17T15:34:44Z</time>
      </trkpt>
      <trkpt lat="48.40153" lon="2.70078">
        <ele>79.93</ele>
        <time>2016-09-17T15:34:55Z</time>
      </trkpt>
      <trkpt lat="48.40153" lon="2.70078">
        <ele>79.45</ele>
        <time>2016-09-17T15:35:08Z</time>
      </trkpt>
      <trkpt lat="48.40154" lon="2.70079">
        <ele>78.48</ele>
        <time>2016-09-17T15:35:19Z</time>
      </trkpt>
      <trkpt lat="48.40154" lon="2.70079">
        <ele>78.48</ele>
        <time>2016-09-17T15:35:25Z</time>
      </trkpt>
      <trkpt lat="48.40154" lon="2.70079">
        <ele>78.48</ele>
        <time>2016-09-17T15:35:36Z</time>
      </trkpt>
      <trkpt lat="48.40154" lon="2.70079">
        <ele>78.97</ele>
        <time>2016-09-17T15:35:46Z</time>
      </trkpt>
      <trkpt lat="48.40159" lon="2.70079">
        <ele>78.48</ele>
        <time>2016-09-17T15:35:54Z</time>
      </trkpt>
      <trkpt lat="48.40161" lon="2.70079">
        <ele>78.48</ele>
        <time>2016-09-17T15:36:01Z</time>
      </trkpt>
      <trkpt lat="48.40162" lon="2.70082">
        <ele>78.48</ele>
        <time>2016-09-17T15:36:14Z</time>
      </trkpt>
      <trkpt lat="48.40163" lon="2.70084">
        <ele>78.97</ele>
        <time>2016-09-17T15:36:26Z</time>
      </trkpt>
      <trkpt lat="48.40163" lon="2.70084">
        <ele>78.48</ele>
        <time>2016-09-17T15:36:41Z</time>
      </trkpt>
      <trkpt lat="48.40163" lon="2.70084">
        <ele>78.48</ele>
        <time>2016-09-17T15:36:51Z</time>
      </trkpt>
      <trkpt lat="48.40163" lon="2.70084">
        <ele>78.48</ele>
        <time>2016-09-17T15:37:02Z</time>
      </trkpt>
      <trkpt lat="48.40163" lon="2.70084">
        <ele>78.48</ele>
        <time>2016-09-17T15:37:15Z</time>
      </trkpt>
      <trkpt lat="48.40163" lon="2.70084">
        <ele>78.48</ele>
        <time>2016-09-17T15:37:29Z</time>
      </trkpt>
      <trkpt lat="48.40163" lon="2.70084">
        <ele>78.48</ele>
        <time>2016-09-17T15:37:41Z</time>
      </trkpt>
      <trkpt lat="48.40164" lon="2.70085">
        <ele>78.48</ele>
        <time>2016-09-17T15:37:58Z</time>
      </trkpt>
      <trkpt lat="48.40164" lon="2.70085">
        <ele>78.48</ele>
        <time>2016-09-17T15:38:07Z</time>
      </trkpt>
      <trkpt lat="48.40164" lon="2.70085">
        <ele>78.48</ele>
        <time>2016-09-17T15:38:23Z</time>
      </trkpt>
      <trkpt lat="48.40164" lon="2.70084">
        <ele>78.48</ele>
        <time>2016-09-17T15:38:32Z</time>
      </trkpt>
      <trkpt lat="48.40163" lon="2.70084">
        <ele>78</ele>
        <time>2016-09-17T15:38:41Z</time>
      </trkpt>
      <trkpt lat="48.40163" lon="2.70084">
        <ele>78.48</ele>
        <time>2016-09-17T15:38:51Z</time>
      </trkpt>
      <trkpt lat="48.40163" lon="2.70084">
        <ele>78.48</ele>
        <time>2016-09-17T15:39:02Z</time>
      </trkpt>
      <trkpt lat="48.40163" lon="2.70084">
        <ele>78.48</ele>
        <time>2016-09-17T15:39:10Z</time>
      </trkpt>
      <trkpt lat="48.40163" lon="2.70083">
        <ele>78.48</ele>
        <time>2016-09-17T15:39:15Z</time>
      </trkpt>
      <trkpt lat="48.40163" lon="2.70082">
        <ele>78</ele>
        <time>2016-09-17T15:39:22Z</time>
      </trkpt>
      <trkpt lat="48.40163" lon="2.70082">
        <ele>78</ele>
        <time>2016-09-17T15:39:36Z</time>
      </trkpt>
      <trkpt lat="48.40163" lon="2.70082">
        <ele>78</ele>
        <time>2016-09-17T15:39:47Z</time>
      </trkpt>
      <trkpt lat="48.40163" lon="2.70082">
        <ele>78</ele>
        <time>2016-09-17T15:40:00Z</time>
      </trkpt>
      <trkpt lat="48.40163" lon="2.70082">
        <ele>78</ele>
        <time>2016-09-17T15:40:08Z</time>
      </trkpt>
      <trkpt lat="48.40163" lon="2.70082">
        <ele>78</ele>
        <time>2016-09-17T15:40:19Z</time>
      </trkpt>
      <trkpt lat="48.40163" lon="2.70083">
        <ele>78</ele>
        <time>2016-09-17T15:40:33Z</time>
      </trkpt>
      <trkpt lat="48.40163" lon="2.70082">
        <ele>78</ele>
        <time>2016-09-17T15:40:42Z</time>
      </trkpt>
      <trkpt lat="48.40163" lon="2.70082">
        <ele>78</ele>
        <time>2016-09-17T15:40:57Z</time>
      </trkpt>
      <trkpt lat="48.40163" lon="2.70082">
        <ele>78</ele>
        <time>2016-09-17T15:41:05Z</time>
      </trkpt>
      <trkpt lat="48.40163" lon="2.70082">
        <ele>78</ele>
        <time>2016-09-17T15:41:19Z</time>
      </trkpt>
      <trkpt lat="48.40163" lon="2.70082">
        <ele>77.52</ele>
        <time>2016-09-17T15:41:31Z</time>
      </trkpt>
      <trkpt lat="48.40163" lon="2.70082">
        <ele>78</ele>
        <time>2016-09-17T15:41:40Z</time>
      </trkpt>
      <trkpt lat="48.40163" lon="2.70082">
        <ele>78</ele>
        <time>2016-09-17T15:41:50Z</time>
      </trkpt>
      <trkpt lat="48.40163" lon="2.70082">
        <ele>78</ele>
        <time>2016-09-17T15:42:00Z</time>
      </trkpt>
      <trkpt lat="48.40163" lon="2.70082">
        <ele>77.52</ele>
        <time>2016-09-17T15:42:11Z</time>
      </trkpt>
      <trkpt lat="48.40163" lon="2.70082">
        <ele>77.52</ele>
        <time>2016-09-17T15:42:22Z</time>
      </trkpt>
      <trkpt lat="48.40163" lon="2.70082">
        <ele>77.52</ele>
        <time>2016-09-17T15:42:31Z</time>
      </trkpt>
      <trkpt lat="48.40163" lon="2.70082">
        <ele>78</ele>
        <time>2016-09-17T15:42:41Z</time>
      </trkpt>
      <trkpt lat="48.40163" lon="2.70081">
        <ele>78</ele>
        <time>2016-09-17T15:42:51Z</time>
      </trkpt>
      <trkpt lat="48.40163" lon="2.70081">
        <ele>77.52</ele>
        <time>2016-09-17T15:43:03Z</time>
      </trkpt>
      <trkpt lat="48.40163" lon="2.7008">
        <ele>77.52</ele>
        <time>2016-09-17T15:43:13Z</time>
      </trkpt>
      <trkpt lat="48.40163" lon="2.7008">
        <ele>77.52</ele>
        <time>2016-09-17T15:43:19Z</time>
      </trkpt>
      <trkpt lat="48.40164" lon="2.7008">
        <ele>77.52</ele>
        <time>2016-09-17T15:43:28Z</time>
      </trkpt>
      <trkpt lat="48.40165" lon="2.70081">
        <ele>77.52</ele>
        <time>2016-09-17T15:43:37Z</time>
      </trkpt>
      <trkpt lat="48.40164" lon="2.70081">
        <ele>77.52</ele>
        <time>2016-09-17T15:43:48Z</time>
      </trkpt>
      <trkpt lat="48.40163" lon="2.70086">
        <ele>77.52</ele>
        <time>2016-09-17T15:43:56Z</time>
      </trkpt>
      <trkpt lat="48.40163" lon="2.70088">
        <ele>77.52</ele>
        <time>2016-09-17T15:44:02Z</time>
      </trkpt>
      <trkpt lat="48.40164" lon="2.70091">
        <ele>77.52</ele>
        <time>2016-09-17T15:44:08Z</time>
      </trkpt>
      <trkpt lat="48.40164" lon="2.70092">
        <ele>77.52</ele>
        <time>2016-09-17T15:44:19Z</time>
      </trkpt>
      <trkpt lat="48.40164" lon="2.70093">
        <ele>78</ele>
        <time>2016-09-17T15:44:28Z</time>
      </trkpt>
      <trkpt lat="48.40165" lon="2.70092">
        <ele>77.52</ele>
        <time>2016-09-17T15:44:34Z</time>
      </trkpt>
      <trkpt lat="48.40165" lon="2.70096">
        <ele>77.04</ele>
        <time>2016-09-17T15:44:41Z</time>
      </trkpt>
      <trkpt lat="48.40165" lon="2.70098">
        <ele>77.04</ele>
        <time>2016-09-17T15:44:44Z</time>
      </trkpt>
      <trkpt lat="48.40167" lon="2.70105">
        <ele>76.08</ele>
        <time>2016-09-17T15:44:52Z</time>
      </trkpt>
      <trkpt lat="48.40169" lon="2.70113">
        <ele>76.08</ele>
        <time>2016-09-17T15:45:00Z</time>
      </trkpt>
      <trkpt lat="48.40171" lon="2.70119">
        <ele>75.6</ele>
        <time>2016-09-17T15:45:05Z</time>
      </trkpt>
      <trkpt lat="48.40173" lon="2.70127">
        <ele>75.6</ele>
        <time>2016-09-17T15:45:12Z</time>
      </trkpt>
      <trkpt lat="48.40176" lon="2.70133">
        <ele>75.6</ele>
        <time>2016-09-17T15:45:19Z</time>
      </trkpt>
      <trkpt lat="48.4018" lon="2.70143">
        <ele>75.6</ele>
        <time>2016-09-17T15:45:27Z</time>
      </trkpt>
      <trkpt lat="48.40183" lon="2.70153">
        <ele>75.6</ele>
        <time>2016-09-17T15:45:35Z</time>
      </trkpt>
      <trkpt lat="48.40185" lon="2.70157">
        <ele>75.6</ele>
        <time>2016-09-17T15:45:40Z</time>
      </trkpt>
      <trkpt lat="48.40188" lon="2.70166">
        <ele>75.12</ele>
        <time>2016-09-17T15:45:47Z</time>
      </trkpt>
      <trkpt lat="48.40188" lon="2.70168">
        <ele>75.12</ele>
        <time>2016-09-17T15:45:54Z</time>
      </trkpt>
      <trkpt lat="48.40188" lon="2.70171">
        <ele>75.12</ele>
        <time>2016-09-17T15:46:01Z</time>
      </trkpt>
      <trkpt lat="48.40189" lon="2.70173">
        <ele>75.12</ele>
        <time>2016-09-17T15:46:06Z</time>
      </trkpt>
      <trkpt lat="48.40193" lon="2.7018">
        <ele>75.6</ele>
        <time>2016-09-17T15:46:12Z</time>
      </trkpt>
      <trkpt lat="48.40198" lon="2.70199">
        <ele>75.6</ele>
        <time>2016-09-17T15:46:21Z</time>
      </trkpt>
      <trkpt lat="48.40206" lon="2.70222">
        <ele>75.12</ele>
        <time>2016-09-17T15:46:30Z</time>
      </trkpt>
      <trkpt lat="48.40211" lon="2.70236">
        <ele>75.12</ele>
        <time>2016-09-17T15:46:37Z</time>
      </trkpt>
      <trkpt lat="48.40215" lon="2.70248">
        <ele>75.6</ele>
        <time>2016-09-17T15:46:44Z</time>
      </trkpt>
      <trkpt lat="48.40215" lon="2.7025">
        <ele>75.6</ele>
        <time>2016-09-17T15:46:45Z</time>
      </trkpt>
      <trkpt lat="48.40222" lon="2.70267">
        <ele>75.12</ele>
        <time>2016-09-17T15:46:54Z</time>
      </trkpt>
      <trkpt lat="48.40225" lon="2.70277">
        <ele>75.12</ele>
        <time>2016-09-17T15:47:01Z</time>
      </trkpt>
      <trkpt lat="48.40226" lon="2.70282">
        <ele>75.6</ele>
        <time>2016-09-17T15:47:05Z</time>
      </trkpt>
      <trkpt lat="48.4023" lon="2.70288">
        <ele>75.12</ele>
        <time>2016-09-17T15:47:14Z</time>
      </trkpt>
      <trkpt lat="48.40232" lon="2.70297">
        <ele>75.12</ele>
        <time>2016-09-17T15:47:21Z</time>
      </trkpt>
      <trkpt lat="48.40235" lon="2.70301">
        <ele>75.12</ele>
        <time>2016-09-17T15:47:27Z</time>
      </trkpt>
      <trkpt lat="48.40236" lon="2.70302">
        <ele>75.12</ele>
        <time>2016-09-17T15:47:28Z</time>
      </trkpt>
      <trkpt lat="48.40237" lon="2.70307">
        <ele>75.12</ele>
        <time>2016-09-17T15:47:31Z</time>
      </trkpt>
      <trkpt lat="48.40242" lon="2.70319">
        <ele>75.12</ele>
        <time>2016-09-17T15:47:40Z</time>
      </trkpt>
      <trkpt lat="48.40247" lon="2.70329">
        <ele>75.12</ele>
        <time>2016-09-17T15:47:47Z</time>
      </trkpt>
      <trkpt lat="48.40249" lon="2.70333">
        <ele>75.12</ele>
        <time>2016-09-17T15:47:49Z</time>
      </trkpt>
      <trkpt lat="48.40251" lon="2.70339">
        <ele>75.12</ele>
        <time>2016-09-17T15:47:53Z</time>
      </trkpt>
      <trkpt lat="48.40252" lon="2.70343">
        <ele>75.12</ele>
        <time>2016-09-17T15:47:56Z</time>
      </trkpt>
      <trkpt lat="48.40261" lon="2.70351">
        <ele>75.12</ele>
        <time>2016-09-17T15:48:04Z</time>
      </trkpt>
      <trkpt lat="48.40267" lon="2.70351">
        <ele>75.6</ele>
        <time>2016-09-17T15:48:09Z</time>
      </trkpt>
      <trkpt lat="48.40273" lon="2.7035">
        <ele>75.6</ele>
        <time>2016-09-17T15:48:14Z</time>
      </trkpt>
      <trkpt lat="48.40276" lon="2.70349">
        <ele>76.08</ele>
        <time>2016-09-17T15:48:17Z</time>
      </trkpt>
      <trkpt lat="48.40281" lon="2.70346">
        <ele>76.08</ele>
        <time>2016-09-17T15:48:22Z</time>
      </trkpt>
      <trkpt lat="48.4029" lon="2.70346">
        <ele>76.56</ele>
        <time>2016-09-17T15:48:30Z</time>
      </trkpt>
      <trkpt lat="48.40293" lon="2.7035">
        <ele>76.56</ele>
        <time>2016-09-17T15:48:37Z</time>
      </trkpt>
      <trkpt lat="48.40298" lon="2.70359">
        <ele>76.56</ele>
        <time>2016-09-17T15:48:46Z</time>
      </trkpt>
      <trkpt lat="48.40302" lon="2.70366">
        <ele>76.08</ele>
        <time>2016-09-17T15:48:52Z</time>
      </trkpt>
      <trkpt lat="48.40303" lon="2.70369">
        <ele>76.08</ele>
        <time>2016-09-17T15:48:54Z</time>
      </trkpt>
      <trkpt lat="48.40306" lon="2.70378">
        <ele>76.08</ele>
        <time>2016-09-17T15:49:01Z</time>
      </trkpt>
      <trkpt lat="48.4031" lon="2.70386">
        <ele>76.08</ele>
        <time>2016-09-17T15:49:07Z</time>
      </trkpt>
      <trkpt lat="48.40313" lon="2.70397">
        <ele>76.56</ele>
        <time>2016-09-17T15:49:14Z</time>
      </trkpt>
      <trkpt lat="48.40315" lon="2.70404">
        <ele>76.56</ele>
        <time>2016-09-17T15:49:21Z</time>
      </trkpt>
      <trkpt lat="48.40319" lon="2.70415">
        <ele>76.56</ele>
        <time>2016-09-17T15:49:28Z</time>
      </trkpt>
      <trkpt lat="48.40321" lon="2.70417">
        <ele>76.56</ele>
        <time>2016-09-17T15:49:31Z</time>
      </trkpt>
      <trkpt lat="48.40327" lon="2.7043">
        <ele>76.56</ele>
        <time>2016-09-17T15:49:38Z</time>
      </trkpt>
      <trkpt lat="48.40331" lon="2.70444">
        <ele>76.08</ele>
        <time>2016-09-17T15:49:43Z</time>
      </trkpt>
      <trkpt lat="48.40331" lon="2.70447">
        <ele>76.08</ele>
        <time>2016-09-17T15:49:44Z</time>
      </trkpt>
      <trkpt lat="48.40338" lon="2.70469">
        <ele>76.08</ele>
        <time>2016-09-17T15:49:53Z</time>
      </trkpt>
      <trkpt lat="48.40342" lon="2.70483">
        <ele>75.6</ele>
        <time>2016-09-17T15:50:00Z</time>
      </trkpt>
      <trkpt lat="48.40347" lon="2.70497">
        <ele>75.12</ele>
        <time>2016-09-17T15:50:07Z</time>
      </trkpt>
      <trkpt lat="48.40348" lon="2.70501">
        <ele>75.12</ele>
        <time>2016-09-17T15:50:09Z</time>
      </trkpt>
      <trkpt lat="48.40347" lon="2.70515">
        <ele>74.64</ele>
        <time>2016-09-17T15:50:17Z</time>
      </trkpt>
      <trkpt lat="48.40344" lon="2.70521">
        <ele>74.64</ele>
        <time>2016-09-17T15:50:22Z</time>
      </trkpt>
      <trkpt lat="48.4034" lon="2.70524">
        <ele>74.16</ele>
        <time>2016-09-17T15:50:26Z</time>
      </trkpt>
      <trkpt lat="48.40335" lon="2.70527">
        <ele>74.16</ele>
        <time>2016-09-17T15:50:31Z</time>
      </trkpt>
      <trkpt lat="48.40333" lon="2.70528">
        <ele>73.68</ele>
        <time>2016-09-17T15:50:33Z</time>
      </trkpt>
      <trkpt lat="48.40328" lon="2.70535">
        <ele>73.68</ele>
        <time>2016-09-17T15:50:39Z</time>
      </trkpt>
      <trkpt lat="48.40323" lon="2.70538">
        <ele>73.2</ele>
        <time>2016-09-17T15:50:43Z</time>
      </trkpt>
      <trkpt lat="48.40318" lon="2.70539">
        <ele>73.2</ele>
        <time>2016-09-17T15:50:47Z</time>
      </trkpt>
      <trkpt lat="48.40316" lon="2.70539">
        <ele>72.72</ele>
        <time>2016-09-17T15:50:49Z</time>
      </trkpt>
      <trkpt lat="48.40311" lon="2.70543">
        <ele>72.72</ele>
        <time>2016-09-17T15:50:54Z</time>
      </trkpt>
      <trkpt lat="48.40305" lon="2.70543">
        <ele>72.72</ele>
        <time>2016-09-17T15:50:59Z</time>
      </trkpt>
      <trkpt lat="48.40304" lon="2.70545">
        <ele>72.24</ele>
        <time>2016-09-17T15:51:01Z</time>
      </trkpt>
      <trkpt lat="48.40298" lon="2.7055">
        <ele>72.24</ele>
        <time>2016-09-17T15:51:07Z</time>
      </trkpt>
      <trkpt lat="48.40298" lon="2.70551">
        <ele>72.24</ele>
        <time>2016-09-17T15:51:08Z</time>
      </trkpt>
      <trkpt lat="48.40296" lon="2.70553">
        <ele>72.24</ele>
        <time>2016-09-17T15:51:10Z</time>
      </trkpt>
      <trkpt lat="48.40294" lon="2.70557">
        <ele>72.24</ele>
        <time>2016-09-17T15:51:13Z</time>
      </trkpt>
      <trkpt lat="48.4029" lon="2.70562">
        <ele>71.76</ele>
        <time>2016-09-17T15:51:18Z</time>
      </trkpt>
      <trkpt lat="48.40288" lon="2.70569">
        <ele>71.76</ele>
        <time>2016-09-17T15:51:21Z</time>
      </trkpt>
      <trkpt lat="48.40282" lon="2.70575">
        <ele>71.27</ele>
        <time>2016-09-17T15:51:28Z</time>
      </trkpt>
      <trkpt lat="48.4028" lon="2.70577">
        <ele>71.27</ele>
        <time>2016-09-17T15:51:31Z</time>
      </trkpt>
      <trkpt lat="48.40278" lon="2.70578">
        <ele>71.27</ele>
        <time>2016-09-17T15:51:32Z</time>
      </trkpt>
      <trkpt lat="48.40266" lon="2.70591">
        <ele>71.27</ele>
        <time>2016-09-17T15:51:39Z</time>
      </trkpt>
      <trkpt lat="48.40261" lon="2.70598">
        <ele>70.79</ele>
        <time>2016-09-17T15:51:46Z</time>
      </trkpt>
      <trkpt lat="48.40258" lon="2.70608">
        <ele>70.79</ele>
        <time>2016-09-17T15:51:53Z</time>
      </trkpt>
      <trkpt lat="48.40256" lon="2.70612">
        <ele>70.79</ele>
        <time>2016-09-17T15:51:56Z</time>
      </trkpt>
      <trkpt lat="48.40252" lon="2.70622">
        <ele>70.31</ele>
        <time>2016-09-17T15:52:04Z</time>
      </trkpt>
      <trkpt lat="48.40257" lon="2.70635">
        <ele>70.31</ele>
        <time>2016-09-17T15:52:14Z</time>
      </trkpt>
      <trkpt lat="48.40257" lon="2.70635">
        <ele>70.31</ele>
        <time>2016-09-17T15:52:27Z</time>
      </trkpt>
      <trkpt lat="48.40258" lon="2.70635">
        <ele>70.31</ele>
        <time>2016-09-17T15:52:35Z</time>
      </trkpt>
      <trkpt lat="48.40258" lon="2.70635">
        <ele>70.31</ele>
        <time>2016-09-17T15:52:44Z</time>
      </trkpt>
      <trkpt lat="48.40257" lon="2.70635">
        <ele>70.31</ele>
        <time>2016-09-17T15:52:50Z</time>
      </trkpt>
      <trkpt lat="48.40259" lon="2.70635">
        <ele>70.31</ele>
        <time>2016-09-17T15:52:55Z</time>
      </trkpt>
      <trkpt lat="48.40259" lon="2.70635">
        <ele>70.31</ele>
        <time>2016-09-17T15:53:06Z</time>
      </trkpt>
      <trkpt lat="48.40259" lon="2.70635">
        <ele>69.83</ele>
        <time>2016-09-17T15:53:16Z</time>
      </trkpt>
      <trkpt lat="48.40258" lon="2.70635">
        <ele>70.31</ele>
        <time>2016-09-17T15:53:22Z</time>
      </trkpt>
      <trkpt lat="48.40258" lon="2.70635">
        <ele>69.83</ele>
        <time>2016-09-17T15:53:33Z</time>
      </trkpt>
      <trkpt lat="48.40258" lon="2.70634">
        <ele>69.83</ele>
        <time>2016-09-17T15:53:48Z</time>
      </trkpt>
      <trkpt lat="48.40258" lon="2.70634">
        <ele>70.31</ele>
        <time>2016-09-17T15:54:00Z</time>
      </trkpt>
      <trkpt lat="48.40258" lon="2.70634">
        <ele>69.83</ele>
        <time>2016-09-17T15:54:12Z</time>
      </trkpt>
      <trkpt lat="48.40258" lon="2.70634">
        <ele>69.83</ele>
        <time>2016-09-17T15:54:26Z</time>
      </trkpt>
      <trkpt lat="48.40258" lon="2.70634">
        <ele>69.35</ele>
        <time>2016-09-17T15:54:40Z</time>
      </trkpt>
      <trkpt lat="48.40258" lon="2.70633">
        <ele>69.83</ele>
        <time>2016-09-17T15:54:54Z</time>
      </trkpt>
      <trkpt lat="48.40258" lon="2.70633">
        <ele>69.35</ele>
        <time>2016-09-17T15:55:04Z</time>
      </trkpt>
      <trkpt lat="48.40259" lon="2.70636">
        <ele>70.31</ele>
        <time>2016-09-17T15:55:10Z</time>
      </trkpt>
      <trkpt lat="48.40261" lon="2.70636">
        <ele>69.83</ele>
        <time>2016-09-17T15:55:12Z</time>
      </trkpt>
      <trkpt lat="48.40263" lon="2.70637">
        <ele>70.31</ele>
        <time>2016-09-17T15:55:14Z</time>
      </trkpt>
      <trkpt lat="48.40265" lon="2.70638">
        <ele>70.31</ele>
        <time>2016-09-17T15:55:16Z</time>
      </trkpt>
      <trkpt lat="48.40268" lon="2.70639">
        <ele>70.31</ele>
        <time>2016-09-17T15:55:21Z</time>
      </trkpt>
      <trkpt lat="48.40272" lon="2.70647">
        <ele>70.31</ele>
        <time>2016-09-17T15:55:29Z</time>
      </trkpt>
      <trkpt lat="48.40276" lon="2.70655">
        <ele>70.31</ele>
        <time>2016-09-17T15:55:36Z</time>
      </trkpt>
      <trkpt lat="48.40279" lon="2.70664">
        <ele>70.31</ele>
        <time>2016-09-17T15:55:42Z</time>
      </trkpt>
      <trkpt lat="48.40284" lon="2.70676">
        <ele>69.83</ele>
        <time>2016-09-17T15:55:51Z</time>
      </trkpt>
      <trkpt lat="48.40287" lon="2.70687">
        <ele>69.83</ele>
        <time>2016-09-17T15:55:58Z</time>
      </trkpt>
      <trkpt lat="48.40288" lon="2.70689">
        <ele>69.83</ele>
        <time>2016-09-17T15:55:59Z</time>
      </trkpt>
      <trkpt lat="48.4029" lon="2.70699">
        <ele>69.83</ele>
        <time>2016-09-17T15:56:05Z</time>
      </trkpt>
      <trkpt lat="48.4029" lon="2.70701">
        <ele>70.79</ele>
        <time>2016-09-17T15:56:08Z</time>
      </trkpt>
      <trkpt lat="48.40292" lon="2.70705">
        <ele>69.83</ele>
        <time>2016-09-17T15:56:11Z</time>
      </trkpt>
      <trkpt lat="48.40294" lon="2.70713">
        <ele>69.83</ele>
        <time>2016-09-17T15:56:15Z</time>
      </trkpt>
      <trkpt lat="48.40298" lon="2.70722">
        <ele>70.31</ele>
        <time>2016-09-17T15:56:21Z</time>
      </trkpt>
      <trkpt lat="48.403" lon="2.70726">
        <ele>70.31</ele>
        <time>2016-09-17T15:56:24Z</time>
      </trkpt>
      <trkpt lat="48.40301" lon="2.70729">
        <ele>70.31</ele>
        <time>2016-09-17T15:56:26Z</time>
      </trkpt>
      <trkpt lat="48.40306" lon="2.70742">
        <ele>70.31</ele>
        <time>2016-09-17T15:56:34Z</time>
      </trkpt>
      <trkpt lat="48.4031" lon="2.70755">
        <ele>70.31</ele>
        <time>2016-09-17T15:56:41Z</time>
      </trkpt>
      <trkpt lat="48.40314" lon="2.70769">
        <ele>70.31</ele>
        <time>2016-09-17T15:56:49Z</time>
      </trkpt>
      <trkpt lat="48.40317" lon="2.7078">
        <ele>69.83</ele>
        <time>2016-09-17T15:56:56Z</time>
      </trkpt>
      <trkpt lat="48.4032" lon="2.7079">
        <ele>69.83</ele>
        <time>2016-09-17T15:57:01Z</time>
      </trkpt>
      <trkpt lat="48.40322" lon="2.70796">
        <ele>70.31</ele>
        <time>2016-09-17T15:57:04Z</time>
      </trkpt>
      <trkpt lat="48.40324" lon="2.708">
        <ele>69.83</ele>
        <time>2016-09-17T15:57:07Z</time>
      </trkpt>
      <trkpt lat="48.40326" lon="2.70805">
        <ele>69.83</ele>
        <time>2016-09-17T15:57:10Z</time>
      </trkpt>
      <trkpt lat="48.40329" lon="2.70814">
        <ele>70.31</ele>
        <time>2016-09-17T15:57:15Z</time>
      </trkpt>
      <trkpt lat="48.40331" lon="2.70819">
        <ele>70.31</ele>
        <time>2016-09-17T15:57:18Z</time>
      </trkpt>
      <trkpt lat="48.40335" lon="2.70827">
        <ele>70.31</ele>
        <time>2016-09-17T15:57:23Z</time>
      </trkpt>
      <trkpt lat="48.40339" lon="2.70837">
        <ele>70.31</ele>
        <time>2016-09-17T15:57:29Z</time>
      </trkpt>
      <trkpt lat="48.40343" lon="2.70852">
        <ele>69.83</ele>
        <time>2016-09-17T15:57:38Z</time>
      </trkpt>
      <trkpt lat="48.40345" lon="2.70857">
        <ele>69.83</ele>
        <time>2016-09-17T15:57:42Z</time>
      </trkpt>
      <trkpt lat="48.40347" lon="2.70871">
        <ele>69.83</ele>
        <time>2016-09-17T15:57:50Z</time>
      </trkpt>
      <trkpt lat="48.40352" lon="2.70885">
        <ele>70.31</ele>
        <time>2016-09-17T15:57:58Z</time>
      </trkpt>
      <trkpt lat="48.40357" lon="2.70898">
        <ele>70.31</ele>
        <time>2016-09-17T15:58:05Z</time>
      </trkpt>
      <trkpt lat="48.40362" lon="2.70912">
        <ele>70.31</ele>
        <time>2016-09-17T15:58:13Z</time>
      </trkpt>
      <trkpt lat="48.40367" lon="2.70923">
        <ele>70.31</ele>
        <time>2016-09-17T15:58:20Z</time>
      </trkpt>
      <trkpt lat="48.40369" lon="2.70928">
        <ele>69.83</ele>
        <time>2016-09-17T15:58:24Z</time>
      </trkpt>
      <trkpt lat="48.40371" lon="2.7093">
        <ele>70.31</ele>
        <time>2016-09-17T15:58:27Z</time>
      </trkpt>
      <trkpt lat="48.40374" lon="2.70932">
        <ele>70.31</ele>
        <time>2016-09-17T15:58:29Z</time>
      </trkpt>
      <trkpt lat="48.40377" lon="2.70934">
        <ele>70.31</ele>
        <time>2016-09-17T15:58:33Z</time>
      </trkpt>
      <trkpt lat="48.4038" lon="2.70933">
        <ele>70.79</ele>
        <time>2016-09-17T15:58:35Z</time>
      </trkpt>
      <trkpt lat="48.40384" lon="2.70929">
        <ele>70.79</ele>
        <time>2016-09-17T15:58:41Z</time>
      </trkpt>
      <trkpt lat="48.40387" lon="2.70925">
        <ele>70.79</ele>
        <time>2016-09-17T15:58:46Z</time>
      </trkpt>
      <trkpt lat="48.40393" lon="2.70918">
        <ele>71.27</ele>
        <time>2016-09-17T15:58:54Z</time>
      </trkpt>
      <trkpt lat="48.40398" lon="2.70914">
        <ele>71.27</ele>
        <time>2016-09-17T15:58:59Z</time>
      </trkpt>
      <trkpt lat="48.40402" lon="2.70905">
        <ele>71.27</ele>
        <time>2016-09-17T15:59:07Z</time>
      </trkpt>
      <trkpt lat="48.40408" lon="2.70897">
        <ele>71.27</ele>
        <time>2016-09-17T15:59:14Z</time>
      </trkpt>
      <trkpt lat="48.40416" lon="2.70891">
        <ele>71.27</ele>
        <time>2016-09-17T15:59:22Z</time>
      </trkpt>
      <trkpt lat="48.40421" lon="2.70891">
        <ele>71.27</ele>
        <time>2016-09-17T15:59:28Z</time>
      </trkpt>
      <trkpt lat="48.40424" lon="2.7089">
        <ele>71.27</ele>
        <time>2016-09-17T15:59:30Z</time>
      </trkpt>
      <trkpt lat="48.40432" lon="2.70893">
        <ele>71.27</ele>
        <time>2016-09-17T15:59:38Z</time>
      </trkpt>
      <trkpt lat="48.40438" lon="2.7089">
        <ele>71.27</ele>
        <time>2016-09-17T15:59:44Z</time>
      </trkpt>
      <trkpt lat="48.40446" lon="2.70888">
        <ele>71.27</ele>
        <time>2016-09-17T15:59:51Z</time>
      </trkpt>
      <trkpt lat="48.40456" lon="2.70887">
        <ele>71.27</ele>
        <time>2016-09-17T15:59:59Z</time>
      </trkpt>
      <trkpt lat="48.40459" lon="2.70889">
        <ele>71.76</ele>
        <time>2016-09-17T16:00:05Z</time>
      </trkpt>
      <trkpt lat="48.40463" lon="2.70894">
        <ele>71.76</ele>
        <time>2016-09-17T16:00:12Z</time>
      </trkpt>
      <trkpt lat="48.40469" lon="2.70899">
        <ele>71.27</ele>
        <time>2016-09-17T16:00:17Z</time>
      </trkpt>
      <trkpt lat="48.40473" lon="2.70904">
        <ele>71.76</ele>
        <time>2016-09-17T16:00:22Z</time>
      </trkpt>
      <trkpt lat="48.40477" lon="2.70916">
        <ele>71.76</ele>
        <time>2016-09-17T16:00:29Z</time>
      </trkpt>
      <trkpt lat="48.40482" lon="2.70927">
        <ele>71.76</ele>
        <time>2016-09-17T16:00:34Z</time>
      </trkpt>
      <trkpt lat="48.40486" lon="2.70939">
        <ele>71.27</ele>
        <time>2016-09-17T16:00:41Z</time>
      </trkpt>
      <trkpt lat="48.40487" lon="2.7094">
        <ele>71.27</ele>
        <time>2016-09-17T16:00:42Z</time>
      </trkpt>
      <trkpt lat="48.40492" lon="2.70956">
        <ele>71.27</ele>
        <time>2016-09-17T16:00:51Z</time>
      </trkpt>
      <trkpt lat="48.40495" lon="2.70963">
        <ele>71.27</ele>
        <time>2016-09-17T16:00:55Z</time>
      </trkpt>
      <trkpt lat="48.405" lon="2.70979">
        <ele>70.79</ele>
        <time>2016-09-17T16:01:04Z</time>
      </trkpt>
      <trkpt lat="48.40505" lon="2.70992">
        <ele>71.27</ele>
        <time>2016-09-17T16:01:11Z</time>
      </trkpt>
      <trkpt lat="48.40511" lon="2.71004">
        <ele>71.27</ele>
        <time>2016-09-17T16:01:18Z</time>
      </trkpt>
      <trkpt lat="48.40512" lon="2.71014">
        <ele>71.27</ele>
        <time>2016-09-17T16:01:24Z</time>
      </trkpt>
      <trkpt lat="48.40517" lon="2.71026">
        <ele>71.76</ele>
        <time>2016-09-17T16:01:30Z</time>
      </trkpt>
      <trkpt lat="48.40521" lon="2.71039">
        <ele>71.27</ele>
        <time>2016-09-17T16:01:37Z</time>
      </trkpt>
      <trkpt lat="48.40524" lon="2.71045">
        <ele>71.27</ele>
        <time>2016-09-17T16:01:42Z</time>
      </trkpt>
      <trkpt lat="48.40524" lon="2.71047">
        <ele>71.27</ele>
        <time>2016-09-17T16:01:43Z</time>
      </trkpt>
      <trkpt lat="48.40528" lon="2.71057">
        <ele>70.79</ele>
        <time>2016-09-17T16:01:50Z</time>
      </trkpt>
      <trkpt lat="48.40529" lon="2.71062">
        <ele>71.27</ele>
        <time>2016-09-17T16:01:53Z</time>
      </trkpt>
      <trkpt lat="48.40531" lon="2.71068">
        <ele>71.27</ele>
        <time>2016-09-17T16:01:56Z</time>
      </trkpt>
      <trkpt lat="48.40533" lon="2.71073">
        <ele>70.79</ele>
        <time>2016-09-17T16:01:59Z</time>
      </trkpt>
      <trkpt lat="48.40537" lon="2.71085">
        <ele>71.27</ele>
        <time>2016-09-17T16:02:06Z</time>
      </trkpt>
      <trkpt lat="48.40539" lon="2.71091">
        <ele>71.27</ele>
        <time>2016-09-17T16:02:10Z</time>
      </trkpt>
      <trkpt lat="48.4054" lon="2.71096">
        <ele>71.27</ele>
        <time>2016-09-17T16:02:12Z</time>
      </trkpt>
      <trkpt lat="48.40545" lon="2.7111">
        <ele>71.27</ele>
        <time>2016-09-17T16:02:19Z</time>
      </trkpt>
      <trkpt lat="48.4055" lon="2.71124">
        <ele>70.79</ele>
        <time>2016-09-17T16:02:26Z</time>
      </trkpt>
      <trkpt lat="48.40554" lon="2.71136">
        <ele>70.79</ele>
        <time>2016-09-17T16:02:33Z</time>
      </trkpt>
      <trkpt lat="48.40559" lon="2.71151">
        <ele>70.79</ele>
        <time>2016-09-17T16:02:41Z</time>
      </trkpt>
      <trkpt lat="48.40563" lon="2.71163">
        <ele>70.31</ele>
        <time>2016-09-17T16:02:48Z</time>
      </trkpt>
      <trkpt lat="48.40567" lon="2.71174">
        <ele>70.31</ele>
        <time>2016-09-17T16:02:54Z</time>
      </trkpt>
      <trkpt lat="48.4057" lon="2.7118">
        <ele>70.31</ele>
        <time>2016-09-17T16:02:58Z</time>
      </trkpt>
      <trkpt lat="48.40574" lon="2.71193">
        <ele>69.83</ele>
        <time>2016-09-17T16:03:05Z</time>
      </trkpt>
      <trkpt lat="48.40579" lon="2.71206">
        <ele>69.83</ele>
        <time>2016-09-17T16:03:12Z</time>
      </trkpt>
      <trkpt lat="48.40583" lon="2.71219">
        <ele>69.83</ele>
        <time>2016-09-17T16:03:20Z</time>
      </trkpt>
      <trkpt lat="48.40583" lon="2.71221">
        <ele>69.83</ele>
        <time>2016-09-17T16:03:21Z</time>
      </trkpt>
      <trkpt lat="48.40585" lon="2.71227">
        <ele>69.83</ele>
        <time>2016-09-17T16:03:25Z</time>
      </trkpt>
      <trkpt lat="48.40586" lon="2.71231">
        <ele>69.83</ele>
        <time>2016-09-17T16:03:27Z</time>
      </trkpt>
      <trkpt lat="48.40587" lon="2.71235">
        <ele>69.83</ele>
        <time>2016-09-17T16:03:30Z</time>
      </trkpt>
      <trkpt lat="48.4059" lon="2.71246">
        <ele>69.83</ele>
        <time>2016-09-17T16:03:37Z</time>
      </trkpt>
      <trkpt lat="48.40592" lon="2.71253">
        <ele>69.83</ele>
        <time>2016-09-17T16:03:41Z</time>
      </trkpt>
      <trkpt lat="48.40593" lon="2.71256">
        <ele>69.83</ele>
        <time>2016-09-17T16:03:43Z</time>
      </trkpt>
      <trkpt lat="48.40595" lon="2.7126">
        <ele>69.83</ele>
        <time>2016-09-17T16:03:46Z</time>
      </trkpt>
      <trkpt lat="48.406" lon="2.71277">
        <ele>69.83</ele>
        <time>2016-09-17T16:03:56Z</time>
      </trkpt>
      <trkpt lat="48.40601" lon="2.7128">
        <ele>69.35</ele>
        <time>2016-09-17T16:03:57Z</time>
      </trkpt>
      <trkpt lat="48.40609" lon="2.71297">
        <ele>69.35</ele>
        <time>2016-09-17T16:04:04Z</time>
      </trkpt>
      <trkpt lat="48.40614" lon="2.71312">
        <ele>69.35</ele>
        <time>2016-09-17T16:04:11Z</time>
      </trkpt>
      <trkpt lat="48.40619" lon="2.71325">
        <ele>69.35</ele>
        <time>2016-09-17T16:04:17Z</time>
      </trkpt>
      <trkpt lat="48.40625" lon="2.71342">
        <ele>69.35</ele>
        <time>2016-09-17T16:04:26Z</time>
      </trkpt>
      <trkpt lat="48.40629" lon="2.71356">
        <ele>68.87</ele>
        <time>2016-09-17T16:04:34Z</time>
      </trkpt>
      <trkpt lat="48.40633" lon="2.71365">
        <ele>68.87</ele>
        <time>2016-09-17T16:04:40Z</time>
      </trkpt>
      <trkpt lat="48.40637" lon="2.71377">
        <ele>68.87</ele>
        <time>2016-09-17T16:04:47Z</time>
      </trkpt>
      <trkpt lat="48.4064" lon="2.71387">
        <ele>68.87</ele>
        <time>2016-09-17T16:04:53Z</time>
      </trkpt>
      <trkpt lat="48.40644" lon="2.71401">
        <ele>68.87</ele>
        <time>2016-09-17T16:05:00Z</time>
      </trkpt>
      <trkpt lat="48.40649" lon="2.71412">
        <ele>68.87</ele>
        <time>2016-09-17T16:05:06Z</time>
      </trkpt>
      <trkpt lat="48.4065" lon="2.71415">
        <ele>68.87</ele>
        <time>2016-09-17T16:05:08Z</time>
      </trkpt>
      <trkpt lat="48.40651" lon="2.7142">
        <ele>68.87</ele>
        <time>2016-09-17T16:05:11Z</time>
      </trkpt>
      <trkpt lat="48.40655" lon="2.71434">
        <ele>68.87</ele>
        <time>2016-09-17T16:05:17Z</time>
      </trkpt>
      <trkpt lat="48.40659" lon="2.71448">
        <ele>68.87</ele>
        <time>2016-09-17T16:05:24Z</time>
      </trkpt>
      <trkpt lat="48.40662" lon="2.71454">
        <ele>68.39</ele>
        <time>2016-09-17T16:05:27Z</time>
      </trkpt>
      <trkpt lat="48.40668" lon="2.71468">
        <ele>68.39</ele>
        <time>2016-09-17T16:05:34Z</time>
      </trkpt>
      <trkpt lat="48.40671" lon="2.71478">
        <ele>68.39</ele>
        <time>2016-09-17T16:05:40Z</time>
      </trkpt>
      <trkpt lat="48.40675" lon="2.71492">
        <ele>68.39</ele>
        <time>2016-09-17T16:05:47Z</time>
      </trkpt>
      <trkpt lat="48.40681" lon="2.71506">
        <ele>68.39</ele>
        <time>2016-09-17T16:05:55Z</time>
      </trkpt>
      <trkpt lat="48.40684" lon="2.71513">
        <ele>68.39</ele>
        <time>2016-09-17T16:06:01Z</time>
      </trkpt>
      <trkpt lat="48.40684" lon="2.71514">
        <ele>68.39</ele>
        <time>2016-09-17T16:06:02Z</time>
      </trkpt>
      <trkpt lat="48.4069" lon="2.71531">
        <ele>68.39</ele>
        <time>2016-09-17T16:06:12Z</time>
      </trkpt>
      <trkpt lat="48.40692" lon="2.71541">
        <ele>68.39</ele>
        <time>2016-09-17T16:06:19Z</time>
      </trkpt>
      <trkpt lat="48.40695" lon="2.71546">
        <ele>67.91</ele>
        <time>2016-09-17T16:06:23Z</time>
      </trkpt>
      <trkpt lat="48.40696" lon="2.71552">
        <ele>67.91</ele>
        <time>2016-09-17T16:06:27Z</time>
      </trkpt>
      <trkpt lat="48.407" lon="2.71566">
        <ele>67.91</ele>
        <time>2016-09-17T16:06:34Z</time>
      </trkpt>
      <trkpt lat="48.40704" lon="2.71576">
        <ele>67.91</ele>
        <time>2016-09-17T16:06:41Z</time>
      </trkpt>
      <trkpt lat="48.40706" lon="2.71588">
        <ele>67.91</ele>
        <time>2016-09-17T16:06:48Z</time>
      </trkpt>
      <trkpt lat="48.40709" lon="2.71598">
        <ele>67.91</ele>
        <time>2016-09-17T16:06:55Z</time>
      </trkpt>
      <trkpt lat="48.40716" lon="2.71618">
        <ele>67.43</ele>
        <time>2016-09-17T16:07:03Z</time>
      </trkpt>
      <trkpt lat="48.40721" lon="2.71629">
        <ele>67.91</ele>
        <time>2016-09-17T16:07:08Z</time>
      </trkpt>
      <trkpt lat="48.40727" lon="2.71644">
        <ele>67.91</ele>
        <time>2016-09-17T16:07:15Z</time>
      </trkpt>
      <trkpt lat="48.40732" lon="2.71656">
        <ele>67.91</ele>
        <time>2016-09-17T16:07:22Z</time>
      </trkpt>
      <trkpt lat="48.40734" lon="2.71662">
        <ele>67.91</ele>
        <time>2016-09-17T16:07:27Z</time>
      </trkpt>
      <trkpt lat="48.40736" lon="2.71665">
        <ele>67.91</ele>
        <time>2016-09-17T16:07:29Z</time>
      </trkpt>
      <trkpt lat="48.40739" lon="2.71676">
        <ele>67.91</ele>
        <time>2016-09-17T16:07:36Z</time>
      </trkpt>
      <trkpt lat="48.40743" lon="2.71686">
        <ele>67.91</ele>
        <time>2016-09-17T16:07:42Z</time>
      </trkpt>
      <trkpt lat="48.40748" lon="2.717">
        <ele>67.91</ele>
        <time>2016-09-17T16:07:49Z</time>
      </trkpt>
      <trkpt lat="48.40752" lon="2.71714">
        <ele>67.91</ele>
        <time>2016-09-17T16:07:57Z</time>
      </trkpt>
      <trkpt lat="48.40754" lon="2.71718">
        <ele>67.91</ele>
        <time>2016-09-17T16:08:00Z</time>
      </trkpt>
      <trkpt lat="48.40757" lon="2.71727">
        <ele>67.91</ele>
        <time>2016-09-17T16:08:05Z</time>
      </trkpt>
      <trkpt lat="48.40759" lon="2.71736">
        <ele>68.39</ele>
        <time>2016-09-17T16:08:09Z</time>
      </trkpt>
      <trkpt lat="48.40763" lon="2.71746">
        <ele>67.91</ele>
        <time>2016-09-17T16:08:15Z</time>
      </trkpt>
      <trkpt lat="48.40766" lon="2.71756">
        <ele>67.91</ele>
        <time>2016-09-17T16:08:21Z</time>
      </trkpt>
      <trkpt lat="48.40768" lon="2.71759">
        <ele>67.91</ele>
        <time>2016-09-17T16:08:23Z</time>
      </trkpt>
      <trkpt lat="48.40772" lon="2.71768">
        <ele>67.91</ele>
        <time>2016-09-17T16:08:30Z</time>
      </trkpt>
      <trkpt lat="48.40772" lon="2.71772">
        <ele>67.91</ele>
        <time>2016-09-17T16:08:32Z</time>
      </trkpt>
      <trkpt lat="48.40778" lon="2.71788">
        <ele>67.43</ele>
        <time>2016-09-17T16:08:41Z</time>
      </trkpt>
      <trkpt lat="48.40783" lon="2.71804">
        <ele>67.43</ele>
        <time>2016-09-17T16:08:49Z</time>
      </trkpt>
      <trkpt lat="48.40786" lon="2.71818">
        <ele>67.43</ele>
        <time>2016-09-17T16:08:56Z</time>
      </trkpt>
      <trkpt lat="48.40791" lon="2.71828">
        <ele>67.43</ele>
        <time>2016-09-17T16:09:03Z</time>
      </trkpt>
      <trkpt lat="48.40792" lon="2.71829">
        <ele>67.43</ele>
        <time>2016-09-17T16:09:05Z</time>
      </trkpt>
      <trkpt lat="48.40793" lon="2.71833">
        <ele>67.91</ele>
        <time>2016-09-17T16:09:07Z</time>
      </trkpt>
      <trkpt lat="48.40796" lon="2.71841">
        <ele>67.91</ele>
        <time>2016-09-17T16:09:12Z</time>
      </trkpt>
      <trkpt lat="48.40798" lon="2.71847">
        <ele>67.91</ele>
        <time>2016-09-17T16:09:19Z</time>
      </trkpt>
      <trkpt lat="48.40802" lon="2.71861">
        <ele>67.91</ele>
        <time>2016-09-17T16:09:27Z</time>
      </trkpt>
      <trkpt lat="48.40805" lon="2.71871">
        <ele>67.91</ele>
        <time>2016-09-17T16:09:31Z</time>
      </trkpt>
      <trkpt lat="48.40813" lon="2.71885">
        <ele>67.91</ele>
        <time>2016-09-17T16:09:39Z</time>
      </trkpt>
      <trkpt lat="48.40817" lon="2.71896">
        <ele>67.91</ele>
        <time>2016-09-17T16:09:45Z</time>
      </trkpt>
      <trkpt lat="48.40819" lon="2.71911">
        <ele>67.91</ele>
        <time>2016-09-17T16:09:52Z</time>
      </trkpt>
      <trkpt lat="48.40822" lon="2.71914">
        <ele>67.91</ele>
        <time>2016-09-17T16:09:55Z</time>
      </trkpt>
      <trkpt lat="48.40827" lon="2.71926">
        <ele>68.87</ele>
        <time>2016-09-17T16:10:03Z</time>
      </trkpt>
      <trkpt lat="48.40832" lon="2.71936">
        <ele>68.87</ele>
        <time>2016-09-17T16:10:09Z</time>
      </trkpt>
      <trkpt lat="48.40837" lon="2.71956">
        <ele>68.87</ele>
        <time>2016-09-17T16:10:16Z</time>
      </trkpt>
      <trkpt lat="48.40839" lon="2.71961">
        <ele>68.87</ele>
        <time>2016-09-17T16:10:18Z</time>
      </trkpt>
      <trkpt lat="48.40841" lon="2.71973">
        <ele>69.35</ele>
        <time>2016-09-17T16:10:24Z</time>
      </trkpt>
      <trkpt lat="48.40841" lon="2.71975">
        <ele>68.87</ele>
        <time>2016-09-17T16:10:25Z</time>
      </trkpt>
      <trkpt lat="48.40835" lon="2.71976">
        <ele>68.87</ele>
        <time>2016-09-17T16:10:30Z</time>
      </trkpt>
      <trkpt lat="48.40827" lon="2.71977">
        <ele>67.91</ele>
        <time>2016-09-17T16:10:36Z</time>
      </trkpt>
      <trkpt lat="48.40826" lon="2.71979">
        <ele>67.91</ele>
        <time>2016-09-17T16:10:44Z</time>
      </trkpt>
      <trkpt lat="48.40838" lon="2.72002">
        <ele>67.91</ele>
        <time>2016-09-17T16:10:57Z</time>
      </trkpt>
      <trkpt lat="48.40839" lon="2.72004">
        <ele>68.39</ele>
        <time>2016-09-17T16:11:04Z</time>
      </trkpt>
      <trkpt lat="48.40842" lon="2.72003">
        <ele>68.87</ele>
        <time>2016-09-17T16:11:08Z</time>
      </trkpt>
      <trkpt lat="48.40851" lon="2.72001">
        <ele>69.35</ele>
        <time>2016-09-17T16:11:15Z</time>
      </trkpt>
      <trkpt lat="48.40862" lon="2.71996">
        <ele>69.35</ele>
        <time>2016-09-17T16:11:22Z</time>
      </trkpt>
      <trkpt lat="48.40872" lon="2.71987">
        <ele>69.35</ele>
        <time>2016-09-17T16:11:28Z</time>
      </trkpt>
      <trkpt lat="48.40882" lon="2.71979">
        <ele>69.35</ele>
        <time>2016-09-17T16:11:33Z</time>
      </trkpt>
      <trkpt lat="48.40889" lon="2.71976">
        <ele>69.35</ele>
        <time>2016-09-17T16:11:37Z</time>
      </trkpt>
      <trkpt lat="48.40894" lon="2.71974">
        <ele>69.35</ele>
        <time>2016-09-17T16:11:41Z</time>
      </trkpt>
      <trkpt lat="48.409" lon="2.71969">
        <ele>69.35</ele>
        <time>2016-09-17T16:11:49Z</time>
      </trkpt>
      <trkpt lat="48.40903" lon="2.71963">
        <ele>69.35</ele>
        <time>2016-09-17T16:11:52Z</time>
      </trkpt>
      <trkpt lat="48.40906" lon="2.71961">
        <ele>69.83</ele>
        <time>2016-09-17T16:11:54Z</time>
      </trkpt>
      <trkpt lat="48.40912" lon="2.71954">
        <ele>70.31</ele>
        <time>2016-09-17T16:11:59Z</time>
      </trkpt>
      <trkpt lat="48.40922" lon="2.71946">
        <ele>70.31</ele>
        <time>2016-09-17T16:12:05Z</time>
      </trkpt>
      <trkpt lat="48.40928" lon="2.71939">
        <ele>71.27</ele>
        <time>2016-09-17T16:12:13Z</time>
      </trkpt>
      <trkpt lat="48.40931" lon="2.71938">
        <ele>71.27</ele>
        <time>2016-09-17T16:12:16Z</time>
      </trkpt>
      <trkpt lat="48.40935" lon="2.71936">
        <ele>72.24</ele>
        <time>2016-09-17T16:12:20Z</time>
      </trkpt>
      <trkpt lat="48.4094" lon="2.71932">
        <ele>72.24</ele>
        <time>2016-09-17T16:12:23Z</time>
      </trkpt>
      <trkpt lat="48.40944" lon="2.71929">
        <ele>72.72</ele>
        <time>2016-09-17T16:12:25Z</time>
      </trkpt>
      <trkpt lat="48.40947" lon="2.71925">
        <ele>72.72</ele>
        <time>2016-09-17T16:12:27Z</time>
      </trkpt>
      <trkpt lat="48.40956" lon="2.71917">
        <ele>73.68</ele>
        <time>2016-09-17T16:12:31Z</time>
      </trkpt>
      <trkpt lat="48.4096" lon="2.71913">
        <ele>73.68</ele>
        <time>2016-09-17T16:12:34Z</time>
      </trkpt>
      <trkpt lat="48.4097" lon="2.71903">
        <ele>74.64</ele>
        <time>2016-09-17T16:12:42Z</time>
      </trkpt>
      <trkpt lat="48.40971" lon="2.71902">
        <ele>75.12</ele>
        <time>2016-09-17T16:12:43Z</time>
      </trkpt>
      <trkpt lat="48.40987" lon="2.71884">
        <ele>75.6</ele>
        <time>2016-09-17T16:12:53Z</time>
      </trkpt>
      <trkpt lat="48.40989" lon="2.71884">
        <ele>76.08</ele>
        <time>2016-09-17T16:12:56Z</time>
      </trkpt>
      <trkpt lat="48.40995" lon="2.71882">
        <ele>76.56</ele>
        <time>2016-09-17T16:13:01Z</time>
      </trkpt>
      <trkpt lat="48.41003" lon="2.71877">
        <ele>77.52</ele>
        <time>2016-09-17T16:13:08Z</time>
      </trkpt>
      <trkpt lat="48.41013" lon="2.71872">
        <ele>78</ele>
        <time>2016-09-17T16:13:15Z</time>
      </trkpt>
      <trkpt lat="48.41019" lon="2.71872">
        <ele>78.48</ele>
        <time>2016-09-17T16:13:19Z</time>
      </trkpt>
      <trkpt lat="48.41026" lon="2.7187">
        <ele>78.97</ele>
        <time>2016-09-17T16:13:27Z</time>
      </trkpt>
      <trkpt lat="48.4103" lon="2.71865">
        <ele>79.93</ele>
        <time>2016-09-17T16:13:33Z</time>
      </trkpt>
      <trkpt lat="48.41036" lon="2.71858">
        <ele>80.41</ele>
        <time>2016-09-17T16:13:39Z</time>
      </trkpt>
      <trkpt lat="48.41041" lon="2.71853">
        <ele>80.89</ele>
        <time>2016-09-17T16:13:45Z</time>
      </trkpt>
      <trkpt lat="48.41043" lon="2.71852">
        <ele>80.89</ele>
        <time>2016-09-17T16:13:46Z</time>
      </trkpt>
      <trkpt lat="48.41053" lon="2.71841">
        <ele>81.85</ele>
        <time>2016-09-17T16:13:54Z</time>
      </trkpt>
      <trkpt lat="48.41055" lon="2.71838">
        <ele>82.33</ele>
        <time>2016-09-17T16:13:56Z</time>
      </trkpt>
      <trkpt lat="48.41063" lon="2.71827">
        <ele>82.81</ele>
        <time>2016-09-17T16:14:05Z</time>
      </trkpt>
      <trkpt lat="48.41065" lon="2.71827">
        <ele>83.29</ele>
        <time>2016-09-17T16:14:07Z</time>
      </trkpt>
      <trkpt lat="48.4107" lon="2.71818">
        <ele>84.25</ele>
        <time>2016-09-17T16:14:14Z</time>
      </trkpt>
      <trkpt lat="48.41072" lon="2.71818">
        <ele>84.25</ele>
        <time>2016-09-17T16:14:15Z</time>
      </trkpt>
      <trkpt lat="48.41076" lon="2.71814">
        <ele>84.73</ele>
        <time>2016-09-17T16:14:20Z</time>
      </trkpt>
      <trkpt lat="48.4108" lon="2.71815">
        <ele>84.73</ele>
        <time>2016-09-17T16:14:24Z</time>
      </trkpt>
      <trkpt lat="48.41085" lon="2.71813">
        <ele>85.69</ele>
        <time>2016-09-17T16:14:28Z</time>
      </trkpt>
      <trkpt lat="48.41093" lon="2.71805">
        <ele>86.18</ele>
        <time>2016-09-17T16:14:35Z</time>
      </trkpt>
      <trkpt lat="48.41098" lon="2.71802">
        <ele>86.66</ele>
        <time>2016-09-17T16:14:39Z</time>
      </trkpt>
      <trkpt lat="48.41108" lon="2.71792">
        <ele>87.14</ele>
        <time>2016-09-17T16:14:47Z</time>
      </trkpt>
      <trkpt lat="48.41116" lon="2.71786">
        <ele>87.62</ele>
        <time>2016-09-17T16:14:53Z</time>
      </trkpt>
      <trkpt lat="48.41124" lon="2.71779">
        <ele>87.62</ele>
        <time>2016-09-17T16:14:59Z</time>
      </trkpt>
      <trkpt lat="48.41127" lon="2.71776">
        <ele>88.1</ele>
        <time>2016-09-17T16:15:03Z</time>
      </trkpt>
      <trkpt lat="48.41134" lon="2.71773">
        <ele>88.58</ele>
        <time>2016-09-17T16:15:08Z</time>
      </trkpt>
      <trkpt lat="48.41141" lon="2.71766">
        <ele>88.58</ele>
        <time>2016-09-17T16:15:13Z</time>
      </trkpt>
      <trkpt lat="48.41145" lon="2.71766">
        <ele>89.06</ele>
        <time>2016-09-17T16:15:16Z</time>
      </trkpt>
      <trkpt lat="48.41153" lon="2.7176">
        <ele>89.06</ele>
        <time>2016-09-17T16:15:22Z</time>
      </trkpt>
      <trkpt lat="48.4116" lon="2.71753">
        <ele>89.54</ele>
        <time>2016-09-17T16:15:29Z</time>
      </trkpt>
      <trkpt lat="48.41167" lon="2.71749">
        <ele>90.02</ele>
        <time>2016-09-17T16:15:35Z</time>
      </trkpt>
      <trkpt lat="48.41173" lon="2.71742">
        <ele>90.02</ele>
        <time>2016-09-17T16:15:41Z</time>
      </trkpt>
      <trkpt lat="48.41178" lon="2.71739">
        <ele>90.5</ele>
        <time>2016-09-17T16:15:45Z</time>
      </trkpt>
      <trkpt lat="48.41186" lon="2.71732">
        <ele>90.5</ele>
        <time>2016-09-17T16:15:52Z</time>
      </trkpt>
      <trkpt lat="48.41197" lon="2.71727">
        <ele>90.5</ele>
        <time>2016-09-17T16:15:59Z</time>
      </trkpt>
      <trkpt lat="48.41205" lon="2.7173">
        <ele>90.98</ele>
        <time>2016-09-17T16:16:05Z</time>
      </trkpt>
      <trkpt lat="48.41204" lon="2.71738">
        <ele>91.94</ele>
        <time>2016-09-17T16:16:10Z</time>
      </trkpt>
      <trkpt lat="48.41207" lon="2.71748">
        <ele>90.5</ele>
        <time>2016-09-17T16:16:15Z</time>
      </trkpt>
      <trkpt lat="48.41212" lon="2.71755">
        <ele>90.98</ele>
        <time>2016-09-17T16:16:20Z</time>
      </trkpt>
      <trkpt lat="48.41216" lon="2.71767">
        <ele>90.98</ele>
        <time>2016-09-17T16:16:27Z</time>
      </trkpt>
      <trkpt lat="48.41221" lon="2.71778">
        <ele>90.98</ele>
        <time>2016-09-17T16:16:35Z</time>
      </trkpt>
      <trkpt lat="48.41224" lon="2.71785">
        <ele>90.98</ele>
        <time>2016-09-17T16:16:40Z</time>
      </trkpt>
      <trkpt lat="48.41225" lon="2.71789">
        <ele>90.98</ele>
        <time>2016-09-17T16:16:42Z</time>
      </trkpt>
      <trkpt lat="48.41229" lon="2.71798">
        <ele>90.98</ele>
        <time>2016-09-17T16:16:48Z</time>
      </trkpt>
      <trkpt lat="48.41233" lon="2.7181">
        <ele>90.98</ele>
        <time>2016-09-17T16:16:56Z</time>
      </trkpt>
      <trkpt lat="48.41234" lon="2.71822">
        <ele>90.98</ele>
        <time>2016-09-17T16:17:02Z</time>
      </trkpt>
      <trkpt lat="48.41235" lon="2.71822">
        <ele>90.98</ele>
        <time>2016-09-17T16:17:03Z</time>
      </trkpt>
      <trkpt lat="48.4124" lon="2.71835">
        <ele>90.98</ele>
        <time>2016-09-17T16:17:10Z</time>
      </trkpt>
      <trkpt lat="48.41245" lon="2.71845">
        <ele>90.5</ele>
        <time>2016-09-17T16:17:17Z</time>
      </trkpt>
      <trkpt lat="48.41249" lon="2.71851">
        <ele>90.02</ele>
        <time>2016-09-17T16:17:22Z</time>
      </trkpt>
      <trkpt lat="48.41254" lon="2.71863">
        <ele>89.54</ele>
        <time>2016-09-17T16:17:29Z</time>
      </trkpt>
      <trkpt lat="48.41255" lon="2.71865">
        <ele>90.02</ele>
        <time>2016-09-17T16:17:30Z</time>
      </trkpt>
      <trkpt lat="48.41259" lon="2.71877">
        <ele>89.54</ele>
        <time>2016-09-17T16:17:37Z</time>
      </trkpt>
      <trkpt lat="48.4126" lon="2.71879">
        <ele>89.54</ele>
        <time>2016-09-17T16:17:38Z</time>
      </trkpt>
      <trkpt lat="48.41263" lon="2.71888">
        <ele>89.54</ele>
        <time>2016-09-17T16:17:45Z</time>
      </trkpt>
      <trkpt lat="48.41266" lon="2.71892">
        <ele>89.06</ele>
        <time>2016-09-17T16:17:49Z</time>
      </trkpt>
      <trkpt lat="48.41267" lon="2.71896">
        <ele>89.06</ele>
        <time>2016-09-17T16:17:51Z</time>
      </trkpt>
      <trkpt lat="48.41268" lon="2.719">
        <ele>89.06</ele>
        <time>2016-09-17T16:17:53Z</time>
      </trkpt>
      <trkpt lat="48.41271" lon="2.71908">
        <ele>89.06</ele>
        <time>2016-09-17T16:17:57Z</time>
      </trkpt>
      <trkpt lat="48.41273" lon="2.71921">
        <ele>89.06</ele>
        <time>2016-09-17T16:18:03Z</time>
      </trkpt>
      <trkpt lat="48.41277" lon="2.71933">
        <ele>89.54</ele>
        <time>2016-09-17T16:18:10Z</time>
      </trkpt>
      <trkpt lat="48.41277" lon="2.71937">
        <ele>88.58</ele>
        <time>2016-09-17T16:18:12Z</time>
      </trkpt>
      <trkpt lat="48.41283" lon="2.7195">
        <ele>88.58</ele>
        <time>2016-09-17T16:18:20Z</time>
      </trkpt>
      <trkpt lat="48.41287" lon="2.71959">
        <ele>88.58</ele>
        <time>2016-09-17T16:18:25Z</time>
      </trkpt>
      <trkpt lat="48.41288" lon="2.71961">
        <ele>88.58</ele>
        <time>2016-09-17T16:18:26Z</time>
      </trkpt>
      <trkpt lat="48.4129" lon="2.71968">
        <ele>88.58</ele>
        <time>2016-09-17T16:18:30Z</time>
      </trkpt>
      <trkpt lat="48.41296" lon="2.71982">
        <ele>88.58</ele>
        <time>2016-09-17T16:18:38Z</time>
      </trkpt>
      <trkpt lat="48.41299" lon="2.71995">
        <ele>88.58</ele>
        <time>2016-09-17T16:18:44Z</time>
      </trkpt>
      <trkpt lat="48.41303" lon="2.72003">
        <ele>88.58</ele>
        <time>2016-09-17T16:18:49Z</time>
      </trkpt>
      <trkpt lat="48.41304" lon="2.72009">
        <ele>88.58</ele>
        <time>2016-09-17T16:18:53Z</time>
      </trkpt>
      <trkpt lat="48.4131" lon="2.72019">
        <ele>88.1</ele>
        <time>2016-09-17T16:19:00Z</time>
      </trkpt>
      <trkpt lat="48.4131" lon="2.72021">
        <ele>88.1</ele>
        <time>2016-09-17T16:19:01Z</time>
      </trkpt>
      <trkpt lat="48.41312" lon="2.72029">
        <ele>88.1</ele>
        <time>2016-09-17T16:19:07Z</time>
      </trkpt>
      <trkpt lat="48.41313" lon="2.72034">
        <ele>88.1</ele>
        <time>2016-09-17T16:19:10Z</time>
      </trkpt>
      <trkpt lat="48.41314" lon="2.72039">
        <ele>88.1</ele>
        <time>2016-09-17T16:19:12Z</time>
      </trkpt>
      <trkpt lat="48.41316" lon="2.7205">
        <ele>88.1</ele>
        <time>2016-09-17T16:19:17Z</time>
      </trkpt>
      <trkpt lat="48.41318" lon="2.72061">
        <ele>88.1</ele>
        <time>2016-09-17T16:19:23Z</time>
      </trkpt>
      <trkpt lat="48.41318" lon="2.72065">
        <ele>88.1</ele>
        <time>2016-09-17T16:19:25Z</time>
      </trkpt>
      <trkpt lat="48.41319" lon="2.72073">
        <ele>88.1</ele>
        <time>2016-09-17T16:19:30Z</time>
      </trkpt>
      <trkpt lat="48.41321" lon="2.72078">
        <ele>88.1</ele>
        <time>2016-09-17T16:19:33Z</time>
      </trkpt>
      <trkpt lat="48.41322" lon="2.72095">
        <ele>87.62</ele>
        <time>2016-09-17T16:19:41Z</time>
      </trkpt>
      <trkpt lat="48.41322" lon="2.72097">
        <ele>87.62</ele>
        <time>2016-09-17T16:19:42Z</time>
      </trkpt>
      <trkpt lat="48.41324" lon="2.72109">
        <ele>87.62</ele>
        <time>2016-09-17T16:19:47Z</time>
      </trkpt>
      <trkpt lat="48.41322" lon="2.72125">
        <ele>87.62</ele>
        <time>2016-09-17T16:19:56Z</time>
      </trkpt>
      <trkpt lat="48.41322" lon="2.72127">
        <ele>87.62</ele>
        <time>2016-09-17T16:19:57Z</time>
      </trkpt>
      <trkpt lat="48.41322" lon="2.72144">
        <ele>87.62</ele>
        <time>2016-09-17T16:20:05Z</time>
      </trkpt>
      <trkpt lat="48.41322" lon="2.72154">
        <ele>87.14</ele>
        <time>2016-09-17T16:20:10Z</time>
      </trkpt>
      <trkpt lat="48.4132" lon="2.72169">
        <ele>86.66</ele>
        <time>2016-09-17T16:20:17Z</time>
      </trkpt>
      <trkpt lat="48.41321" lon="2.72172">
        <ele>86.66</ele>
        <time>2016-09-17T16:20:19Z</time>
      </trkpt>
      <trkpt lat="48.41321" lon="2.72181">
        <ele>87.14</ele>
        <time>2016-09-17T16:20:24Z</time>
      </trkpt>
      <trkpt lat="48.41322" lon="2.72196">
        <ele>86.66</ele>
        <time>2016-09-17T16:20:31Z</time>
      </trkpt>
      <trkpt lat="48.41323" lon="2.72199">
        <ele>86.66</ele>
        <time>2016-09-17T16:20:33Z</time>
      </trkpt>
      <trkpt lat="48.41325" lon="2.72205">
        <ele>86.66</ele>
        <time>2016-09-17T16:20:37Z</time>
      </trkpt>
      <trkpt lat="48.41333" lon="2.72219">
        <ele>86.66</ele>
        <time>2016-09-17T16:20:45Z</time>
      </trkpt>
      <trkpt lat="48.41339" lon="2.72226">
        <ele>86.66</ele>
        <time>2016-09-17T16:20:51Z</time>
      </trkpt>
      <trkpt lat="48.41344" lon="2.72233">
        <ele>86.66</ele>
        <time>2016-09-17T16:20:55Z</time>
      </trkpt>
      <trkpt lat="48.41351" lon="2.72241">
        <ele>86.66</ele>
        <time>2016-09-17T16:21:02Z</time>
      </trkpt>
      <trkpt lat="48.41358" lon="2.72248">
        <ele>86.66</ele>
        <time>2016-09-17T16:21:08Z</time>
      </trkpt>
      <trkpt lat="48.41365" lon="2.72257">
        <ele>87.14</ele>
        <time>2016-09-17T16:21:15Z</time>
      </trkpt>
      <trkpt lat="48.41366" lon="2.72259">
        <ele>86.66</ele>
        <time>2016-09-17T16:21:16Z</time>
      </trkpt>
      <trkpt lat="48.41379" lon="2.72266">
        <ele>87.14</ele>
        <time>2016-09-17T16:21:25Z</time>
      </trkpt>
      <trkpt lat="48.41387" lon="2.72273">
        <ele>87.14</ele>
        <time>2016-09-17T16:21:32Z</time>
      </trkpt>
      <trkpt lat="48.41389" lon="2.72274">
        <ele>87.14</ele>
        <time>2016-09-17T16:21:33Z</time>
      </trkpt>
      <trkpt lat="48.41391" lon="2.72278">
        <ele>87.14</ele>
        <time>2016-09-17T16:21:36Z</time>
      </trkpt>
      <trkpt lat="48.414" lon="2.72285">
        <ele>87.14</ele>
        <time>2016-09-17T16:21:44Z</time>
      </trkpt>
      <trkpt lat="48.41407" lon="2.72291">
        <ele>86.66</ele>
        <time>2016-09-17T16:21:50Z</time>
      </trkpt>
      <trkpt lat="48.41414" lon="2.72298">
        <ele>86.66</ele>
        <time>2016-09-17T16:21:57Z</time>
      </trkpt>
      <trkpt lat="48.41419" lon="2.723">
        <ele>86.66</ele>
        <time>2016-09-17T16:22:01Z</time>
      </trkpt>
      <trkpt lat="48.41425" lon="2.72306">
        <ele>86.66</ele>
        <time>2016-09-17T16:22:07Z</time>
      </trkpt>
      <trkpt lat="48.41428" lon="2.7231">
        <ele>86.66</ele>
        <time>2016-09-17T16:22:10Z</time>
      </trkpt>
      <trkpt lat="48.41432" lon="2.72314">
        <ele>86.66</ele>
        <time>2016-09-17T16:22:14Z</time>
      </trkpt>
      <trkpt lat="48.41441" lon="2.72325">
        <ele>86.18</ele>
        <time>2016-09-17T16:22:24Z</time>
      </trkpt>
      <trkpt lat="48.41444" lon="2.7233">
        <ele>86.18</ele>
        <time>2016-09-17T16:22:28Z</time>
      </trkpt>
      <trkpt lat="48.41448" lon="2.72335">
        <ele>86.18</ele>
        <time>2016-09-17T16:22:32Z</time>
      </trkpt>
      <trkpt lat="48.41455" lon="2.72342">
        <ele>86.18</ele>
        <time>2016-09-17T16:22:38Z</time>
      </trkpt>
      <trkpt lat="48.41464" lon="2.72353">
        <ele>85.69</ele>
        <time>2016-09-17T16:22:46Z</time>
      </trkpt>
      <trkpt lat="48.41468" lon="2.72363">
        <ele>85.69</ele>
        <time>2016-09-17T16:22:52Z</time>
      </trkpt>
      <trkpt lat="48.41474" lon="2.72376">
        <ele>85.21</ele>
        <time>2016-09-17T16:22:59Z</time>
      </trkpt>
      <trkpt lat="48.41479" lon="2.72387">
        <ele>85.21</ele>
        <time>2016-09-17T16:23:06Z</time>
      </trkpt>
      <trkpt lat="48.41483" lon="2.72398">
        <ele>85.21</ele>
        <time>2016-09-17T16:23:14Z</time>
      </trkpt>
      <trkpt lat="48.41484" lon="2.72401">
        <ele>85.21</ele>
        <time>2016-09-17T16:23:16Z</time>
      </trkpt>
      <trkpt lat="48.41487" lon="2.72412">
        <ele>85.21</ele>
        <time>2016-09-17T16:23:23Z</time>
      </trkpt>
      <trkpt lat="48.41488" lon="2.72413">
        <ele>85.21</ele>
        <time>2016-09-17T16:23:24Z</time>
      </trkpt>
      <trkpt lat="48.41493" lon="2.7243">
        <ele>85.21</ele>
        <time>2016-09-17T16:23:32Z</time>
      </trkpt>
      <trkpt lat="48.41496" lon="2.72436">
        <ele>84.73</ele>
        <time>2016-09-17T16:23:36Z</time>
      </trkpt>
      <trkpt lat="48.41498" lon="2.72441">
        <ele>84.73</ele>
        <time>2016-09-17T16:23:39Z</time>
      </trkpt>
      <trkpt lat="48.41503" lon="2.72455">
        <ele>84.73</ele>
        <time>2016-09-17T16:23:48Z</time>
      </trkpt>
      <trkpt lat="48.4151" lon="2.72469">
        <ele>84.25</ele>
        <time>2016-09-17T16:23:56Z</time>
      </trkpt>
      <trkpt lat="48.41515" lon="2.72484">
        <ele>84.25</ele>
        <time>2016-09-17T16:24:03Z</time>
      </trkpt>
      <trkpt lat="48.41519" lon="2.72496">
        <ele>84.25</ele>
        <time>2016-09-17T16:24:10Z</time>
      </trkpt>
      <trkpt lat="48.41525" lon="2.72508">
        <ele>84.25</ele>
        <time>2016-09-17T16:24:17Z</time>
      </trkpt>
      <trkpt lat="48.41529" lon="2.72518">
        <ele>84.25</ele>
        <time>2016-09-17T16:24:23Z</time>
      </trkpt>
      <trkpt lat="48.41537" lon="2.72531">
        <ele>84.73</ele>
        <time>2016-09-17T16:24:31Z</time>
      </trkpt>
      <trkpt lat="48.41542" lon="2.72539">
        <ele>84.25</ele>
        <time>2016-09-17T16:24:37Z</time>
      </trkpt>
      <trkpt lat="48.41543" lon="2.72541">
        <ele>84.73</ele>
        <time>2016-09-17T16:24:40Z</time>
      </trkpt>
      <trkpt lat="48.41545" lon="2.72541">
        <ele>84.25</ele>
        <time>2016-09-17T16:24:42Z</time>
      </trkpt>
      <trkpt lat="48.4155" lon="2.72544">
        <ele>84.73</ele>
        <time>2016-09-17T16:24:46Z</time>
      </trkpt>
      <trkpt lat="48.4156" lon="2.72546">
        <ele>84.73</ele>
        <time>2016-09-17T16:24:55Z</time>
      </trkpt>
      <trkpt lat="48.4157" lon="2.72551">
        <ele>85.21</ele>
        <time>2016-09-17T16:25:04Z</time>
      </trkpt>
      <trkpt lat="48.4157" lon="2.72551">
        <ele>85.69</ele>
        <time>2016-09-17T16:25:05Z</time>
      </trkpt>
      <trkpt lat="48.41577" lon="2.72554">
        <ele>85.69</ele>
        <time>2016-09-17T16:25:10Z</time>
      </trkpt>
      <trkpt lat="48.4159" lon="2.7256">
        <ele>86.18</ele>
        <time>2016-09-17T16:25:20Z</time>
      </trkpt>
      <trkpt lat="48.41595" lon="2.72568">
        <ele>86.18</ele>
        <time>2016-09-17T16:25:25Z</time>
      </trkpt>
      <trkpt lat="48.41598" lon="2.72577">
        <ele>86.66</ele>
        <time>2016-09-17T16:25:31Z</time>
      </trkpt>
      <trkpt lat="48.416" lon="2.72586">
        <ele>86.66</ele>
        <time>2016-09-17T16:25:38Z</time>
      </trkpt>
      <trkpt lat="48.416" lon="2.72587">
        <ele>86.18</ele>
        <time>2016-09-17T16:25:39Z</time>
      </trkpt>
      <trkpt lat="48.41601" lon="2.7259">
        <ele>86.18</ele>
        <time>2016-09-17T16:25:42Z</time>
      </trkpt>
      <trkpt lat="48.41608" lon="2.72598">
        <ele>86.18</ele>
        <time>2016-09-17T16:25:50Z</time>
      </trkpt>
      <trkpt lat="48.41609" lon="2.72599">
        <ele>86.18</ele>
        <time>2016-09-17T16:25:51Z</time>
      </trkpt>
      <trkpt lat="48.41611" lon="2.72602">
        <ele>86.18</ele>
        <time>2016-09-17T16:25:53Z</time>
      </trkpt>
      <trkpt lat="48.41619" lon="2.72614">
        <ele>86.18</ele>
        <time>2016-09-17T16:26:00Z</time>
      </trkpt>
      <trkpt lat="48.41624" lon="2.72617">
        <ele>86.18</ele>
        <time>2016-09-17T16:26:05Z</time>
      </trkpt>
      <trkpt lat="48.41635" lon="2.72623">
        <ele>86.66</ele>
        <time>2016-09-17T16:26:14Z</time>
      </trkpt>
      <trkpt lat="48.41638" lon="2.72627">
        <ele>86.66</ele>
        <time>2016-09-17T16:26:17Z</time>
      </trkpt>
      <trkpt lat="48.4164" lon="2.7263">
        <ele>86.66</ele>
        <time>2016-09-17T16:26:24Z</time>
      </trkpt>
      <trkpt lat="48.41639" lon="2.7263">
        <ele>86.66</ele>
        <time>2016-09-17T16:26:30Z</time>
      </trkpt>
      <trkpt lat="48.41639" lon="2.72631">
        <ele>86.18</ele>
        <time>2016-09-17T16:26:40Z</time>
      </trkpt>
      <trkpt lat="48.4164" lon="2.72637">
        <ele>86.18</ele>
        <time>2016-09-17T16:26:47Z</time>
      </trkpt>
      <trkpt lat="48.4164" lon="2.72636">
        <ele>86.18</ele>
        <time>2016-09-17T16:26:54Z</time>
      </trkpt>
      <trkpt lat="48.41639" lon="2.72638">
        <ele>86.18</ele>
        <time>2016-09-17T16:27:03Z</time>
      </trkpt>
      <trkpt lat="48.41638" lon="2.72639">
        <ele>86.18</ele>
        <time>2016-09-17T16:27:16Z</time>
      </trkpt>
      <trkpt lat="48.41634" lon="2.72648">
        <ele>85.69</ele>
        <time>2016-09-17T16:27:28Z</time>
      </trkpt>
      <trkpt lat="48.41635" lon="2.72649">
        <ele>86.18</ele>
        <time>2016-09-17T16:27:38Z</time>
      </trkpt>
      <trkpt lat="48.41637" lon="2.72652">
        <ele>86.18</ele>
        <time>2016-09-17T16:27:48Z</time>
      </trkpt>
      <trkpt lat="48.41635" lon="2.7266">
        <ele>85.69</ele>
        <time>2016-09-17T16:27:56Z</time>
      </trkpt>
      <trkpt lat="48.41635" lon="2.72664">
        <ele>85.69</ele>
        <time>2016-09-17T16:28:02Z</time>
      </trkpt>
      <trkpt lat="48.41641" lon="2.72666">
        <ele>85.69</ele>
        <time>2016-09-17T16:28:09Z</time>
      </trkpt>
      <trkpt lat="48.41651" lon="2.72671">
        <ele>85.69</ele>
        <time>2016-09-17T16:28:19Z</time>
      </trkpt>
      <trkpt lat="48.41653" lon="2.72671">
        <ele>85.69</ele>
        <time>2016-09-17T16:28:20Z</time>
      </trkpt>
      <trkpt lat="48.41656" lon="2.72672">
        <ele>85.69</ele>
        <time>2016-09-17T16:28:26Z</time>
      </trkpt>
      <trkpt lat="48.41657" lon="2.72672">
        <ele>85.69</ele>
        <time>2016-09-17T16:28:28Z</time>
      </trkpt>
      <trkpt lat="48.41663" lon="2.72674">
        <ele>85.69</ele>
        <time>2016-09-17T16:28:35Z</time>
      </trkpt>
      <trkpt lat="48.41664" lon="2.72674">
        <ele>85.21</ele>
        <time>2016-09-17T16:28:41Z</time>
      </trkpt>
      <trkpt lat="48.41664" lon="2.72673">
        <ele>85.21</ele>
        <time>2016-09-17T16:28:47Z</time>
      </trkpt>
      <trkpt lat="48.41665" lon="2.72672">
        <ele>84.73</ele>
        <time>2016-09-17T16:28:57Z</time>
      </trkpt>
      <trkpt lat="48.41665" lon="2.72672">
        <ele>84.25</ele>
        <time>2016-09-17T16:29:11Z</time>
      </trkpt>
      <trkpt lat="48.41665" lon="2.72672">
        <ele>84.25</ele>
        <time>2016-09-17T16:29:28Z</time>
      </trkpt>
      <trkpt lat="48.41665" lon="2.72672">
        <ele>83.77</ele>
        <time>2016-09-17T16:29:42Z</time>
      </trkpt>
      <trkpt lat="48.41665" lon="2.72672">
        <ele>83.77</ele>
        <time>2016-09-17T16:30:00Z</time>
      </trkpt>
      <trkpt lat="48.41665" lon="2.72673">
        <ele>83.77</ele>
        <time>2016-09-17T16:30:20Z</time>
      </trkpt>
      <trkpt lat="48.41665" lon="2.72673">
        <ele>83.29</ele>
        <time>2016-09-17T16:30:42Z</time>
      </trkpt>
      <trkpt lat="48.41666" lon="2.72673">
        <ele>83.29</ele>
        <time>2016-09-17T16:31:02Z</time>
      </trkpt>
      <trkpt lat="48.41666" lon="2.72673">
        <ele>83.29</ele>
        <time>2016-09-17T16:31:21Z</time>
      </trkpt>
      <trkpt lat="48.41666" lon="2.72673">
        <ele>83.29</ele>
        <time>2016-09-17T16:31:37Z</time>
      </trkpt>
      <trkpt lat="48.41665" lon="2.72674">
        <ele>82.81</ele>
        <time>2016-09-17T16:31:54Z</time>
      </trkpt>
      <trkpt lat="48.41665" lon="2.72675">
        <ele>83.77</ele>
        <time>2016-09-17T16:32:06Z</time>
      </trkpt>
      <trkpt lat="48.41667" lon="2.72676">
        <ele>83.77</ele>
        <time>2016-09-17T16:32:10Z</time>
      </trkpt>
    </trkseg>
  </trk>
</gpx>